Time,TemperatureF,DewpointF,PressureIn,WindDirection,WindDirectionDegrees,WindSpeedMPH,WindSpeedGustMPH,Humidity,HourlyPrecipIn,Conditions,Clouds,dailyrainin,SoftwareType,DateUTC
2013-06-01 00:00:00,72.7,67.9,29.99,ESE,119,1.5,4.5,85,0.00,,,0.00,VWS V14.01,2013-06-01 04:00:00,
2013-06-01 00:01:00,72.7,67.9,29.99,ESE,120,1.5,1.5,85,0.00,,,0.00,VWS V14.01,2013-06-01 04:01:00,
2013-06-01 00:02:00,72.7,67.9,29.99,SSE,164,3.0,3.0,85,0.00,,,0.00,VWS V14.01,2013-06-01 04:02:00,
2013-06-01 00:03:00,72.7,67.9,29.99,SE,136,4.5,4.5,85,0.00,,,0.00,VWS V14.01,2013-06-01 04:03:00,
2013-06-01 00:04:00,72.7,67.9,29.99,SSE,167,3.0,6.0,85,0.00,,,0.00,VWS V14.01,2013-06-01 04:04:00,
2013-06-01 00:05:00,72.7,67.9,29.99,South,179,1.5,6.0,85,0.00,,,0.00,VWS V14.01,2013-06-01 04:05:00,
2013-06-01 00:06:00,72.7,67.9,29.99,SSW,201,1.5,1.5,85,0.00,,,0.00,VWS V14.01,2013-06-01 04:06:00,
2013-06-01 00:07:00,72.6,67.8,29.99,SSE,150,1.5,1.5,85,0.00,,,0.00,VWS V14.01,2013-06-01 04:07:00,
2013-06-01 00:08:00,72.6,67.8,29.99,SSE,167,1.5,3.0,85,0.00,,,0.00,VWS V14.01,2013-06-01 04:08:00,
2013-06-01 00:09:00,72.6,67.8,29.99,SE,146,1.5,3.0,85,0.00,,,0.00,VWS V14.01,2013-06-01 04:09:00,
2013-06-01 00:10:00,72.6,67.8,29.99,SE,134,1.5,1.5,85,0.00,,,0.00,VWS V14.01,2013-06-01 04:10:00,
2013-06-01 00:11:00,72.6,67.8,29.99,SE,126,1.5,1.5,85,0.00,,,0.00,VWS V14.01,2013-06-01 04:11:00,
2013-06-01 00:12:00,72.6,67.8,29.99,SSW,205,3.0,3.0,85,0.00,,,0.00,VWS V14.01,2013-06-01 04:12:00,
2013-06-01 00:13:00,72.5,67.7,29.99,SW,220,1.5,3.0,85,0.00,,,0.00,VWS V14.01,2013-06-01 04:13:00,
2013-06-01 00:14:00,72.6,67.8,29.99,SW,220,1.5,1.5,85,0.00,,,0.00,VWS V14.01,2013-06-01 04:14:00,
2013-06-01 00:15:00,72.5,67.7,29.99,SW,220,1.5,1.5,85,0.00,,,0.00,VWS V14.01,2013-06-01 04:15:00,
2013-06-01 00:16:00,72.5,67.7,29.99,SW,221,1.5,1.5,85,0.00,,,0.00,VWS V14.01,2013-06-01 04:16:00,
2013-06-01 00:17:00,72.5,67.7,29.99,SW,220,1.5,3.0,85,0.00,,,0.00,VWS V14.01,2013-06-01 04:17:00,
2013-06-01 00:18:00,72.5,67.7,29.99,SW,220,1.5,1.5,85,0.00,,,0.00,VWS V14.01,2013-06-01 04:18:00,
2013-06-01 00:19:00,72.5,67.7,29.99,SW,220,1.5,1.5,85,0.00,,,0.00,VWS V14.01,2013-06-01 04:19:00,
2013-06-01 00:20:00,72.5,67.7,29.99,SE,126,3.0,6.0,85,0.00,,,0.00,VWS V14.01,2013-06-01 04:20:00,
2013-06-01 00:21:00,72.4,67.6,29.99,SE,146,1.5,1.5,85,0.00,,,0.00,VWS V14.01,2013-06-01 04:21:00,
2013-06-01 00:22:00,72.4,68.0,29.99,SSW,199,3.0,3.0,86,0.00,,,0.00,VWS V14.01,2013-06-01 04:22:00,
2013-06-01 00:23:00,72.4,68.0,29.99,SSW,195,1.5,3.0,86,0.00,,,0.00,VWS V14.01,2013-06-01 04:23:00,
2013-06-01 00:24:00,72.4,68.0,29.99,SSE,160,6.0,6.0,86,0.00,,,0.00,VWS V14.01,2013-06-01 04:24:00,
2013-06-01 00:25:00,72.4,68.0,29.99,SE,141,1.5,6.0,86,0.00,,,0.00,VWS V14.01,2013-06-01 04:25:00,
2013-06-01 00:26:00,72.4,68.0,29.99,SE,142,1.5,1.5,86,0.00,,,0.00,VWS V14.01,2013-06-01 04:26:00,
2013-06-01 00:27:00,72.4,68.0,29.99,SW,232,3.0,3.0,86,0.00,,,0.00,VWS V14.01,2013-06-01 04:27:00,
2013-06-01 00:28:00,72.4,68.0,29.99,South,172,1.5,4.5,86,0.00,,,0.00,VWS V14.01,2013-06-01 04:28:00,
2013-06-01 00:29:00,72.3,67.5,29.99,SSW,203,3.0,4.5,85,0.00,,,0.00,VWS V14.01,2013-06-01 04:29:00,
2013-06-01 00:30:00,72.3,67.5,29.99,South,191,4.5,6.0,85,0.00,,,0.00,VWS V14.01,2013-06-01 04:30:00,
2013-06-01 00:31:00,72.3,67.5,29.99,SSE,164,1.5,1.5,85,0.00,,,0.00,VWS V14.01,2013-06-01 04:31:00,
2013-06-01 00:32:00,72.4,67.6,29.99,SE,139,4.5,6.0,85,0.00,,,0.00,VWS V14.01,2013-06-01 04:32:00,
2013-06-01 00:33:00,72.3,67.5,29.99,SSE,160,3.0,4.5,85,0.00,,,0.00,VWS V14.01,2013-06-01 04:33:00,
2013-06-01 00:34:00,72.4,67.6,29.99,SSW,199,3.0,4.5,85,0.00,,,0.00,VWS V14.01,2013-06-01 04:34:00,
2013-06-01 00:35:00,72.3,67.5,29.99,SE,146,3.0,7.5,85,0.00,,,0.00,VWS V14.01,2013-06-01 04:35:00,
2013-06-01 00:36:00,72.4,67.6,29.99,SSW,206,6.0,6.0,85,0.00,,,0.00,VWS V14.01,2013-06-01 04:36:00,
2013-06-01 00:37:00,72.3,67.5,29.99,SSW,192,1.5,6.0,85,0.00,,,0.00,VWS V14.01,2013-06-01 04:37:00,
2013-06-01 00:38:00,72.3,67.5,29.99,SSE,160,1.5,3.0,85,0.00,,,0.00,VWS V14.01,2013-06-01 04:38:00,
2013-06-01 00:39:00,72.3,67.5,29.99,SSE,156,3.0,4.5,85,0.00,,,0.00,VWS V14.01,2013-06-01 04:39:00,
2013-06-01 00:40:00,72.3,67.5,29.99,South,175,4.5,4.5,85,0.00,,,0.00,VWS V14.01,2013-06-01 04:40:00,
2013-06-01 00:41:00,72.3,67.5,29.99,SSW,212,4.5,4.5,85,0.00,,,0.00,VWS V14.01,2013-06-01 04:41:00,
2013-06-01 00:42:00,72.3,67.5,29.99,SE,130,1.5,4.5,85,0.00,,,0.00,VWS V14.01,2013-06-01 04:42:00,
2013-06-01 00:43:00,72.3,67.5,29.99,SE,133,3.0,6.0,85,0.00,,,0.00,VWS V14.01,2013-06-01 04:43:00,
2013-06-01 00:44:00,72.3,67.5,29.99,SSE,167,1.5,3.0,85,0.00,,,0.00,VWS V14.01,2013-06-01 04:44:00,
2013-06-01 00:45:00,72.3,67.5,29.99,WSW,251,1.5,6.0,85,0.00,,,0.00,VWS V14.01,2013-06-01 04:45:00,
2013-06-01 00:46:00,72.2,67.4,29.99,SW,217,1.5,1.5,85,0.00,,,0.00,VWS V14.01,2013-06-01 04:46:00,
2013-06-01 00:47:00,72.3,67.5,29.99,SSW,210,3.0,3.0,85,0.00,,,0.00,VWS V14.01,2013-06-01 04:47:00,
2013-06-01 00:48:00,72.3,67.5,29.99,SSW,210,1.5,3.0,85,0.00,,,0.00,VWS V14.01,2013-06-01 04:48:00,
2013-06-01 00:49:00,72.3,67.5,29.99,ESE,116,1.5,3.0,85,0.00,,,0.00,VWS V14.01,2013-06-01 04:49:00,
2013-06-01 00:50:00,72.3,67.5,29.99,ESE,116,1.5,1.5,85,0.00,,,0.00,VWS V14.01,2013-06-01 04:50:00,
2013-06-01 00:51:00,72.3,67.5,29.99,South,175,3.0,4.5,85,0.00,,,0.00,VWS V14.01,2013-06-01 04:51:00,
2013-06-01 00:52:00,72.3,67.5,29.99,SW,236,1.5,4.5,85,0.00,,,0.00,VWS V14.01,2013-06-01 04:52:00,
2013-06-01 00:53:00,72.3,67.5,29.99,SSE,162,4.5,6.0,85,0.00,,,0.00,VWS V14.01,2013-06-01 04:53:00,
2013-06-01 00:54:00,72.4,67.6,29.99,ESE,106,1.5,4.5,85,0.00,,,0.00,VWS V14.01,2013-06-01 04:54:00,
2013-06-01 00:55:00,72.4,67.6,29.99,SSE,164,3.0,3.0,85,0.00,,,0.00,VWS V14.01,2013-06-01 04:55:00,
2013-06-01 00:56:00,72.4,67.6,29.99,SSE,164,3.0,3.0,85,0.00,,,0.00,VWS V14.01,2013-06-01 04:56:00,
2013-06-01 00:57:00,72.4,67.6,29.98,SW,229,3.0,6.0,85,0.00,,,0.00,VWS V14.01,2013-06-01 04:57:00,
2013-06-01 00:58:00,72.4,67.3,29.98,SSE,156,1.5,4.5,84,0.00,,,0.00,VWS V14.01,2013-06-01 04:58:00,
2013-06-01 00:59:00,72.4,67.3,29.98,SSE,157,6.0,7.5,84,0.00,,,0.00,VWS V14.01,2013-06-01 04:59:00,
2013-06-01 01:00:00,72.4,67.3,29.98,SW,217,3.0,4.5,84,0.00,,,0.00,VWS V14.01,2013-06-01 05:00:00,
2013-06-01 01:01:00,72.4,67.3,29.98,SW,217,3.0,4.5,84,0.00,,,0.00,VWS V14.01,2013-06-01 05:01:00,
2013-06-01 01:02:00,72.4,67.3,29.99,WSW,241,4.5,6.0,84,0.00,,,0.00,VWS V14.01,2013-06-01 05:02:00,
2013-06-01 01:03:00,72.4,67.3,29.99,SSW,209,4.5,4.5,84,0.00,,,0.00,VWS V14.01,2013-06-01 05:03:00,
2013-06-01 01:04:00,72.5,67.4,29.99,WSW,248,3.0,4.5,84,0.00,,,0.00,VWS V14.01,2013-06-01 05:04:00,
2013-06-01 01:05:00,72.5,67.4,29.99,WSW,248,1.5,1.5,84,0.00,,,0.00,VWS V14.01,2013-06-01 05:05:00,
2013-06-01 01:06:00,72.5,67.4,29.99,WSW,248,1.5,1.5,84,0.00,,,0.00,VWS V14.01,2013-06-01 05:06:00,
2013-06-01 01:07:00,72.5,67.4,29.99,SSW,210,1.5,3.0,84,0.00,,,0.00,VWS V14.01,2013-06-01 05:07:00,
2013-06-01 01:08:00,72.5,67.4,29.99,SSW,196,7.5,7.5,84,0.00,,,0.00,VWS V14.01,2013-06-01 05:08:00,
2013-06-01 01:09:00,72.5,67.4,29.99,South,185,3.0,7.5,84,0.00,,,0.00,VWS V14.01,2013-06-01 05:09:00,
2013-06-01 01:10:00,72.6,67.5,29.99,SW,217,3.0,4.5,84,0.00,,,0.00,VWS V14.01,2013-06-01 05:10:00,
2013-06-01 01:11:00,72.6,67.5,29.99,SW,217,3.0,4.5,84,0.00,,,0.00,VWS V14.01,2013-06-01 05:11:00,
2013-06-01 01:12:00,72.6,67.2,29.98,South,189,6.0,6.0,83,0.00,,,0.00,VWS V14.01,2013-06-01 05:12:00,
2013-06-01 01:13:00,72.6,67.2,29.98,SE,130,1.5,6.0,83,0.00,,,0.00,VWS V14.01,2013-06-01 05:13:00,
2013-06-01 01:14:00,72.6,67.2,29.98,ESE,120,4.5,7.5,83,0.00,,,0.00,VWS V14.01,2013-06-01 05:14:00,
2013-06-01 01:15:00,72.6,67.2,29.98,SW,223,9.0,9.0,83,0.00,,,0.00,VWS V14.01,2013-06-01 05:15:00,
2013-06-01 01:16:00,72.6,67.2,29.98,SW,223,9.0,9.0,83,0.00,,,0.00,VWS V14.01,2013-06-01 05:16:00,
2013-06-01 01:17:00,72.6,67.2,29.98,WSW,244,1.5,9.0,83,0.00,,,0.00,VWS V14.01,2013-06-01 05:17:00,
2013-06-01 01:18:00,72.6,67.2,29.98,WNW,285,1.5,3.0,83,0.00,,,0.00,VWS V14.01,2013-06-01 05:18:00,
2013-06-01 01:19:00,72.5,67.1,29.98,ESE,120,3.0,4.5,83,0.00,,,0.00,VWS V14.01,2013-06-01 05:19:00,
2013-06-01 01:20:00,72.5,67.1,29.97,SE,146,1.5,1.5,83,0.00,,,0.00,VWS V14.01,2013-06-01 05:20:00,
2013-06-01 01:21:00,72.5,67.1,29.97,SE,146,1.5,1.5,83,0.00,,,0.00,VWS V14.01,2013-06-01 05:21:00,
2013-06-01 01:22:00,72.5,67.1,29.98,South,184,1.5,1.5,83,0.00,,,0.00,VWS V14.01,2013-06-01 05:22:00,
2013-06-01 01:23:00,72.4,66.9,29.98,SW,226,3.0,4.5,83,0.00,,,0.00,VWS V14.01,2013-06-01 05:23:00,
2013-06-01 01:24:00,72.4,66.9,29.98,SW,230,1.5,3.0,83,0.00,,,0.00,VWS V14.01,2013-06-01 05:24:00,
2013-06-01 01:25:00,72.4,66.9,29.97,SW,226,6.0,6.0,83,0.00,,,0.00,VWS V14.01,2013-06-01 05:25:00,
2013-06-01 01:26:00,72.4,66.9,29.97,SSW,213,4.5,6.0,83,0.00,,,0.00,VWS V14.01,2013-06-01 05:26:00,
2013-06-01 01:27:00,72.4,66.9,29.98,SSW,213,3.0,4.5,83,0.00,,,0.00,VWS V14.01,2013-06-01 05:27:00,
2013-06-01 01:28:00,72.4,66.9,29.97,SW,217,7.5,7.5,83,0.00,,,0.00,VWS V14.01,2013-06-01 05:28:00,
2013-06-01 01:29:00,72.4,66.9,29.97,WSW,257,6.0,7.5,83,0.00,,,0.00,VWS V14.01,2013-06-01 05:29:00,
2013-06-01 01:30:00,72.5,67.1,29.97,SW,217,3.0,6.0,83,0.00,,,0.00,VWS V14.01,2013-06-01 05:30:00,
2013-06-01 01:31:00,72.5,67.1,29.97,SW,217,3.0,6.0,83,0.00,,,0.00,VWS V14.01,2013-06-01 05:31:00,
2013-06-01 01:32:00,72.5,67.1,29.97,SW,234,1.5,3.0,83,0.00,,,0.00,VWS V14.01,2013-06-01 05:32:00,
2013-06-01 01:33:00,72.6,67.2,29.97,WSW,244,6.0,6.0,83,0.00,,,0.00,VWS V14.01,2013-06-01 05:33:00,
2013-06-01 01:34:00,72.6,67.2,29.97,SE,144,3.0,9.0,83,0.00,,,0.00,VWS V14.01,2013-06-01 05:34:00,
2013-06-01 01:35:00,72.8,67.0,29.97,ESE,121,3.0,4.5,82,0.00,,,0.00,VWS V14.01,2013-06-01 05:35:00,
2013-06-01 01:36:00,72.8,67.0,29.97,ESE,120,1.5,12.0,82,0.00,,,0.00,VWS V14.01,2013-06-01 05:36:00,
2013-06-01 01:37:00,72.8,67.0,29.97,SW,217,6.0,10.5,82,0.00,,,0.00,VWS V14.01,2013-06-01 05:37:00,
2013-06-01 01:38:00,72.9,67.1,29.97,SW,220,4.5,10.5,82,0.00,,,0.00,VWS V14.01,2013-06-01 05:38:00,
2013-06-01 01:39:00,72.9,67.1,29.97,SSW,206,4.5,6.0,82,0.00,,,0.00,VWS V14.01,2013-06-01 05:39:00,
2013-06-01 01:40:00,73.0,67.2,29.97,SW,217,7.5,7.5,82,0.00,,,0.00,VWS V14.01,2013-06-01 05:40:00,
2013-06-01 01:41:00,73.0,67.2,29.97,SW,231,7.5,7.5,82,0.00,,,0.00,VWS V14.01,2013-06-01 05:41:00,
2013-06-01 01:42:00,73.0,67.2,29.97,WSW,243,3.0,7.5,82,0.00,,,0.00,VWS V14.01,2013-06-01 05:42:00,
2013-06-01 01:43:00,73.1,66.9,29.97,West,260,4.5,9.0,81,0.00,,,0.00,VWS V14.01,2013-06-01 05:43:00,
2013-06-01 01:44:00,73.1,66.9,29.97,SW,226,6.0,10.5,81,0.00,,,0.00,VWS V14.01,2013-06-01 05:44:00,
2013-06-01 01:45:00,73.1,66.9,29.97,SW,220,4.5,6.0,81,0.00,,,0.00,VWS V14.01,2013-06-01 05:45:00,
2013-06-01 01:46:00,73.2,67.0,29.97,South,189,6.0,7.5,81,0.00,,,0.00,VWS V14.01,2013-06-01 05:46:00,
2013-06-01 01:47:00,73.2,67.0,29.97,South,174,4.5,7.5,81,0.00,,,0.00,VWS V14.01,2013-06-01 05:47:00,
2013-06-01 01:48:00,73.2,67.0,29.97,WSW,257,6.0,7.5,81,0.00,,,0.00,VWS V14.01,2013-06-01 05:48:00,
2013-06-01 01:49:00,73.2,67.0,29.97,SSW,209,1.5,7.5,81,0.00,,,0.00,VWS V14.01,2013-06-01 05:49:00,
2013-06-01 01:50:00,73.2,67.0,29.97,SSW,196,4.5,4.5,81,0.00,,,0.00,VWS V14.01,2013-06-01 05:50:00,
2013-06-01 01:51:00,73.2,67.0,29.97,SW,217,6.0,6.0,81,0.00,,,0.00,VWS V14.01,2013-06-01 05:51:00,
2013-06-01 01:52:00,73.2,67.0,29.97,SSW,198,3.0,6.0,81,0.00,,,0.00,VWS V14.01,2013-06-01 05:52:00,
2013-06-01 01:53:00,73.1,66.9,29.97,SW,219,3.0,4.5,81,0.00,,,0.00,VWS V14.01,2013-06-01 05:53:00,
2013-06-01 01:54:00,73.1,66.9,29.97,West,260,4.5,6.0,81,0.00,,,0.00,VWS V14.01,2013-06-01 05:54:00,
2013-06-01 01:55:00,73.1,66.9,29.97,WSW,254,6.0,6.0,81,0.00,,,0.00,VWS V14.01,2013-06-01 05:55:00,
2013-06-01 01:56:00,73.1,66.9,29.97,WSW,239,10.5,10.5,81,0.00,,,0.00,VWS V14.01,2013-06-01 05:56:00,
2013-06-01 01:57:00,73.1,66.9,29.97,WSW,241,1.5,10.5,81,0.00,,,0.00,VWS V14.01,2013-06-01 05:57:00,
2013-06-01 01:58:00,73.1,66.9,29.97,SSW,203,4.5,7.5,81,0.00,,,0.00,VWS V14.01,2013-06-01 05:58:00,
2013-06-01 01:59:00,73.1,66.9,29.97,SW,228,3.0,4.5,81,0.00,,,0.00,VWS V14.01,2013-06-01 05:59:00,
2013-06-01 02:00:00,73.1,66.9,29.97,WSW,257,3.0,9.0,81,0.00,,,0.00,VWS V14.01,2013-06-01 06:00:00,
2013-06-01 02:01:00,73.1,66.9,29.97,SSW,205,4.5,9.0,81,0.00,,,0.00,VWS V14.01,2013-06-01 06:01:00,
2013-06-01 02:02:00,73.1,66.9,29.97,WSW,251,1.5,6.0,81,0.00,,,0.00,VWS V14.01,2013-06-01 06:02:00,
2013-06-01 02:03:00,73.1,66.9,29.97,South,184,7.5,7.5,81,0.00,,,0.00,VWS V14.01,2013-06-01 06:03:00,
2013-06-01 02:04:00,73.1,66.9,29.97,SW,220,1.5,7.5,81,0.00,,,0.00,VWS V14.01,2013-06-01 06:04:00,
2013-06-01 02:05:00,73.1,66.9,29.97,SSE,160,6.0,6.0,81,0.00,,,0.00,VWS V14.01,2013-06-01 06:05:00,
2013-06-01 02:06:00,73.1,66.9,29.97,SSW,196,10.5,10.5,81,0.00,,,0.00,VWS V14.01,2013-06-01 06:06:00,
2013-06-01 02:07:00,73.1,66.9,29.98,SW,219,3.0,10.5,81,0.00,,,0.00,VWS V14.01,2013-06-01 06:07:00,
2013-06-01 02:08:00,73.1,66.9,29.98,WSW,252,10.5,10.5,81,0.00,,,0.00,VWS V14.01,2013-06-01 06:08:00,
2013-06-01 02:09:00,73.1,66.9,29.98,SSW,206,4.5,12.0,81,0.00,,,0.00,VWS V14.01,2013-06-01 06:09:00,
2013-06-01 02:10:00,73.3,67.1,29.97,WSW,248,7.5,10.5,81,0.00,,,0.00,VWS V14.01,2013-06-01 06:10:00,
2013-06-01 02:11:00,73.3,67.1,29.97,SSW,208,6.0,10.5,81,0.00,,,0.00,VWS V14.01,2013-06-01 06:11:00,
2013-06-01 02:12:00,73.3,67.1,29.97,South,170,1.5,6.0,81,0.00,,,0.00,VWS V14.01,2013-06-01 06:12:00,
2013-06-01 02:13:00,73.3,67.1,29.97,South,191,4.5,4.5,81,0.00,,,0.00,VWS V14.01,2013-06-01 06:13:00,
2013-06-01 02:14:00,73.3,67.1,29.97,SSW,206,6.0,10.5,81,0.00,,,0.00,VWS V14.01,2013-06-01 06:14:00,
2013-06-01 02:15:00,73.3,67.1,29.97,WSW,251,1.5,4.5,81,0.00,,,0.00,VWS V14.01,2013-06-01 06:15:00,
2013-06-01 02:16:00,73.3,67.1,29.97,WSW,251,1.5,4.5,81,0.00,,,0.00,VWS V14.01,2013-06-01 06:16:00,
2013-06-01 02:17:00,73.3,67.1,29.97,SSW,212,6.0,12.0,81,0.00,,,0.00,VWS V14.01,2013-06-01 06:17:00,
2013-06-01 02:18:00,73.3,67.1,29.97,SSW,205,3.0,6.0,81,0.00,,,0.00,VWS V14.01,2013-06-01 06:18:00,
2013-06-01 02:19:00,73.4,67.2,29.97,SW,216,1.5,4.5,81,0.00,,,0.00,VWS V14.01,2013-06-01 06:19:00,
2013-06-01 02:20:00,73.3,67.1,29.97,SSE,156,10.5,13.5,81,0.00,,,0.00,VWS V14.01,2013-06-01 06:20:00,
2013-06-01 02:21:00,73.3,67.1,29.97,SSW,203,9.0,16.5,81,0.00,,,0.00,VWS V14.01,2013-06-01 06:21:00,
2013-06-01 02:22:00,73.3,67.1,29.97,SSW,209,7.5,10.5,81,0.00,,,0.00,VWS V14.01,2013-06-01 06:22:00,
2013-06-01 02:23:00,73.3,67.1,29.97,SSW,213,4.5,7.5,81,0.00,,,0.00,VWS V14.01,2013-06-01 06:23:00,
2013-06-01 02:24:00,73.3,67.1,29.97,SW,233,10.5,10.5,81,0.00,,,0.00,VWS V14.01,2013-06-01 06:24:00,
2013-06-01 02:25:00,73.3,66.8,29.97,South,182,4.5,13.5,80,0.00,,,0.00,VWS V14.01,2013-06-01 06:25:00,
2013-06-01 02:26:00,73.4,66.9,29.97,SE,146,6.0,13.5,80,0.00,,,0.00,VWS V14.01,2013-06-01 06:26:00,
2013-06-01 02:27:00,73.4,67.2,29.97,SW,231,3.0,6.0,81,0.00,,,0.00,VWS V14.01,2013-06-01 06:27:00,
2013-06-01 02:28:00,73.4,66.9,29.97,SSW,198,7.5,10.5,80,0.00,,,0.00,VWS V14.01,2013-06-01 06:28:00,
2013-06-01 02:29:00,73.4,66.9,29.97,West,267,6.0,9.0,80,0.00,,,0.00,VWS V14.01,2013-06-01 06:29:00,
2013-06-01 02:30:00,73.4,66.9,29.97,WSW,257,6.0,9.0,80,0.00,,,0.00,VWS V14.01,2013-06-01 06:30:00,
2013-06-01 02:31:00,73.4,66.9,29.97,SSE,149,6.0,9.0,80,0.00,,,0.00,VWS V14.01,2013-06-01 06:31:00,
2013-06-01 02:32:00,73.4,66.9,29.97,SW,215,4.5,9.0,80,0.00,,,0.00,VWS V14.01,2013-06-01 06:32:00,
2013-06-01 02:33:00,73.4,66.9,29.97,SSW,195,6.0,6.0,80,0.00,,,0.00,VWS V14.01,2013-06-01 06:33:00,
2013-06-01 02:34:00,73.4,66.9,29.97,SSW,192,4.5,12.0,80,0.00,,,0.00,VWS V14.01,2013-06-01 06:34:00,
2013-06-01 02:35:00,73.5,67.0,29.97,South,174,4.5,10.5,80,0.00,,,0.00,VWS V14.01,2013-06-01 06:35:00,
2013-06-01 02:36:00,73.5,67.0,29.97,SE,134,7.5,10.5,80,0.00,,,0.00,VWS V14.01,2013-06-01 06:36:00,
2013-06-01 02:37:00,73.5,67.0,29.97,WSW,239,3.0,7.5,80,0.00,,,0.00,VWS V14.01,2013-06-01 06:37:00,
2013-06-01 02:38:00,73.5,67.0,29.97,SSW,195,4.5,10.5,80,0.00,,,0.00,VWS V14.01,2013-06-01 06:38:00,
2013-06-01 02:39:00,73.5,67.0,29.97,SW,217,13.5,13.5,80,0.00,,,0.00,VWS V14.01,2013-06-01 06:39:00,
2013-06-01 02:40:00,73.6,67.1,29.97,SSW,205,12.0,13.5,80,0.00,,,0.00,VWS V14.01,2013-06-01 06:40:00,
2013-06-01 02:41:00,73.6,67.1,29.97,SSW,209,7.5,13.5,80,0.00,,,0.00,VWS V14.01,2013-06-01 06:41:00,
2013-06-01 02:42:00,73.6,67.1,29.97,WSW,244,3.0,7.5,80,0.00,,,0.00,VWS V14.01,2013-06-01 06:42:00,
2013-06-01 02:43:00,73.5,67.0,29.96,WSW,257,3.0,4.5,80,0.00,,,0.00,VWS V14.01,2013-06-01 06:43:00,
2013-06-01 02:44:00,73.5,67.0,29.96,SSW,201,9.0,9.0,80,0.00,,,0.00,VWS V14.01,2013-06-01 06:44:00,
2013-06-01 02:45:00,73.5,67.0,29.96,SW,226,1.5,3.0,80,0.00,,,0.00,VWS V14.01,2013-06-01 06:45:00,
2013-06-01 02:46:00,73.5,67.0,29.96,SW,226,10.5,10.5,80,0.00,,,0.00,VWS V14.01,2013-06-01 06:46:00,
2013-06-01 02:47:00,73.5,67.0,29.96,SSW,212,3.0,10.5,80,0.00,,,0.00,VWS V14.01,2013-06-01 06:47:00,
2013-06-01 02:48:00,73.4,66.9,29.96,WSW,239,3.0,4.5,80,0.00,,,0.00,VWS V14.01,2013-06-01 06:48:00,
2013-06-01 02:49:00,73.4,66.9,29.96,SSW,203,3.0,6.0,80,0.00,,,0.00,VWS V14.01,2013-06-01 06:49:00,
2013-06-01 02:50:00,73.4,66.9,29.96,SSW,212,9.0,10.5,80,0.00,,,0.00,VWS V14.01,2013-06-01 06:50:00,
2013-06-01 02:51:00,73.4,66.9,29.96,SW,219,6.0,10.5,80,0.00,,,0.00,VWS V14.01,2013-06-01 06:51:00,
2013-06-01 02:52:00,73.3,66.8,29.96,WSW,257,4.5,6.0,80,0.00,,,0.00,VWS V14.01,2013-06-01 06:52:00,
2013-06-01 02:53:00,73.3,66.8,29.96,SW,231,4.5,13.5,80,0.00,,,0.00,VWS V14.01,2013-06-01 06:53:00,
2013-06-01 02:54:00,73.3,66.8,29.96,South,184,4.5,7.5,80,0.00,,,0.00,VWS V14.01,2013-06-01 06:54:00,
2013-06-01 02:55:00,73.3,66.8,29.96,SE,139,3.0,4.5,80,0.00,,,0.00,VWS V14.01,2013-06-01 06:55:00,
2013-06-01 02:56:00,73.3,66.8,29.96,SW,223,4.5,4.5,80,0.00,,,0.00,VWS V14.01,2013-06-01 06:56:00,
2013-06-01 02:57:00,73.2,66.7,29.96,WSW,244,9.0,13.5,80,0.00,,,0.00,VWS V14.01,2013-06-01 06:57:00,
2013-06-01 02:58:00,73.2,66.7,29.96,South,184,10.5,12.0,80,0.00,,,0.00,VWS V14.01,2013-06-01 06:58:00,
2013-06-01 02:59:00,73.2,66.7,29.96,WSW,241,4.5,10.5,80,0.00,,,0.00,VWS V14.01,2013-06-01 06:59:00,
2013-06-01 03:00:00,73.2,66.7,29.96,SSW,192,6.0,6.0,80,0.00,,,0.00,VWS V14.01,2013-06-01 07:00:00,
2013-06-01 03:01:00,73.2,66.7,29.96,SW,230,3.0,6.0,80,0.00,,,0.00,VWS V14.01,2013-06-01 07:01:00,
2013-06-01 03:02:00,73.2,66.7,29.96,WSW,240,3.0,6.0,80,0.00,,,0.00,VWS V14.01,2013-06-01 07:02:00,
2013-06-01 03:03:00,73.1,66.6,29.96,SW,224,3.0,4.5,80,0.00,,,0.00,VWS V14.01,2013-06-01 07:03:00,
2013-06-01 03:04:00,73.1,66.9,29.96,SW,223,9.0,9.0,81,0.00,,,0.00,VWS V14.01,2013-06-01 07:04:00,
2013-06-01 03:05:00,73.1,66.9,29.96,SW,220,9.0,9.0,81,0.00,,,0.00,VWS V14.01,2013-06-01 07:05:00,
2013-06-01 03:06:00,73.1,66.9,29.96,South,186,6.0,9.0,81,0.00,,,0.00,VWS V14.01,2013-06-01 07:06:00,
2013-06-01 03:07:00,73.1,66.9,29.96,SSW,196,7.5,7.5,81,0.00,,,0.00,VWS V14.01,2013-06-01 07:07:00,
2013-06-01 03:08:00,73.1,66.9,29.96,South,174,9.0,10.5,81,0.00,,,0.00,VWS V14.01,2013-06-01 07:08:00,
2013-06-01 03:09:00,73.1,66.9,29.96,SSW,203,3.0,9.0,81,0.00,,,0.00,VWS V14.01,2013-06-01 07:09:00,
2013-06-01 03:10:00,73.0,66.8,29.96,South,184,7.5,10.5,81,0.00,,,0.00,VWS V14.01,2013-06-01 07:10:00,
2013-06-01 03:11:00,73.0,66.8,29.96,WSW,240,4.5,10.5,81,0.00,,,0.00,VWS V14.01,2013-06-01 07:11:00,
2013-06-01 03:12:00,73.0,66.8,29.96,SSW,209,4.5,6.0,81,0.00,,,0.00,VWS V14.01,2013-06-01 07:12:00,
2013-06-01 03:13:00,73.0,66.8,29.96,WSW,248,4.5,9.0,81,0.00,,,0.00,VWS V14.01,2013-06-01 07:13:00,
2013-06-01 03:14:00,72.9,66.7,29.96,WSW,253,4.5,4.5,81,0.00,,,0.00,VWS V14.01,2013-06-01 07:14:00,
2013-06-01 03:15:00,72.9,66.7,29.96,SSW,202,3.0,7.5,81,0.00,,,0.00,VWS V14.01,2013-06-01 07:15:00,
2013-06-01 03:16:00,72.9,66.7,29.96,WSW,241,4.5,7.5,81,0.00,,,0.00,VWS V14.01,2013-06-01 07:16:00,
2013-06-01 03:17:00,72.9,66.7,29.96,SSW,197,3.0,4.5,81,0.00,,,0.00,VWS V14.01,2013-06-01 07:17:00,
2013-06-01 03:18:00,72.9,66.7,29.96,SSE,167,4.5,7.5,81,0.00,,,0.00,VWS V14.01,2013-06-01 07:18:00,
2013-06-01 03:19:00,72.9,66.7,29.96,SSW,212,13.5,13.5,81,0.00,,,0.00,VWS V14.01,2013-06-01 07:19:00,
2013-06-01 03:20:00,72.9,66.7,29.96,WSW,252,4.5,4.5,81,0.00,,,0.00,VWS V14.01,2013-06-01 07:20:00,
2013-06-01 03:21:00,72.9,66.7,29.96,SW,216,7.5,7.5,81,0.00,,,0.00,VWS V14.01,2013-06-01 07:21:00,
2013-06-01 03:22:00,72.9,66.7,29.96,SSW,194,3.0,7.5,81,0.00,,,0.00,VWS V14.01,2013-06-01 07:22:00,
2013-06-01 03:23:00,72.9,66.7,29.96,SSW,199,4.5,9.0,81,0.00,,,0.00,VWS V14.01,2013-06-01 07:23:00,
2013-06-01 03:24:00,72.8,66.6,29.96,SSE,147,3.0,6.0,81,0.00,,,0.00,VWS V14.01,2013-06-01 07:24:00,
2013-06-01 03:25:00,72.8,66.6,29.96,South,191,4.5,6.0,81,0.00,,,0.00,VWS V14.01,2013-06-01 07:25:00,
2013-06-01 03:26:00,72.8,66.6,29.96,SE,131,3.0,6.0,81,0.00,,,0.00,VWS V14.01,2013-06-01 07:26:00,
2013-06-01 03:27:00,72.8,66.6,29.95,West,274,1.5,4.5,81,0.00,,,0.00,VWS V14.01,2013-06-01 07:27:00,
2013-06-01 03:28:00,72.8,66.6,29.95,SSE,160,6.0,6.0,81,0.00,,,0.00,VWS V14.01,2013-06-01 07:28:00,
2013-06-01 03:29:00,72.8,66.6,29.95,SSE,151,4.5,6.0,81,0.00,,,0.00,VWS V14.01,2013-06-01 07:29:00,
2013-06-01 03:30:00,72.8,66.6,29.95,WSW,253,1.5,1.5,81,0.00,,,0.00,VWS V14.01,2013-06-01 07:30:00,
2013-06-01 03:31:00,72.8,66.6,29.95,SW,216,3.0,3.0,81,0.00,,,0.00,VWS V14.01,2013-06-01 07:31:00,
2013-06-01 03:32:00,72.8,66.6,29.95,East,99,1.5,3.0,81,0.00,,,0.00,VWS V14.01,2013-06-01 07:32:00,
2013-06-01 03:33:00,72.8,66.6,29.95,SSW,199,7.5,7.5,81,0.00,,,0.00,VWS V14.01,2013-06-01 07:33:00,
2013-06-01 03:34:00,72.7,66.5,29.95,SW,220,3.0,9.0,81,0.00,,,0.00,VWS V14.01,2013-06-01 07:34:00,
2013-06-01 03:35:00,72.7,66.5,29.95,SSW,206,1.5,1.5,81,0.00,,,0.00,VWS V14.01,2013-06-01 07:35:00,
2013-06-01 03:36:00,72.7,66.5,29.95,SW,236,3.0,3.0,81,0.00,,,0.00,VWS V14.01,2013-06-01 07:36:00,
2013-06-01 03:37:00,72.6,66.4,29.95,SW,236,1.5,3.0,81,0.00,,,0.00,VWS V14.01,2013-06-01 07:37:00,
2013-06-01 03:38:00,72.6,66.4,29.95,ESE,116,1.5,4.5,81,0.00,,,0.00,VWS V14.01,2013-06-01 07:38:00,
2013-06-01 03:39:00,72.6,66.4,29.95,SSW,203,6.0,9.0,81,0.00,,,0.00,VWS V14.01,2013-06-01 07:39:00,
2013-06-01 03:40:00,72.6,66.4,29.95,SW,234,1.5,1.5,81,0.00,,,0.00,VWS V14.01,2013-06-01 07:40:00,
2013-06-01 03:41:00,72.6,66.4,29.95,SW,234,1.5,1.5,81,0.00,,,0.00,VWS V14.01,2013-06-01 07:41:00,
2013-06-01 03:42:00,72.5,66.3,29.95,SSW,209,1.5,1.5,81,0.00,,,0.00,VWS V14.01,2013-06-01 07:42:00,
2013-06-01 03:43:00,72.5,66.3,29.95,WSW,251,1.5,3.0,81,0.00,,,0.00,VWS V14.01,2013-06-01 07:43:00,
2013-06-01 03:44:00,72.5,66.7,29.95,SSW,192,4.5,4.5,82,0.00,,,0.00,VWS V14.01,2013-06-01 07:44:00,
2013-06-01 03:45:00,72.5,66.7,29.95,SSW,203,10.5,10.5,82,0.00,,,0.00,VWS V14.01,2013-06-01 07:45:00,
2013-06-01 03:46:00,72.4,66.6,29.95,WSW,240,4.5,10.5,82,0.00,,,0.00,VWS V14.01,2013-06-01 07:46:00,
2013-06-01 03:47:00,72.4,66.6,29.95,WSW,247,1.5,4.5,82,0.00,,,0.00,VWS V14.01,2013-06-01 07:47:00,
2013-06-01 03:48:00,72.4,66.6,29.95,SW,220,4.5,4.5,82,0.00,,,0.00,VWS V14.01,2013-06-01 07:48:00,
2013-06-01 03:49:00,72.4,66.6,29.95,SSE,167,3.0,7.5,82,0.00,,,0.00,VWS V14.01,2013-06-01 07:49:00,
2013-06-01 03:50:00,72.3,66.5,29.95,SE,146,1.5,1.5,82,0.00,,,0.00,VWS V14.01,2013-06-01 07:50:00,
2013-06-01 03:51:00,72.3,66.5,29.95,SE,146,1.5,1.5,82,0.00,,,0.00,VWS V14.01,2013-06-01 07:51:00,
2013-06-01 03:52:00,72.3,66.5,29.95,SE,133,3.0,6.0,82,0.00,,,0.00,VWS V14.01,2013-06-01 07:52:00,
2013-06-01 03:53:00,72.3,66.5,29.95,SE,136,1.5,4.5,82,0.00,,,0.00,VWS V14.01,2013-06-01 07:53:00,
2013-06-01 03:54:00,72.3,66.5,29.95,SW,229,1.5,1.5,82,0.00,,,0.00,VWS V14.01,2013-06-01 07:54:00,
2013-06-01 03:55:00,72.2,66.4,29.95,SW,222,4.5,4.5,82,0.00,,,0.00,VWS V14.01,2013-06-01 07:55:00,
2013-06-01 03:56:00,72.2,66.4,29.95,ESE,114,4.5,4.5,82,0.00,,,0.00,VWS V14.01,2013-06-01 07:56:00,
2013-06-01 03:57:00,72.1,66.3,29.95,ESE,116,3.0,4.5,82,0.00,,,0.00,VWS V14.01,2013-06-01 07:57:00,
2013-06-01 03:58:00,72.1,66.3,29.95,East,101,4.5,6.0,82,0.00,,,0.00,VWS V14.01,2013-06-01 07:58:00,
2013-06-01 03:59:00,72.1,66.3,29.95,SSE,167,7.5,9.0,82,0.00,,,0.00,VWS V14.01,2013-06-01 07:59:00,
2013-06-01 04:00:00,72.1,66.3,29.95,SSW,203,3.0,4.5,82,0.00,,,0.00,VWS V14.01,2013-06-01 08:00:00,
2013-06-01 04:01:00,72.1,66.3,29.95,West,264,1.5,4.5,82,0.00,,,0.00,VWS V14.01,2013-06-01 08:01:00,
2013-06-01 04:02:00,72.0,66.2,29.95,WSW,244,3.0,3.0,82,0.00,,,0.00,VWS V14.01,2013-06-01 08:02:00,
2013-06-01 04:03:00,72.0,66.2,29.95,East,88,3.0,3.0,82,0.00,,,0.00,VWS V14.01,2013-06-01 08:03:00,
2013-06-01 04:04:00,72.0,66.2,29.95,SE,129,1.5,6.0,82,0.00,,,0.00,VWS V14.01,2013-06-01 08:04:00,
2013-06-01 04:05:00,72.0,66.6,29.95,SW,216,3.0,6.0,83,0.00,,,0.00,VWS V14.01,2013-06-01 08:05:00,
2013-06-01 04:06:00,71.9,66.5,29.95,WSW,246,1.5,6.0,83,0.00,,,0.00,VWS V14.01,2013-06-01 08:06:00,
2013-06-01 04:07:00,71.9,66.5,29.95,SW,220,4.5,4.5,83,0.00,,,0.00,VWS V14.01,2013-06-01 08:07:00,
2013-06-01 04:08:00,71.9,66.1,29.95,SSW,203,3.0,6.0,82,0.00,,,0.00,VWS V14.01,2013-06-01 08:08:00,
2013-06-01 04:09:00,71.9,66.5,29.95,SSW,203,1.5,3.0,83,0.00,,,0.00,VWS V14.01,2013-06-01 08:09:00,
2013-06-01 04:10:00,71.9,66.5,29.94,NW,321,1.5,1.5,83,0.00,,,0.00,VWS V14.01,2013-06-01 08:10:00,
2013-06-01 04:11:00,71.9,66.5,29.94,South,175,1.5,3.0,83,0.00,,,0.00,VWS V14.01,2013-06-01 08:11:00,
2013-06-01 04:12:00,71.9,66.1,29.94,SW,215,3.0,6.0,82,0.00,,,0.00,VWS V14.01,2013-06-01 08:12:00,
2013-06-01 04:13:00,71.9,66.1,29.94,SSW,212,1.5,4.5,82,0.00,,,0.00,VWS V14.01,2013-06-01 08:13:00,
2013-06-01 04:14:00,71.9,66.5,29.94,SSW,213,1.5,3.0,83,0.00,,,0.00,VWS V14.01,2013-06-01 08:14:00,
2013-06-01 04:15:00,71.8,66.4,29.94,SW,229,6.0,9.0,83,0.00,,,0.00,VWS V14.01,2013-06-01 08:15:00,
2013-06-01 04:16:00,71.8,66.4,29.94,SSW,205,1.5,9.0,83,0.00,,,0.00,VWS V14.01,2013-06-01 08:16:00,
2013-06-01 04:17:00,71.8,66.4,29.94,SSW,210,3.0,3.0,83,0.00,,,0.00,VWS V14.01,2013-06-01 08:17:00,
2013-06-01 04:18:00,71.7,66.3,29.94,SSW,204,9.0,9.0,83,0.00,,,0.00,VWS V14.01,2013-06-01 08:18:00,
2013-06-01 04:19:00,71.7,66.3,29.94,SW,215,6.0,9.0,83,0.00,,,0.00,VWS V14.01,2013-06-01 08:19:00,
2013-06-01 04:20:00,71.7,66.3,29.94,South,175,3.0,3.0,83,0.00,,,0.00,VWS V14.01,2013-06-01 08:20:00,
2013-06-01 04:21:00,71.7,66.3,29.94,SSE,167,4.5,7.5,83,0.00,,,0.00,VWS V14.01,2013-06-01 08:21:00,
2013-06-01 04:22:00,71.7,66.3,29.94,South,186,4.5,7.5,83,0.00,,,0.00,VWS V14.01,2013-06-01 08:22:00,
2013-06-01 04:23:00,71.6,66.2,29.94,SSW,196,7.5,7.5,83,0.00,,,0.00,VWS V14.01,2013-06-01 08:23:00,
2013-06-01 04:24:00,71.7,66.3,29.94,SW,219,1.5,7.5,83,0.00,,,0.00,VWS V14.01,2013-06-01 08:24:00,
2013-06-01 04:25:00,71.6,66.2,29.94,SSE,156,1.5,3.0,83,0.00,,,0.00,VWS V14.01,2013-06-01 08:25:00,
2013-06-01 04:26:00,71.6,66.2,29.94,South,174,3.0,4.5,83,0.00,,,0.00,VWS V14.01,2013-06-01 08:26:00,
2013-06-01 04:27:00,71.6,66.2,29.94,SSW,203,4.5,4.5,83,0.00,,,0.00,VWS V14.01,2013-06-01 08:27:00,
2013-06-01 04:28:00,71.6,66.2,29.94,SSE,150,6.0,6.0,83,0.00,,,0.00,VWS V14.01,2013-06-01 08:28:00,
2013-06-01 04:29:00,71.5,66.1,29.94,South,171,4.5,9.0,83,0.00,,,0.00,VWS V14.01,2013-06-01 08:29:00,
2013-06-01 04:30:00,71.5,66.1,29.94,South,188,3.0,3.0,83,0.00,,,0.00,VWS V14.01,2013-06-01 08:30:00,
2013-06-01 04:31:00,71.5,66.1,29.94,ESE,116,1.5,4.5,83,0.00,,,0.00,VWS V14.01,2013-06-01 08:31:00,
2013-06-01 04:32:00,71.5,66.1,29.94,SE,139,3.0,6.0,83,0.00,,,0.00,VWS V14.01,2013-06-01 08:32:00,
2013-06-01 04:33:00,71.4,66.0,29.94,ESE,116,6.0,6.0,83,0.00,,,0.00,VWS V14.01,2013-06-01 08:33:00,
2013-06-01 04:34:00,71.4,66.0,29.94,South,181,6.0,6.0,83,0.00,,,0.00,VWS V14.01,2013-06-01 08:34:00,
2013-06-01 04:35:00,71.4,66.0,29.94,SW,224,1.5,3.0,83,0.00,,,0.00,VWS V14.01,2013-06-01 08:35:00,
2013-06-01 04:36:00,71.4,66.0,29.94,SW,223,1.5,3.0,83,0.00,,,0.00,VWS V14.01,2013-06-01 08:36:00,
2013-06-01 04:37:00,71.4,66.0,29.94,SW,224,1.5,1.5,83,0.00,,,0.00,VWS V14.01,2013-06-01 08:37:00,
2013-06-01 04:38:00,71.4,66.0,29.94,ESE,116,4.5,7.5,83,0.00,,,0.00,VWS V14.01,2013-06-01 08:38:00,
2013-06-01 04:39:00,71.3,65.9,29.94,South,188,3.0,4.5,83,0.00,,,0.00,VWS V14.01,2013-06-01 08:39:00,
2013-06-01 04:40:00,71.3,65.9,29.94,SSW,202,1.5,3.0,83,0.00,,,0.00,VWS V14.01,2013-06-01 08:40:00,
2013-06-01 04:41:00,71.3,65.9,29.94,SE,142,1.5,3.0,83,0.00,,,0.00,VWS V14.01,2013-06-01 08:41:00,
2013-06-01 04:42:00,71.2,65.8,29.94,SE,144,4.5,4.5,83,0.00,,,0.00,VWS V14.01,2013-06-01 08:42:00,
2013-06-01 04:43:00,71.2,65.8,29.94,SE,146,4.5,6.0,83,0.00,,,0.00,VWS V14.01,2013-06-01 08:43:00,
2013-06-01 04:44:00,71.2,65.8,29.94,South,181,4.5,4.5,83,0.00,,,0.00,VWS V14.01,2013-06-01 08:44:00,
2013-06-01 04:45:00,71.2,65.8,29.94,SW,234,3.0,3.0,83,0.00,,,0.00,VWS V14.01,2013-06-01 08:45:00,
2013-06-01 04:46:00,71.1,65.7,29.94,SW,234,1.5,3.0,83,0.00,,,0.00,VWS V14.01,2013-06-01 08:46:00,
2013-06-01 04:47:00,71.1,65.7,29.94,SE,140,1.5,3.0,83,0.00,,,0.00,VWS V14.01,2013-06-01 08:47:00,
2013-06-01 04:48:00,71.1,65.7,29.94,SSE,164,3.0,4.5,83,0.00,,,0.00,VWS V14.01,2013-06-01 08:48:00,
2013-06-01 04:49:00,71.1,65.7,29.94,SW,226,1.5,6.0,83,0.00,,,0.00,VWS V14.01,2013-06-01 08:49:00,
2013-06-01 04:50:00,71.1,65.7,29.93,SW,224,3.0,3.0,83,0.00,,,0.00,VWS V14.01,2013-06-01 08:50:00,
2013-06-01 04:51:00,71.1,65.7,29.93,SSW,206,1.5,3.0,83,0.00,,,0.00,VWS V14.01,2013-06-01 08:51:00,
2013-06-01 04:52:00,71.1,65.7,29.94,SSE,156,6.0,6.0,83,0.00,,,0.00,VWS V14.01,2013-06-01 08:52:00,
2013-06-01 04:53:00,71.0,65.6,29.94,SE,146,1.5,7.5,83,0.00,,,0.00,VWS V14.01,2013-06-01 08:53:00,
2013-06-01 04:54:00,71.0,65.9,29.93,SE,142,3.0,3.0,84,0.00,,,0.00,VWS V14.01,2013-06-01 08:54:00,
2013-06-01 04:55:00,71.0,65.9,29.93,SSW,195,1.5,1.5,84,0.00,,,0.00,VWS V14.01,2013-06-01 08:55:00,
2013-06-01 04:56:00,71.0,65.9,29.93,SE,133,3.0,3.0,84,0.00,,,0.00,VWS V14.01,2013-06-01 08:56:00,
2013-06-01 04:57:00,70.9,65.8,29.93,SSE,153,1.5,4.5,84,0.00,,,0.00,VWS V14.01,2013-06-01 08:57:00,
2013-06-01 04:58:00,70.9,65.8,29.93,SSE,153,1.5,1.5,84,0.00,,,0.00,VWS V14.01,2013-06-01 08:58:00,
2013-06-01 04:59:00,70.9,65.8,29.93,ESE,117,4.5,6.0,84,0.00,,,0.00,VWS V14.01,2013-06-01 08:59:00,
2013-06-01 05:00:00,70.9,65.8,29.93,South,191,4.5,6.0,84,0.00,,,0.00,VWS V14.01,2013-06-01 09:00:00,
2013-06-01 05:01:00,70.8,65.7,29.93,WSW,237,6.0,7.5,84,0.00,,,0.00,VWS V14.01,2013-06-01 09:01:00,
2013-06-01 05:02:00,70.9,65.8,29.93,South,181,4.5,6.0,84,0.00,,,0.00,VWS V14.01,2013-06-01 09:02:00,
2013-06-01 05:03:00,70.8,65.7,29.93,SSW,203,7.5,7.5,84,0.00,,,0.00,VWS V14.01,2013-06-01 09:03:00,
2013-06-01 05:04:00,70.8,65.7,29.93,SSE,150,4.5,7.5,84,0.00,,,0.00,VWS V14.01,2013-06-01 09:04:00,
2013-06-01 05:05:00,70.8,65.7,29.93,SSW,209,4.5,7.5,84,0.00,,,0.00,VWS V14.01,2013-06-01 09:05:00,
2013-06-01 05:06:00,70.9,65.8,29.93,SSW,203,4.5,7.5,84,0.00,,,0.00,VWS V14.01,2013-06-01 09:06:00,
2013-06-01 05:07:00,70.9,65.8,29.93,South,185,4.5,6.0,84,0.00,,,0.00,VWS V14.01,2013-06-01 09:07:00,
2013-06-01 05:08:00,70.8,65.7,29.93,South,181,4.5,4.5,84,0.00,,,0.00,VWS V14.01,2013-06-01 09:08:00,
2013-06-01 05:09:00,70.8,65.7,29.92,SSW,199,1.5,4.5,84,0.00,,,0.00,VWS V14.01,2013-06-01 09:09:00,
2013-06-01 05:10:00,70.8,65.7,29.92,SSE,159,9.0,9.0,84,0.00,,,0.00,VWS V14.01,2013-06-01 09:10:00,
2013-06-01 05:11:00,70.8,65.7,29.92,SW,226,3.0,12.0,84,0.00,,,0.00,VWS V14.01,2013-06-01 09:11:00,
2013-06-01 05:12:00,70.8,65.7,29.92,SSW,194,6.0,7.5,84,0.00,,,0.00,VWS V14.01,2013-06-01 09:12:00,
2013-06-01 05:13:00,70.8,65.7,29.92,SSW,199,6.0,6.0,84,0.00,,,0.00,VWS V14.01,2013-06-01 09:13:00,
2013-06-01 05:14:00,70.8,65.7,29.92,South,188,4.5,7.5,84,0.00,,,0.00,VWS V14.01,2013-06-01 09:14:00,
2013-06-01 05:15:00,70.8,65.7,29.92,WNW,293,4.5,6.0,84,0.00,,,0.00,VWS V14.01,2013-06-01 09:15:00,
2013-06-01 05:16:00,70.8,65.7,29.92,SW,217,4.5,7.5,84,0.00,,,0.00,VWS V14.01,2013-06-01 09:16:00,
2013-06-01 05:17:00,70.8,65.7,29.92,South,173,4.5,4.5,84,0.00,,,0.00,VWS V14.01,2013-06-01 09:17:00,
2013-06-01 05:18:00,70.8,65.7,29.92,SSE,164,4.5,6.0,84,0.00,,,0.00,VWS V14.01,2013-06-01 09:18:00,
2013-06-01 05:19:00,70.8,65.7,29.92,SE,141,6.0,12.0,84,0.00,,,0.00,VWS V14.01,2013-06-01 09:19:00,
2013-06-01 05:20:00,70.9,65.8,29.92,SE,139,4.5,4.5,84,0.00,,,0.00,VWS V14.01,2013-06-01 09:20:00,
2013-06-01 05:21:00,70.9,65.8,29.92,WSW,243,3.0,4.5,84,0.00,,,0.00,VWS V14.01,2013-06-01 09:21:00,
2013-06-01 05:22:00,70.9,65.5,29.92,SSW,203,4.5,6.0,83,0.00,,,0.00,VWS V14.01,2013-06-01 09:22:00,
2013-06-01 05:23:00,70.9,65.5,29.92,SSE,160,7.5,9.0,83,0.00,,,0.00,VWS V14.01,2013-06-01 09:23:00,
2013-06-01 05:24:00,70.9,65.5,29.92,SW,221,3.0,7.5,83,0.00,,,0.00,VWS V14.01,2013-06-01 09:24:00,
2013-06-01 05:25:00,70.8,65.4,29.92,SW,228,3.0,3.0,83,0.00,,,0.00,VWS V14.01,2013-06-01 09:25:00,
2013-06-01 05:26:00,70.8,65.4,29.92,WSW,237,1.5,3.0,83,0.00,,,0.00,VWS V14.01,2013-06-01 09:26:00,
2013-06-01 05:27:00,70.8,65.4,29.92,SSW,206,1.5,4.5,83,0.00,,,0.00,VWS V14.01,2013-06-01 09:27:00,
2013-06-01 05:28:00,70.8,65.4,29.92,SSE,147,3.0,4.5,83,0.00,,,0.00,VWS V14.01,2013-06-01 09:28:00,
2013-06-01 05:29:00,70.8,65.7,29.91,SSW,210,1.5,4.5,84,0.00,,,0.00,VWS V14.01,2013-06-01 09:29:00,
2013-06-01 05:30:00,70.7,65.6,29.91,West,264,4.5,4.5,84,0.00,,,0.00,VWS V14.01,2013-06-01 09:30:00,
2013-06-01 05:31:00,70.7,65.6,29.91,SSW,210,7.5,9.0,84,0.00,,,0.00,VWS V14.01,2013-06-01 09:31:00,
2013-06-01 05:32:00,70.7,65.6,29.91,SSW,206,6.0,7.5,84,0.00,,,0.00,VWS V14.01,2013-06-01 09:32:00,
2013-06-01 05:33:00,70.7,65.6,29.91,SSE,147,1.5,6.0,84,0.00,,,0.00,VWS V14.01,2013-06-01 09:33:00,
2013-06-01 05:34:00,70.7,65.6,29.91,SW,229,6.0,9.0,84,0.00,,,0.00,VWS V14.01,2013-06-01 09:34:00,
2013-06-01 05:35:00,70.7,65.6,29.92,West,273,3.0,4.5,84,0.00,,,0.00,VWS V14.01,2013-06-01 09:35:00,
2013-06-01 05:36:00,70.7,65.6,29.92,WSW,246,4.5,6.0,84,0.00,,,0.00,VWS V14.01,2013-06-01 09:36:00,
2013-06-01 05:37:00,70.7,65.6,29.92,South,179,7.5,9.0,84,0.00,,,0.00,VWS V14.01,2013-06-01 09:37:00,
2013-06-01 05:38:00,70.7,65.6,29.92,South,189,4.5,7.5,84,0.00,,,0.00,VWS V14.01,2013-06-01 09:38:00,
2013-06-01 05:39:00,70.7,65.6,29.92,South,179,4.5,6.0,84,0.00,,,0.00,VWS V14.01,2013-06-01 09:39:00,
2013-06-01 05:40:00,70.7,65.3,29.92,South,189,1.5,1.5,83,0.00,,,0.00,VWS V14.01,2013-06-01 09:40:00,
2013-06-01 05:41:00,70.7,65.3,29.92,WSW,243,4.5,7.5,83,0.00,,,0.00,VWS V14.01,2013-06-01 09:41:00,
2013-06-01 05:42:00,70.7,65.6,29.92,SSW,205,3.0,4.5,84,0.00,,,0.00,VWS V14.01,2013-06-01 09:42:00,
2013-06-01 05:43:00,70.7,65.3,29.92,SW,222,4.5,7.5,83,0.00,,,0.00,VWS V14.01,2013-06-01 09:43:00,
2013-06-01 05:44:00,70.7,65.3,29.92,SSE,167,7.5,9.0,83,0.00,,,0.00,VWS V14.01,2013-06-01 09:44:00,
2013-06-01 05:45:00,70.7,65.3,29.92,SW,225,4.5,6.0,83,0.00,,,0.00,VWS V14.01,2013-06-01 09:45:00,
2013-06-01 05:46:00,70.7,65.6,29.92,SSW,199,4.5,7.5,84,0.00,,,0.00,VWS V14.01,2013-06-01 09:46:00,
2013-06-01 05:47:00,70.7,65.3,29.92,SW,224,3.0,6.0,83,0.00,,,0.00,VWS V14.01,2013-06-01 09:47:00,
2013-06-01 05:48:00,70.7,65.3,29.91,WSW,258,1.5,3.0,83,0.00,,,0.00,VWS V14.01,2013-06-01 09:48:00,
2013-06-01 05:49:00,70.7,65.3,29.91,ESE,120,1.5,6.0,83,0.00,,,0.00,VWS V14.01,2013-06-01 09:49:00,
2013-06-01 05:50:00,70.7,65.3,29.91,SSE,158,9.0,9.0,83,0.00,,,0.00,VWS V14.01,2013-06-01 09:50:00,
2013-06-01 05:51:00,70.7,65.3,29.91,ENE,69,1.5,9.0,83,0.00,,,0.00,VWS V14.01,2013-06-01 09:51:00,
2013-06-01 05:52:00,70.7,65.6,29.91,East,90,1.5,3.0,84,0.00,,,0.00,VWS V14.01,2013-06-01 09:52:00,
2013-06-01 05:53:00,70.7,65.6,29.91,WSW,244,3.0,3.0,84,0.00,,,0.00,VWS V14.01,2013-06-01 09:53:00,
2013-06-01 05:54:00,70.6,65.5,29.91,SSW,212,7.5,9.0,84,0.00,,,0.00,VWS V14.01,2013-06-01 09:54:00,
2013-06-01 05:55:00,70.6,65.5,29.91,WSW,241,4.5,4.5,84,0.00,,,0.00,VWS V14.01,2013-06-01 09:55:00,
2013-06-01 05:56:00,70.6,65.5,29.91,SSE,167,6.0,7.5,84,0.00,,,0.00,VWS V14.01,2013-06-01 09:56:00,
2013-06-01 05:57:00,70.6,65.5,29.91,SW,217,9.0,9.0,84,0.00,,,0.00,VWS V14.01,2013-06-01 09:57:00,
2013-06-01 05:58:00,70.6,65.5,29.91,SW,236,1.5,9.0,84,0.00,,,0.00,VWS V14.01,2013-06-01 09:58:00,
2013-06-01 05:59:00,70.5,65.4,29.91,South,191,4.5,4.5,84,0.00,,,0.00,VWS V14.01,2013-06-01 09:59:00,
2013-06-01 06:00:00,70.5,65.4,29.91,SW,229,3.0,4.5,84,0.00,,,0.00,VWS V14.01,2013-06-01 10:00:00,
2013-06-01 06:01:00,70.5,65.4,29.91,SW,226,4.5,7.5,84,0.00,,,0.00,VWS V14.01,2013-06-01 10:01:00,
2013-06-01 06:02:00,70.5,65.4,29.91,SSW,196,3.0,7.5,84,0.00,,,0.00,VWS V14.01,2013-06-01 10:02:00,
2013-06-01 06:03:00,70.5,65.4,29.91,SSW,213,4.5,4.5,84,0.00,,,0.00,VWS V14.01,2013-06-01 10:03:00,
2013-06-01 06:04:00,70.5,65.4,29.91,South,175,7.5,9.0,84,0.00,,,0.00,VWS V14.01,2013-06-01 10:04:00,
2013-06-01 06:05:00,70.4,65.3,29.91,SW,223,6.0,6.0,84,0.00,,,0.00,VWS V14.01,2013-06-01 10:05:00,
2013-06-01 06:06:00,70.5,65.4,29.91,SW,223,4.5,10.5,84,0.00,,,0.00,VWS V14.01,2013-06-01 10:06:00,
2013-06-01 06:07:00,70.5,65.4,29.91,SSE,167,9.0,9.0,84,0.00,,,0.00,VWS V14.01,2013-06-01 10:07:00,
2013-06-01 06:08:00,70.5,65.4,29.91,SSE,154,4.5,10.5,84,0.00,,,0.00,VWS V14.01,2013-06-01 10:08:00,
2013-06-01 06:09:00,70.5,65.4,29.91,SE,130,4.5,6.0,84,0.00,,,0.00,VWS V14.01,2013-06-01 10:09:00,
2013-06-01 06:10:00,70.5,65.4,29.91,SSW,213,4.5,6.0,84,0.00,,,0.00,VWS V14.01,2013-06-01 10:10:00,
2013-06-01 06:11:00,70.5,65.4,29.91,SW,235,4.5,9.0,84,0.00,,,0.00,VWS V14.01,2013-06-01 10:11:00,
2013-06-01 06:12:00,70.4,65.3,29.91,SW,234,4.5,6.0,84,0.00,,,0.00,VWS V14.01,2013-06-01 10:12:00,
2013-06-01 06:13:00,70.4,65.3,29.91,SSW,201,3.0,4.5,84,0.00,,,0.00,VWS V14.01,2013-06-01 10:13:00,
2013-06-01 06:14:00,70.4,65.3,29.91,South,186,4.5,9.0,84,0.00,,,0.00,VWS V14.01,2013-06-01 10:14:00,
2013-06-01 06:15:00,70.4,65.3,29.91,SSE,150,3.0,7.5,84,0.00,,,0.00,VWS V14.01,2013-06-01 10:15:00,
2013-06-01 06:16:00,70.4,65.3,29.91,NNE,32,1.5,3.0,84,0.00,,,0.00,VWS V14.01,2013-06-01 10:16:00,
2013-06-01 06:17:00,70.4,65.3,29.91,WSW,239,3.0,4.5,84,0.00,,,0.00,VWS V14.01,2013-06-01 10:17:00,
2013-06-01 06:18:00,70.4,65.3,29.91,WSW,239,3.0,4.5,84,0.00,,,0.00,VWS V14.01,2013-06-01 10:18:00,
2013-06-01 06:19:00,70.4,65.3,29.91,SW,220,6.0,6.0,84,0.00,,,0.00,VWS V14.01,2013-06-01 10:19:00,
2013-06-01 06:20:00,70.4,65.3,29.91,SSE,165,4.5,6.0,84,0.00,,,0.00,VWS V14.01,2013-06-01 10:20:00,
2013-06-01 06:21:00,70.4,65.3,29.91,SW,229,1.5,4.5,84,0.00,,,0.00,VWS V14.01,2013-06-01 10:21:00,
2013-06-01 06:22:00,70.4,65.3,29.91,South,186,1.5,3.0,84,0.00,,,0.00,VWS V14.01,2013-06-01 10:22:00,
2013-06-01 06:23:00,70.4,65.3,29.91,SSW,194,3.0,3.0,84,0.00,,,0.00,VWS V14.01,2013-06-01 10:23:00,
2013-06-01 06:24:00,70.4,65.3,29.91,South,179,1.5,3.0,84,0.00,,,0.00,VWS V14.01,2013-06-01 10:24:00,
2013-06-01 06:25:00,70.4,65.3,29.91,SW,220,6.0,7.5,84,0.00,,,0.00,VWS V14.01,2013-06-01 10:25:00,
2013-06-01 06:26:00,70.4,65.3,29.91,SW,220,3.0,6.0,84,0.00,,,0.00,VWS V14.01,2013-06-01 10:26:00,
2013-06-01 06:27:00,70.5,65.4,29.91,South,180,4.5,12.0,84,0.00,,,0.00,VWS V14.01,2013-06-01 10:27:00,
2013-06-01 06:28:00,70.5,65.4,29.92,SW,217,3.0,7.5,84,0.00,,,0.00,VWS V14.01,2013-06-01 10:28:00,
2013-06-01 06:29:00,70.5,65.4,29.92,SSE,163,1.5,1.5,84,0.00,,,0.00,VWS V14.01,2013-06-01 10:29:00,
2013-06-01 06:30:00,70.5,65.4,29.92,SSE,163,1.5,1.5,84,0.00,,,0.00,VWS V14.01,2013-06-01 10:30:00,
2013-06-01 06:31:00,70.6,65.5,29.92,SW,221,1.5,3.0,84,0.00,,,0.00,VWS V14.01,2013-06-01 10:31:00,
2013-06-01 06:32:00,70.6,65.2,29.92,SE,139,4.5,7.5,83,0.00,,,0.00,VWS V14.01,2013-06-01 10:32:00,
2013-06-01 06:33:00,70.6,65.2,29.92,SE,133,3.0,4.5,83,0.00,,,0.00,VWS V14.01,2013-06-01 10:33:00,
2013-06-01 06:34:00,70.6,65.2,29.92,SSW,203,3.0,4.5,83,0.00,,,0.00,VWS V14.01,2013-06-01 10:34:00,
2013-06-01 06:35:00,70.6,65.2,29.92,SSW,203,3.0,4.5,83,0.00,,,0.00,VWS V14.01,2013-06-01 10:35:00,
2013-06-01 06:36:00,70.6,65.5,29.92,SW,224,3.0,4.5,84,0.00,,,0.00,VWS V14.01,2013-06-01 10:36:00,
2013-06-01 06:37:00,70.6,65.5,29.92,SSE,161,3.0,4.5,84,0.00,,,0.00,VWS V14.01,2013-06-01 10:37:00,
2013-06-01 06:38:00,70.6,65.5,29.92,South,189,1.5,3.0,84,0.00,,,0.00,VWS V14.01,2013-06-01 10:38:00,
2013-06-01 06:39:00,70.7,65.6,29.92,SE,130,3.0,3.0,84,0.00,,,0.00,VWS V14.01,2013-06-01 10:39:00,
2013-06-01 06:40:00,70.7,65.6,29.92,SE,130,3.0,3.0,84,0.00,,,0.00,VWS V14.01,2013-06-01 10:40:00,
2013-06-01 06:41:00,70.7,65.3,29.92,South,172,1.5,3.0,83,0.00,,,0.00,VWS V14.01,2013-06-01 10:41:00,
2013-06-01 06:42:00,70.7,65.3,29.92,ESE,119,3.0,3.0,83,0.00,,,0.00,VWS V14.01,2013-06-01 10:42:00,
2013-06-01 06:43:00,70.7,65.3,29.92,SSW,195,1.5,6.0,83,0.00,,,0.00,VWS V14.01,2013-06-01 10:43:00,
2013-06-01 06:44:00,70.8,65.4,29.92,SSW,198,1.5,4.5,83,0.00,,,0.00,VWS V14.01,2013-06-01 10:44:00,
2013-06-01 06:45:00,70.8,65.4,29.92,SSW,198,1.5,4.5,83,0.00,,,0.00,VWS V14.01,2013-06-01 10:45:00,
2013-06-01 06:46:00,70.8,65.4,29.92,South,175,3.0,6.0,83,0.00,,,0.00,VWS V14.01,2013-06-01 10:46:00,
2013-06-01 06:47:00,70.8,65.4,29.92,WNW,285,1.5,3.0,83,0.00,,,0.00,VWS V14.01,2013-06-01 10:47:00,
2013-06-01 06:48:00,70.8,65.4,29.92,SSE,156,3.0,4.5,83,0.00,,,0.00,VWS V14.01,2013-06-01 10:48:00,
2013-06-01 06:49:00,70.9,65.5,29.92,WSW,248,3.0,3.0,83,0.00,,,0.00,VWS V14.01,2013-06-01 10:49:00,
2013-06-01 06:50:00,70.9,65.5,29.92,WSW,248,3.0,3.0,83,0.00,,,0.00,VWS V14.01,2013-06-01 10:50:00,
2013-06-01 06:51:00,70.9,65.5,29.92,South,185,4.5,4.5,83,0.00,,,0.00,VWS V14.01,2013-06-01 10:51:00,
2013-06-01 06:52:00,70.9,65.5,29.92,SW,225,3.0,4.5,83,0.00,,,0.00,VWS V14.01,2013-06-01 10:52:00,
2013-06-01 06:53:00,70.9,65.5,29.92,SSE,151,1.5,6.0,83,0.00,,,0.00,VWS V14.01,2013-06-01 10:53:00,
2013-06-01 06:54:00,70.9,65.5,29.92,SSW,213,3.0,6.0,83,0.00,,,0.00,VWS V14.01,2013-06-01 10:54:00,
2013-06-01 06:55:00,70.9,65.5,29.92,SSW,212,3.0,6.0,83,0.00,,,0.00,VWS V14.01,2013-06-01 10:55:00,
2013-06-01 06:56:00,71.0,65.6,29.93,West,266,4.5,4.5,83,0.00,,,0.00,VWS V14.01,2013-06-01 10:56:00,
2013-06-01 06:57:00,71.0,65.6,29.93,SSW,213,1.5,4.5,83,0.00,,,0.00,VWS V14.01,2013-06-01 10:57:00,
2013-06-01 06:58:00,71.0,65.6,29.93,WSW,243,3.0,6.0,83,0.00,,,0.00,VWS V14.01,2013-06-01 10:58:00,
2013-06-01 06:59:00,71.1,65.7,29.93,SW,216,1.5,4.5,83,0.00,,,0.00,VWS V14.01,2013-06-01 10:59:00,
2013-06-01 07:00:00,71.1,65.7,29.93,SW,216,1.5,4.5,83,0.00,,,0.00,VWS V14.01,2013-06-01 11:00:00,
2013-06-01 07:01:00,71.1,65.7,29.93,SW,217,1.5,3.0,83,0.00,,,0.00,VWS V14.01,2013-06-01 11:01:00,
2013-06-01 07:02:00,71.1,65.7,29.93,SSW,194,6.0,7.5,83,0.00,,,0.00,VWS V14.01,2013-06-01 11:02:00,
2013-06-01 07:03:00,71.1,65.7,29.93,SSW,212,6.0,6.0,83,0.00,,,0.00,VWS V14.01,2013-06-01 11:03:00,
2013-06-01 07:04:00,71.2,65.8,29.93,SW,223,1.5,3.0,83,0.00,,,0.00,VWS V14.01,2013-06-01 11:04:00,
2013-06-01 07:05:00,71.2,65.8,29.93,SW,223,1.5,3.0,83,0.00,,,0.00,VWS V14.01,2013-06-01 11:05:00,
2013-06-01 07:06:00,71.2,65.8,29.93,WSW,237,1.5,3.0,83,0.00,,,0.00,VWS V14.01,2013-06-01 11:06:00,
2013-06-01 07:07:00,71.3,65.9,29.93,South,171,3.0,4.5,83,0.00,,,0.00,VWS V14.01,2013-06-01 11:07:00,
2013-06-01 07:08:00,71.3,65.9,29.93,SE,128,1.5,4.5,83,0.00,,,0.00,VWS V14.01,2013-06-01 11:08:00,
2013-06-01 07:09:00,71.3,65.9,29.93,SW,220,3.0,3.0,83,0.00,,,0.00,VWS V14.01,2013-06-01 11:09:00,
2013-06-01 07:10:00,71.3,65.9,29.93,SW,220,3.0,3.0,83,0.00,,,0.00,VWS V14.01,2013-06-01 11:10:00,
2013-06-01 07:11:00,71.3,65.9,29.93,SE,130,4.5,4.5,83,0.00,,,0.00,VWS V14.01,2013-06-01 11:11:00,
2013-06-01 07:12:00,71.3,65.9,29.93,SW,228,4.5,6.0,83,0.00,,,0.00,VWS V14.01,2013-06-01 11:12:00,
2013-06-01 07:13:00,71.3,65.9,29.93,SW,226,1.5,4.5,83,0.00,,,0.00,VWS V14.01,2013-06-01 11:13:00,
2013-06-01 07:14:00,71.4,66.0,29.93,SW,226,1.5,1.5,83,0.00,,,0.00,VWS V14.01,2013-06-01 11:14:00,
2013-06-01 07:15:00,71.3,65.9,29.93,SW,226,1.5,1.5,83,0.00,,,0.00,VWS V14.01,2013-06-01 11:15:00,
2013-06-01 07:16:00,71.3,65.9,29.93,SSE,163,3.0,3.0,83,0.00,,,0.00,VWS V14.01,2013-06-01 11:16:00,
2013-06-01 07:17:00,71.3,65.9,29.94,SSE,150,1.5,3.0,83,0.00,,,0.00,VWS V14.01,2013-06-01 11:17:00,
2013-06-01 07:18:00,71.4,66.0,29.94,SW,226,1.5,3.0,83,0.00,,,0.00,VWS V14.01,2013-06-01 11:18:00,
2013-06-01 07:19:00,71.4,65.6,29.94,SW,236,3.0,6.0,82,0.00,,,0.00,VWS V14.01,2013-06-01 11:19:00,
2013-06-01 07:20:00,71.4,65.6,29.94,WSW,237,3.0,6.0,82,0.00,,,0.00,VWS V14.01,2013-06-01 11:20:00,
2013-06-01 07:21:00,71.4,66.0,29.94,WSW,257,3.0,6.0,83,0.00,,,0.00,VWS V14.01,2013-06-01 11:21:00,
2013-06-01 07:22:00,71.5,65.7,29.94,SW,220,4.5,6.0,82,0.00,,,0.00,VWS V14.01,2013-06-01 11:22:00,
2013-06-01 07:23:00,71.5,65.7,29.94,East,101,3.0,6.0,82,0.00,,,0.00,VWS V14.01,2013-06-01 11:23:00,
2013-06-01 07:24:00,71.5,65.7,29.94,South,182,4.5,6.0,82,0.00,,,0.00,VWS V14.01,2013-06-01 11:24:00,
2013-06-01 07:25:00,71.5,65.7,29.94,SW,215,4.5,6.0,82,0.00,,,0.00,VWS V14.01,2013-06-01 11:25:00,
2013-06-01 07:26:00,71.6,65.8,29.94,SSE,161,1.5,4.5,82,0.00,,,0.00,VWS V14.01,2013-06-01 11:26:00,
2013-06-01 07:27:00,71.6,65.8,29.94,SW,227,1.5,4.5,82,0.00,,,0.00,VWS V14.01,2013-06-01 11:27:00,
2013-06-01 07:28:00,71.6,65.8,29.94,SSW,192,3.0,6.0,82,0.00,,,0.00,VWS V14.01,2013-06-01 11:28:00,
2013-06-01 07:29:00,71.6,65.8,29.94,SSE,159,1.5,3.0,82,0.00,,,0.00,VWS V14.01,2013-06-01 11:29:00,
2013-06-01 07:30:00,71.6,65.8,29.94,SSE,158,1.5,3.0,82,0.00,,,0.00,VWS V14.01,2013-06-01 11:30:00,
2013-06-01 07:31:00,71.6,66.2,29.94,ESE,106,7.5,7.5,83,0.00,,,0.00,VWS V14.01,2013-06-01 11:31:00,
2013-06-01 07:32:00,71.6,65.8,29.94,SE,133,3.0,7.5,82,0.00,,,0.00,VWS V14.01,2013-06-01 11:32:00,
2013-06-01 07:33:00,71.6,65.8,29.94,SSE,147,4.5,4.5,82,0.00,,,0.00,VWS V14.01,2013-06-01 11:33:00,
2013-06-01 07:34:00,71.6,65.8,29.94,SW,225,1.5,7.5,82,0.00,,,0.00,VWS V14.01,2013-06-01 11:34:00,
2013-06-01 07:35:00,71.7,65.9,29.94,SW,225,1.5,7.5,82,0.00,,,0.00,VWS V14.01,2013-06-01 11:35:00,
2013-06-01 07:36:00,71.7,65.9,29.93,WSW,237,3.0,3.0,82,0.00,,,0.00,VWS V14.01,2013-06-01 11:36:00,
2013-06-01 07:37:00,71.7,65.9,29.93,SSW,208,4.5,7.5,82,0.00,,,0.00,VWS V14.01,2013-06-01 11:37:00,
2013-06-01 07:38:00,71.7,65.9,29.94,SSW,195,4.5,4.5,82,0.00,,,0.00,VWS V14.01,2013-06-01 11:38:00,
2013-06-01 07:39:00,71.8,66.0,29.94,WSW,248,6.0,10.5,82,0.00,,,0.00,VWS V14.01,2013-06-01 11:39:00,
2013-06-01 07:40:00,71.8,66.0,29.94,SSW,196,6.0,10.5,82,0.00,,,0.00,VWS V14.01,2013-06-01 11:40:00,
2013-06-01 07:41:00,71.9,66.1,29.94,SW,229,7.5,9.0,82,0.00,,,0.00,VWS V14.01,2013-06-01 11:41:00,
2013-06-01 07:42:00,71.9,66.1,29.94,SSW,201,3.0,7.5,82,0.00,,,0.00,VWS V14.01,2013-06-01 11:42:00,
2013-06-01 07:43:00,72.0,66.2,29.93,South,179,1.5,4.5,82,0.00,,,0.00,VWS V14.01,2013-06-01 11:43:00,
2013-06-01 07:44:00,72.0,66.2,29.93,SSE,165,4.5,9.0,82,0.00,,,0.00,VWS V14.01,2013-06-01 11:44:00,
2013-06-01 07:45:00,72.0,66.2,29.93,SSW,195,4.5,9.0,82,0.00,,,0.00,VWS V14.01,2013-06-01 11:45:00,
2013-06-01 07:46:00,72.0,66.2,29.93,SSE,159,7.5,7.5,82,0.00,,,0.00,VWS V14.01,2013-06-01 11:46:00,
2013-06-01 07:47:00,72.0,65.9,29.93,SW,234,4.5,12.0,81,0.00,,,0.00,VWS V14.01,2013-06-01 11:47:00,
2013-06-01 07:48:00,72.1,65.9,29.93,SW,230,6.0,10.5,81,0.00,,,0.00,VWS V14.01,2013-06-01 11:48:00,
2013-06-01 07:49:00,72.1,65.9,29.93,WSW,254,1.5,3.0,81,0.00,,,0.00,VWS V14.01,2013-06-01 11:49:00,
2013-06-01 07:50:00,72.1,65.9,29.94,West,260,3.0,3.0,81,0.00,,,0.00,VWS V14.01,2013-06-01 11:50:00,
2013-06-01 07:51:00,72.1,65.9,29.94,SW,220,3.0,7.5,81,0.00,,,0.00,VWS V14.01,2013-06-01 11:51:00,
2013-06-01 07:52:00,72.2,66.1,29.94,South,181,7.5,10.5,81,0.00,,,0.00,VWS V14.01,2013-06-01 11:52:00,
2013-06-01 07:53:00,72.2,66.1,29.94,West,262,6.0,7.5,81,0.00,,,0.00,VWS V14.01,2013-06-01 11:53:00,
2013-06-01 07:54:00,72.3,66.2,29.94,SW,234,7.5,9.0,81,0.00,,,0.00,VWS V14.01,2013-06-01 11:54:00,
2013-06-01 07:55:00,72.3,66.2,29.94,SW,233,3.0,9.0,81,0.00,,,0.00,VWS V14.01,2013-06-01 11:55:00,
2013-06-01 07:56:00,72.3,66.2,29.94,SW,228,9.0,9.0,81,0.00,,,0.00,VWS V14.01,2013-06-01 11:56:00,
2013-06-01 07:57:00,72.4,66.2,29.94,WSW,247,4.5,10.5,81,0.00,,,0.00,VWS V14.01,2013-06-01 11:57:00,
2013-06-01 07:58:00,72.4,66.2,29.94,WSW,237,7.5,7.5,81,0.00,,,0.00,VWS V14.01,2013-06-01 11:58:00,
2013-06-01 07:59:00,72.5,66.3,29.94,West,264,10.5,10.5,81,0.00,,,0.00,VWS V14.01,2013-06-01 11:59:00,
2013-06-01 08:00:00,72.5,66.3,29.95,WSW,248,4.5,10.5,81,0.00,,,0.00,VWS V14.01,2013-06-01 12:00:00,
2013-06-01 08:01:00,72.6,66.1,29.95,WSW,252,6.0,7.5,80,0.00,,,0.00,VWS V14.01,2013-06-01 12:01:00,
2013-06-01 08:02:00,72.6,66.1,29.94,WSW,247,4.5,9.0,80,0.00,,,0.00,VWS V14.01,2013-06-01 12:02:00,
2013-06-01 08:03:00,72.6,66.4,29.94,SW,231,7.5,7.5,81,0.00,,,0.00,VWS V14.01,2013-06-01 12:03:00,
2013-06-01 08:04:00,72.6,66.4,29.94,WSW,258,7.5,7.5,81,0.00,,,0.00,VWS V14.01,2013-06-01 12:04:00,
2013-06-01 08:05:00,72.6,66.4,29.94,West,275,4.5,7.5,81,0.00,,,0.00,VWS V14.01,2013-06-01 12:05:00,
2013-06-01 08:06:00,72.6,66.1,29.95,SW,226,7.5,9.0,80,0.00,,,0.00,VWS V14.01,2013-06-01 12:06:00,
2013-06-01 08:07:00,72.6,66.4,29.94,WSW,248,4.5,9.0,81,0.00,,,0.00,VWS V14.01,2013-06-01 12:07:00,
2013-06-01 08:08:00,72.6,66.4,29.94,WSW,257,3.0,4.5,81,0.00,,,0.00,VWS V14.01,2013-06-01 12:08:00,
2013-06-01 08:09:00,72.6,66.4,29.94,West,259,3.0,4.5,81,0.00,,,0.00,VWS V14.01,2013-06-01 12:09:00,
2013-06-01 08:10:00,72.6,66.4,29.94,SW,228,6.0,6.0,81,0.00,,,0.00,VWS V14.01,2013-06-01 12:10:00,
2013-06-01 08:11:00,72.6,66.4,29.94,WSW,254,4.5,6.0,81,0.00,,,0.00,VWS V14.01,2013-06-01 12:11:00,
2013-06-01 08:12:00,72.6,66.4,29.94,WSW,251,6.0,7.5,81,0.00,,,0.00,VWS V14.01,2013-06-01 12:12:00,
2013-06-01 08:13:00,72.6,66.4,29.94,WSW,250,4.5,6.0,81,0.00,,,0.00,VWS V14.01,2013-06-01 12:13:00,
2013-06-01 08:14:00,72.6,66.4,29.94,West,269,4.5,9.0,81,0.00,,,0.00,VWS V14.01,2013-06-01 12:14:00,
2013-06-01 08:15:00,72.6,66.4,29.94,SW,227,4.5,9.0,81,0.00,,,0.00,VWS V14.01,2013-06-01 12:15:00,
2013-06-01 08:16:00,72.7,66.5,29.94,WSW,239,3.0,4.5,81,0.00,,,0.00,VWS V14.01,2013-06-01 12:16:00,
2013-06-01 08:17:00,72.7,66.5,29.94,SW,224,6.0,7.5,81,0.00,,,0.00,VWS V14.01,2013-06-01 12:17:00,
2013-06-01 08:18:00,72.7,66.5,29.94,West,262,3.0,6.0,81,0.00,,,0.00,VWS V14.01,2013-06-01 12:18:00,
2013-06-01 08:19:00,72.8,66.6,29.94,SW,231,6.0,7.5,81,0.00,,,0.00,VWS V14.01,2013-06-01 12:19:00,
2013-06-01 08:20:00,72.8,66.6,29.94,WSW,244,6.0,7.5,81,0.00,,,0.00,VWS V14.01,2013-06-01 12:20:00,
2013-06-01 08:21:00,72.8,66.6,29.94,West,265,4.5,6.0,81,0.00,,,0.00,VWS V14.01,2013-06-01 12:21:00,
2013-06-01 08:22:00,72.8,66.6,29.94,WSW,246,4.5,6.0,81,0.00,,,0.00,VWS V14.01,2013-06-01 12:22:00,
2013-06-01 08:23:00,72.8,66.6,29.94,WSW,241,3.0,6.0,81,0.00,,,0.00,VWS V14.01,2013-06-01 12:23:00,
2013-06-01 08:24:00,72.8,66.6,29.95,WSW,244,4.5,6.0,81,0.00,,,0.00,VWS V14.01,2013-06-01 12:24:00,
2013-06-01 08:25:00,72.8,66.6,29.95,SW,233,3.0,6.0,81,0.00,,,0.00,VWS V14.01,2013-06-01 12:25:00,
2013-06-01 08:26:00,72.8,66.6,29.94,SW,224,6.0,7.5,81,0.00,,,0.00,VWS V14.01,2013-06-01 12:26:00,
2013-06-01 08:27:00,72.8,66.6,29.94,WSW,253,6.0,7.5,81,0.00,,,0.00,VWS V14.01,2013-06-01 12:27:00,
2013-06-01 08:28:00,72.8,66.6,29.94,WSW,247,6.0,7.5,81,0.00,,,0.00,VWS V14.01,2013-06-01 12:28:00,
2013-06-01 08:29:00,72.8,66.6,29.95,WSW,255,4.5,6.0,81,0.00,,,0.00,VWS V14.01,2013-06-01 12:29:00,
2013-06-01 08:30:00,72.8,66.6,29.95,West,267,6.0,6.0,81,0.00,,,0.00,VWS V14.01,2013-06-01 12:30:00,
2013-06-01 08:31:00,72.8,66.6,29.94,WSW,243,1.5,7.5,81,0.00,,,0.00,VWS V14.01,2013-06-01 12:31:00,
2013-06-01 08:32:00,72.9,66.7,29.94,SW,234,9.0,9.0,81,0.00,,,0.00,VWS V14.01,2013-06-01 12:32:00,
2013-06-01 08:33:00,72.8,66.6,29.94,SSW,205,4.5,9.0,81,0.00,,,0.00,VWS V14.01,2013-06-01 12:33:00,
2013-06-01 08:34:00,72.9,66.7,29.94,SSW,212,4.5,7.5,81,0.00,,,0.00,VWS V14.01,2013-06-01 12:34:00,
2013-06-01 08:35:00,72.9,66.7,29.94,South,185,3.0,7.5,81,0.00,,,0.00,VWS V14.01,2013-06-01 12:35:00,
2013-06-01 08:36:00,72.9,66.7,29.94,SW,231,3.0,4.5,81,0.00,,,0.00,VWS V14.01,2013-06-01 12:36:00,
2013-06-01 08:37:00,73.0,66.8,29.94,SW,230,1.5,3.0,81,0.00,,,0.00,VWS V14.01,2013-06-01 12:37:00,
2013-06-01 08:38:00,73.0,66.8,29.94,WSW,248,4.5,4.5,81,0.00,,,0.00,VWS V14.01,2013-06-01 12:38:00,
2013-06-01 08:39:00,73.0,66.8,29.94,SSW,195,4.5,6.0,81,0.00,,,0.00,VWS V14.01,2013-06-01 12:39:00,
2013-06-01 08:40:00,73.1,66.9,29.94,South,175,3.0,6.0,81,0.00,,,0.00,VWS V14.01,2013-06-01 12:40:00,
2013-06-01 08:41:00,73.1,66.9,29.93,SW,220,4.5,4.5,81,0.00,,,0.00,VWS V14.01,2013-06-01 12:41:00,
2013-06-01 08:42:00,73.2,67.0,29.94,SW,234,3.0,4.5,81,0.00,,,0.00,VWS V14.01,2013-06-01 12:42:00,
2013-06-01 08:43:00,73.2,67.0,29.94,WSW,250,3.0,3.0,81,0.00,,,0.00,VWS V14.01,2013-06-01 12:43:00,
2013-06-01 08:44:00,73.3,67.1,29.94,WSW,248,1.5,1.5,81,0.00,,,0.00,VWS V14.01,2013-06-01 12:44:00,
2013-06-01 08:45:00,73.3,67.1,29.94,WSW,248,1.5,1.5,81,0.00,,,0.00,VWS V14.01,2013-06-01 12:45:00,
2013-06-01 08:46:00,73.4,66.9,29.94,WSW,251,3.0,4.5,80,0.00,,,0.00,VWS V14.01,2013-06-01 12:46:00,
2013-06-01 08:47:00,73.5,67.0,29.93,West,260,1.5,3.0,80,0.00,,,0.00,VWS V14.01,2013-06-01 12:47:00,
2013-06-01 08:48:00,73.6,67.1,29.93,WNW,282,3.0,3.0,80,0.00,,,0.00,VWS V14.01,2013-06-01 12:48:00,
2013-06-01 08:49:00,73.7,67.2,29.93,SW,228,3.0,6.0,80,0.00,,,0.00,VWS V14.01,2013-06-01 12:49:00,
2013-06-01 08:50:00,73.7,67.2,29.93,SSW,213,3.0,6.0,80,0.00,,,0.00,VWS V14.01,2013-06-01 12:50:00,
2013-06-01 08:51:00,73.7,67.2,29.93,SW,226,4.5,7.5,80,0.00,,,0.00,VWS V14.01,2013-06-01 12:51:00,
2013-06-01 08:52:00,73.8,67.2,29.94,SSW,209,3.0,7.5,80,0.00,,,0.00,VWS V14.01,2013-06-01 12:52:00,
2013-06-01 08:53:00,73.8,67.2,29.94,West,259,4.5,4.5,80,0.00,,,0.00,VWS V14.01,2013-06-01 12:53:00,
2013-06-01 08:54:00,73.9,67.3,29.94,SW,229,3.0,7.5,80,0.00,,,0.00,VWS V14.01,2013-06-01 12:54:00,
2013-06-01 08:55:00,73.9,67.3,29.94,WSW,250,3.0,7.5,80,0.00,,,0.00,VWS V14.01,2013-06-01 12:55:00,
2013-06-01 08:56:00,73.9,67.3,29.94,WSW,246,4.5,6.0,80,0.00,,,0.00,VWS V14.01,2013-06-01 12:56:00,
2013-06-01 08:57:00,73.9,67.3,29.94,WSW,247,6.0,7.5,80,0.00,,,0.00,VWS V14.01,2013-06-01 12:57:00,
2013-06-01 08:58:00,74.0,67.4,29.94,SW,233,6.0,9.0,80,0.00,,,0.00,VWS V14.01,2013-06-01 12:58:00,
2013-06-01 08:59:00,74.0,67.4,29.94,WSW,251,6.0,7.5,80,0.00,,,0.00,VWS V14.01,2013-06-01 12:59:00,
2013-06-01 09:00:00,74.0,67.4,29.94,West,267,4.5,7.5,80,0.00,,,0.00,VWS V14.01,2013-06-01 13:00:00,
2013-06-01 09:01:00,74.0,67.1,29.94,WSW,244,4.5,4.5,79,0.00,,,0.00,VWS V14.01,2013-06-01 13:01:00,
2013-06-01 09:02:00,74.0,67.4,29.94,SW,225,4.5,6.0,80,0.00,,,0.00,VWS V14.01,2013-06-01 13:02:00,
2013-06-01 09:03:00,74.1,67.5,29.94,SW,226,4.5,6.0,80,0.00,,,0.00,VWS V14.01,2013-06-01 13:03:00,
2013-06-01 09:04:00,74.1,67.5,29.94,WSW,257,13.5,13.5,80,0.00,,,0.00,VWS V14.01,2013-06-01 13:04:00,
2013-06-01 09:05:00,74.1,67.2,29.94,West,260,10.5,13.5,79,0.00,,,0.00,VWS V14.01,2013-06-01 13:05:00,
2013-06-01 09:06:00,74.1,67.2,29.94,SW,231,9.0,12.0,79,0.00,,,0.00,VWS V14.01,2013-06-01 13:06:00,
2013-06-01 09:07:00,74.1,67.2,29.94,WSW,253,4.5,9.0,79,0.00,,,0.00,VWS V14.01,2013-06-01 13:07:00,
2013-06-01 09:08:00,74.1,67.2,29.94,SW,229,4.5,9.0,79,0.00,,,0.00,VWS V14.01,2013-06-01 13:08:00,
2013-06-01 09:09:00,74.1,67.5,29.94,SW,229,10.5,12.0,80,0.00,,,0.00,VWS V14.01,2013-06-01 13:09:00,
2013-06-01 09:10:00,74.1,67.2,29.94,SW,225,6.0,12.0,79,0.00,,,0.00,VWS V14.01,2013-06-01 13:10:00,
2013-06-01 09:11:00,74.1,67.5,29.94,WSW,247,7.5,7.5,80,0.00,,,0.00,VWS V14.01,2013-06-01 13:11:00,
2013-06-01 09:12:00,74.2,67.6,29.94,WSW,253,7.5,9.0,80,0.00,,,0.00,VWS V14.01,2013-06-01 13:12:00,
2013-06-01 09:13:00,74.1,67.2,29.94,WSW,244,6.0,7.5,79,0.00,,,0.00,VWS V14.01,2013-06-01 13:13:00,
2013-06-01 09:14:00,74.2,67.6,29.94,SW,228,7.5,7.5,80,0.00,,,0.00,VWS V14.01,2013-06-01 13:14:00,
2013-06-01 09:15:00,74.2,67.3,29.94,SW,219,9.0,10.5,79,0.00,,,0.00,VWS V14.01,2013-06-01 13:15:00,
2013-06-01 09:16:00,74.2,67.6,29.94,WSW,250,7.5,9.0,80,0.00,,,0.00,VWS V14.01,2013-06-01 13:16:00,
2013-06-01 09:17:00,74.3,67.7,29.94,WSW,257,7.5,7.5,80,0.00,,,0.00,VWS V14.01,2013-06-01 13:17:00,
2013-06-01 09:18:00,74.3,67.4,29.94,West,259,4.5,9.0,79,0.00,,,0.00,VWS V14.01,2013-06-01 13:18:00,
2013-06-01 09:19:00,74.3,67.7,29.94,WSW,239,13.5,13.5,80,0.00,,,0.00,VWS V14.01,2013-06-01 13:19:00,
2013-06-01 09:20:00,74.3,67.7,29.94,WSW,237,7.5,13.5,80,0.00,,,0.00,VWS V14.01,2013-06-01 13:20:00,
2013-06-01 09:21:00,74.3,67.7,29.94,WSW,239,4.5,9.0,80,0.00,,,0.00,VWS V14.01,2013-06-01 13:21:00,
2013-06-01 09:22:00,74.4,67.8,29.94,WSW,246,9.0,9.0,80,0.00,,,0.00,VWS V14.01,2013-06-01 13:22:00,
2013-06-01 09:23:00,74.4,67.8,29.94,WSW,252,7.5,10.5,80,0.00,,,0.00,VWS V14.01,2013-06-01 13:23:00,
2013-06-01 09:24:00,74.4,67.5,29.94,SW,236,3.0,6.0,79,0.00,,,0.00,VWS V14.01,2013-06-01 13:24:00,
2013-06-01 09:25:00,74.4,67.5,29.94,WSW,247,1.5,6.0,79,0.00,,,0.00,VWS V14.01,2013-06-01 13:25:00,
2013-06-01 09:26:00,74.5,67.9,29.94,SSW,213,3.0,6.0,80,0.00,,,0.00,VWS V14.01,2013-06-01 13:26:00,
2013-06-01 09:27:00,74.5,67.9,29.94,SW,216,4.5,6.0,80,0.00,,,0.00,VWS V14.01,2013-06-01 13:27:00,
2013-06-01 09:28:00,74.6,68.0,29.94,South,177,7.5,7.5,80,0.00,,,0.00,VWS V14.01,2013-06-01 13:28:00,
2013-06-01 09:29:00,74.7,68.1,29.94,SW,236,1.5,4.5,80,0.00,,,0.00,VWS V14.01,2013-06-01 13:29:00,
2013-06-01 09:30:00,74.7,68.1,29.94,SW,223,1.5,4.5,80,0.00,,,0.00,VWS V14.01,2013-06-01 13:30:00,
2013-06-01 09:31:00,74.7,68.1,29.93,SSW,209,3.0,4.5,80,0.00,,,0.00,VWS V14.01,2013-06-01 13:31:00,
2013-06-01 09:32:00,74.8,68.2,29.94,SSW,194,7.5,7.5,80,0.00,,,0.00,VWS V14.01,2013-06-01 13:32:00,
2013-06-01 09:33:00,74.8,67.9,29.94,SW,223,6.0,9.0,79,0.00,,,0.00,VWS V14.01,2013-06-01 13:33:00,
2013-06-01 09:34:00,74.9,67.9,29.94,SW,223,4.5,6.0,79,0.00,,,0.00,VWS V14.01,2013-06-01 13:34:00,
2013-06-01 09:35:00,74.9,67.9,29.94,SSW,201,6.0,9.0,79,0.00,,,0.00,VWS V14.01,2013-06-01 13:35:00,
2013-06-01 09:36:00,74.9,67.9,29.94,WSW,237,7.5,9.0,79,0.00,,,0.00,VWS V14.01,2013-06-01 13:36:00,
2013-06-01 09:37:00,75.0,68.1,29.94,WSW,254,6.0,10.5,79,0.00,,,0.00,VWS V14.01,2013-06-01 13:37:00,
2013-06-01 09:38:00,74.9,67.9,29.94,SW,234,9.0,10.5,79,0.00,,,0.00,VWS V14.01,2013-06-01 13:38:00,
2013-06-01 09:39:00,75.0,68.1,29.94,SW,231,12.0,12.0,79,0.00,,,0.00,VWS V14.01,2013-06-01 13:39:00,
2013-06-01 09:40:00,75.0,68.1,29.94,SSW,212,7.5,12.0,79,0.00,,,0.00,VWS V14.01,2013-06-01 13:40:00,
2013-06-01 09:41:00,75.0,68.1,29.94,West,271,4.5,13.5,79,0.00,,,0.00,VWS V14.01,2013-06-01 13:41:00,
2013-06-01 09:42:00,75.0,68.1,29.94,WSW,241,10.5,12.0,79,0.00,,,0.00,VWS V14.01,2013-06-01 13:42:00,
2013-06-01 09:43:00,75.0,67.7,29.94,SSW,205,4.5,10.5,78,0.00,,,0.00,VWS V14.01,2013-06-01 13:43:00,
2013-06-01 09:44:00,75.0,68.1,29.94,SW,231,7.5,12.0,79,0.00,,,0.00,VWS V14.01,2013-06-01 13:44:00,
2013-06-01 09:45:00,75.0,68.1,29.94,SW,223,4.5,12.0,79,0.00,,,0.00,VWS V14.01,2013-06-01 13:45:00,
2013-06-01 09:46:00,75.1,68.2,29.94,South,177,7.5,10.5,79,0.00,,,0.00,VWS V14.01,2013-06-01 13:46:00,
2013-06-01 09:47:00,75.1,68.2,29.93,SW,236,9.0,12.0,79,0.00,,,0.00,VWS V14.01,2013-06-01 13:47:00,
2013-06-01 09:48:00,75.1,67.8,29.93,SW,220,9.0,12.0,78,0.00,,,0.00,VWS V14.01,2013-06-01 13:48:00,
2013-06-01 09:49:00,75.1,68.2,29.93,ESE,118,6.0,6.0,79,0.00,,,0.00,VWS V14.01,2013-06-01 13:49:00,
2013-06-01 09:50:00,75.2,68.2,29.93,SW,223,4.5,7.5,79,0.00,,,0.00,VWS V14.01,2013-06-01 13:50:00,
2013-06-01 09:51:00,75.2,68.2,29.93,SSE,167,6.0,10.5,79,0.00,,,0.00,VWS V14.01,2013-06-01 13:51:00,
2013-06-01 09:52:00,75.2,68.2,29.93,SSW,205,16.5,16.5,79,0.00,,,0.00,VWS V14.01,2013-06-01 13:52:00,
2013-06-01 09:53:00,75.3,68.3,29.94,WSW,250,7.5,16.5,79,0.00,,,0.00,VWS V14.01,2013-06-01 13:53:00,
2013-06-01 09:54:00,75.3,68.3,29.94,SSW,198,9.0,12.0,79,0.00,,,0.00,VWS V14.01,2013-06-01 13:54:00,
2013-06-01 09:55:00,75.3,68.3,29.94,SW,229,7.5,12.0,79,0.00,,,0.00,VWS V14.01,2013-06-01 13:55:00,
2013-06-01 09:56:00,75.3,68.0,29.93,SSW,212,10.5,15.0,78,0.00,,,0.00,VWS V14.01,2013-06-01 13:56:00,
2013-06-01 09:57:00,75.4,68.1,29.94,SE,125,6.0,12.0,78,0.00,,,0.00,VWS V14.01,2013-06-01 13:57:00,
2013-06-01 09:58:00,75.4,68.1,29.94,SSW,206,4.5,10.5,78,0.00,,,0.00,VWS V14.01,2013-06-01 13:58:00,
2013-06-01 09:59:00,75.4,68.1,29.94,WSW,258,7.5,12.0,78,0.00,,,0.00,VWS V14.01,2013-06-01 13:59:00,
2013-06-01 10:00:00,75.4,68.1,29.94,South,174,18.0,18.0,78,0.00,,,0.00,VWS V14.01,2013-06-01 14:00:00,
2013-06-01 10:01:00,75.5,68.2,29.94,West,264,4.5,18.0,78,0.00,,,0.00,VWS V14.01,2013-06-01 14:01:00,
2013-06-01 10:02:00,75.5,68.2,29.93,WSW,255,9.0,9.0,78,0.00,,,0.00,VWS V14.01,2013-06-01 14:02:00,
2013-06-01 10:03:00,75.7,68.4,29.94,WNW,299,9.0,12.0,78,0.00,,,0.00,VWS V14.01,2013-06-01 14:03:00,
2013-06-01 10:04:00,75.8,68.1,29.94,SSW,212,10.5,19.5,77,0.00,,,0.00,VWS V14.01,2013-06-01 14:04:00,
2013-06-01 10:05:00,75.8,68.1,29.94,WSW,244,7.5,19.5,77,0.00,,,0.00,VWS V14.01,2013-06-01 14:05:00,
2013-06-01 10:06:00,75.9,68.6,29.94,SW,220,4.5,7.5,78,0.00,,,0.00,VWS V14.01,2013-06-01 14:06:00,
2013-06-01 10:07:00,75.9,68.6,29.94,SSW,198,6.0,12.0,78,0.00,,,0.00,VWS V14.01,2013-06-01 14:07:00,
2013-06-01 10:08:00,76.0,68.3,29.93,WSW,257,4.5,7.5,77,0.00,,,0.00,VWS V14.01,2013-06-01 14:08:00,
2013-06-01 10:09:00,76.1,68.8,29.94,WSW,244,6.0,6.0,78,0.00,,,0.00,VWS V14.01,2013-06-01 14:09:00,
2013-06-01 10:10:00,76.2,68.8,29.94,West,260,13.5,13.5,78,0.00,,,0.00,VWS V14.01,2013-06-01 14:10:00,
2013-06-01 10:11:00,76.3,68.6,29.93,West,259,9.0,13.5,77,0.00,,,0.00,VWS V14.01,2013-06-01 14:11:00,
2013-06-01 10:12:00,76.3,68.6,29.93,SW,230,9.0,12.0,77,0.00,,,0.00,VWS V14.01,2013-06-01 14:12:00,
2013-06-01 10:13:00,76.3,68.6,29.93,SW,216,9.0,13.5,77,0.00,,,0.00,VWS V14.01,2013-06-01 14:13:00,
2013-06-01 10:14:00,76.4,68.7,29.93,SW,223,15.0,19.5,77,0.00,,,0.00,VWS V14.01,2013-06-01 14:14:00,
2013-06-01 10:15:00,76.4,68.7,29.93,West,267,9.0,25.5,77,0.00,,,0.00,VWS V14.01,2013-06-01 14:15:00,
2013-06-01 10:16:00,76.4,68.7,29.94,WSW,250,12.0,25.5,77,0.00,,,0.00,VWS V14.01,2013-06-01 14:16:00,
2013-06-01 10:17:00,76.4,68.3,29.94,SW,228,12.0,18.0,76,0.00,,,0.00,VWS V14.01,2013-06-01 14:17:00,
2013-06-01 10:18:00,76.4,68.3,29.94,SSW,212,21.0,21.0,76,0.00,,,0.00,VWS V14.01,2013-06-01 14:18:00,
2013-06-01 10:19:00,76.4,68.3,29.94,West,259,16.5,16.5,76,0.00,,,0.00,VWS V14.01,2013-06-01 14:19:00,
2013-06-01 10:20:00,76.4,68.3,29.94,SSW,208,16.5,16.5,76,0.00,,,0.00,VWS V14.01,2013-06-01 14:20:00,
2013-06-01 10:21:00,76.4,68.7,29.94,SW,227,13.5,19.5,77,0.00,,,0.00,VWS V14.01,2013-06-01 14:21:00,
2013-06-01 10:22:00,76.6,68.5,29.93,WSW,239,6.0,16.5,76,0.00,,,0.00,VWS V14.01,2013-06-01 14:22:00,
2013-06-01 10:23:00,76.6,68.5,29.93,SW,231,15.0,16.5,76,0.00,,,0.00,VWS V14.01,2013-06-01 14:23:00,
2013-06-01 10:24:00,76.9,69.2,29.94,WSW,248,12.0,13.5,77,0.00,,,0.00,VWS V14.01,2013-06-01 14:24:00,
2013-06-01 10:25:00,76.9,69.2,29.94,SW,232,18.0,19.5,77,0.00,,,0.00,VWS V14.01,2013-06-01 14:25:00,
2013-06-01 10:26:00,77.0,68.5,29.94,WSW,241,12.0,22.5,75,0.00,,,0.00,VWS V14.01,2013-06-01 14:26:00,
2013-06-01 10:27:00,77.0,68.9,29.93,SW,234,19.5,19.5,76,0.00,,,0.00,VWS V14.01,2013-06-01 14:27:00,
2013-06-01 10:28:00,76.9,68.8,29.93,WSW,257,13.5,19.5,76,0.00,,,0.00,VWS V14.01,2013-06-01 14:28:00,
2013-06-01 10:29:00,76.9,68.8,29.93,WSW,250,12.0,24.0,76,0.00,,,0.00,VWS V14.01,2013-06-01 14:29:00,
2013-06-01 10:30:00,76.9,68.8,29.93,SW,234,22.5,24.0,76,0.00,,,0.00,VWS V14.01,2013-06-01 14:30:00,
2013-06-01 10:31:00,76.9,68.4,29.93,SW,232,9.0,22.5,75,0.00,,,0.00,VWS V14.01,2013-06-01 14:31:00,
2013-06-01 10:32:00,76.9,68.8,29.93,SW,218,10.5,18.0,76,0.00,,,0.00,VWS V14.01,2013-06-01 14:32:00,
2013-06-01 10:33:00,76.9,68.4,29.93,WSW,241,10.5,18.0,75,0.00,,,0.00,VWS V14.01,2013-06-01 14:33:00,
2013-06-01 10:34:00,76.9,68.8,29.93,SW,230,13.5,19.5,76,0.00,,,0.00,VWS V14.01,2013-06-01 14:34:00,
2013-06-01 10:35:00,76.9,68.8,29.93,SW,226,9.0,19.5,76,0.00,,,0.00,VWS V14.01,2013-06-01 14:35:00,
2013-06-01 10:36:00,76.9,68.8,29.93,SW,227,9.0,16.5,76,0.00,,,0.00,VWS V14.01,2013-06-01 14:36:00,
2013-06-01 10:37:00,76.8,68.3,29.93,WSW,237,19.5,19.5,75,0.00,,,0.00,VWS V14.01,2013-06-01 14:37:00,
2013-06-01 10:38:00,76.8,68.7,29.93,West,264,13.5,22.5,76,0.00,,,0.00,VWS V14.01,2013-06-01 14:38:00,
2013-06-01 10:39:00,76.8,68.7,29.93,SSW,205,15.0,22.5,76,0.00,,,0.00,VWS V14.01,2013-06-01 14:39:00,
2013-06-01 10:40:00,76.8,68.7,29.93,SW,229,15.0,22.5,76,0.00,,,0.00,VWS V14.01,2013-06-01 14:40:00,
2013-06-01 10:41:00,76.8,68.7,29.93,SW,222,18.0,19.5,76,0.00,,,0.00,VWS V14.01,2013-06-01 14:41:00,
2013-06-01 10:42:00,76.8,68.7,29.93,SW,225,15.0,18.0,76,0.00,,,0.00,VWS V14.01,2013-06-01 14:42:00,
2013-06-01 10:43:00,76.8,68.7,29.93,WSW,251,7.5,19.5,76,0.00,,,0.00,VWS V14.01,2013-06-01 14:43:00,
2013-06-01 10:44:00,76.8,68.7,29.93,SW,216,12.0,12.0,76,0.00,,,0.00,VWS V14.01,2013-06-01 14:44:00,
2013-06-01 10:45:00,76.9,68.8,29.93,SW,220,7.5,12.0,76,0.00,,,0.00,VWS V14.01,2013-06-01 14:45:00,
2013-06-01 10:46:00,76.9,69.2,29.93,SW,223,9.0,13.5,77,0.00,,,0.00,VWS V14.01,2013-06-01 14:46:00,
2013-06-01 10:47:00,77.0,69.2,29.94,WSW,241,12.0,15.0,77,0.00,,,0.00,VWS V14.01,2013-06-01 14:47:00,
2013-06-01 10:48:00,77.0,69.2,29.93,SW,233,16.5,16.5,77,0.00,,,0.00,VWS V14.01,2013-06-01 14:48:00,
2013-06-01 10:49:00,77.0,69.2,29.93,SSW,194,10.5,13.5,77,0.00,,,0.00,VWS V14.01,2013-06-01 14:49:00,
2013-06-01 10:50:00,77.0,68.9,29.93,West,260,12.0,19.5,76,0.00,,,0.00,VWS V14.01,2013-06-01 14:50:00,
2013-06-01 10:51:00,77.1,69.3,29.94,NE,42,7.5,25.5,77,0.00,,,0.00,VWS V14.01,2013-06-01 14:51:00,
2013-06-01 10:52:00,77.1,69.0,29.93,WSW,237,10.5,19.5,76,0.00,,,0.00,VWS V14.01,2013-06-01 14:52:00,
2013-06-01 10:53:00,77.2,69.1,29.93,SW,221,7.5,12.0,76,0.00,,,0.00,VWS V14.01,2013-06-01 14:53:00,
2013-06-01 10:54:00,77.2,69.1,29.94,SSW,213,13.5,13.5,76,0.00,,,0.00,VWS V14.01,2013-06-01 14:54:00,
2013-06-01 10:55:00,77.2,69.1,29.94,WSW,246,15.0,15.0,76,0.00,,,0.00,VWS V14.01,2013-06-01 14:55:00,
2013-06-01 10:56:00,77.2,69.1,29.94,SW,229,9.0,16.5,76,0.00,,,0.00,VWS V14.01,2013-06-01 14:56:00,
2013-06-01 10:57:00,77.2,69.4,29.94,SW,234,15.0,15.0,77,0.00,,,0.00,VWS V14.01,2013-06-01 14:57:00,
2013-06-01 10:58:00,77.2,69.1,29.94,WSW,250,10.5,25.5,76,0.00,,,0.00,VWS V14.01,2013-06-01 14:58:00,
2013-06-01 10:59:00,77.1,69.0,29.94,WSW,250,10.5,16.5,76,0.00,,,0.00,VWS V14.01,2013-06-01 14:59:00,
2013-06-01 11:00:00,77.1,69.3,29.94,WSW,241,12.0,16.5,77,0.00,,,0.00,VWS V14.01,2013-06-01 15:00:00,
2013-06-01 11:01:00,77.1,69.0,29.94,West,260,16.5,16.5,76,0.00,,,0.00,VWS V14.01,2013-06-01 15:01:00,
2013-06-01 11:02:00,77.1,68.6,29.94,WSW,246,19.5,27.0,75,0.00,,,0.00,VWS V14.01,2013-06-01 15:02:00,
2013-06-01 11:03:00,77.0,68.9,29.94,SW,234,24.0,24.0,76,0.00,,,0.00,VWS V14.01,2013-06-01 15:03:00,
2013-06-01 11:04:00,77.0,68.9,29.94,WSW,237,16.5,18.0,76,0.00,,,0.00,VWS V14.01,2013-06-01 15:04:00,
2013-06-01 11:05:00,77.0,68.9,29.94,West,265,18.0,19.5,76,0.00,,,0.00,VWS V14.01,2013-06-01 15:05:00,
2013-06-01 11:06:00,77.0,68.9,29.94,West,261,10.5,18.0,76,0.00,,,0.00,VWS V14.01,2013-06-01 15:06:00,
2013-06-01 11:07:00,77.1,69.0,29.94,SW,219,7.5,24.0,76,0.00,,,0.00,VWS V14.01,2013-06-01 15:07:00,
2013-06-01 11:08:00,77.1,69.0,29.94,WSW,240,15.0,21.0,76,0.00,,,0.00,VWS V14.01,2013-06-01 15:08:00,
2013-06-01 11:09:00,77.1,69.0,29.94,WSW,252,13.5,16.5,76,0.00,,,0.00,VWS V14.01,2013-06-01 15:09:00,
2013-06-01 11:10:00,77.1,69.0,29.94,SW,226,19.5,19.5,76,0.00,,,0.00,VWS V14.01,2013-06-01 15:10:00,
2013-06-01 11:11:00,77.2,69.1,29.94,SW,230,12.0,24.0,76,0.00,,,0.00,VWS V14.01,2013-06-01 15:11:00,
2013-06-01 11:12:00,77.2,69.1,29.94,WSW,253,10.5,22.5,76,0.00,,,0.00,VWS V14.01,2013-06-01 15:12:00,
2013-06-01 11:13:00,77.3,69.2,29.94,SW,231,18.0,21.0,76,0.00,,,0.00,VWS V14.01,2013-06-01 15:13:00,
2013-06-01 11:14:00,77.4,69.2,29.95,WSW,243,15.0,22.5,76,0.00,,,0.00,VWS V14.01,2013-06-01 15:14:00,
2013-06-01 11:15:00,77.4,69.2,29.95,WSW,255,24.0,27.0,76,0.00,,,0.00,VWS V14.01,2013-06-01 15:15:00,
2013-06-01 11:16:00,77.4,68.9,29.94,WSW,257,12.0,25.5,75,0.00,,,0.00,VWS V14.01,2013-06-01 15:16:00,
2013-06-01 11:17:00,77.5,69.0,29.94,SW,234,7.5,13.5,75,0.00,,,0.00,VWS V14.01,2013-06-01 15:17:00,
2013-06-01 11:18:00,77.6,69.4,29.94,South,191,16.5,19.5,76,0.00,,,0.00,VWS V14.01,2013-06-01 15:18:00,
2013-06-01 11:19:00,77.7,69.2,29.94,WSW,248,12.0,15.0,75,0.00,,,0.00,VWS V14.01,2013-06-01 15:19:00,
2013-06-01 11:20:00,77.7,69.2,29.94,West,259,19.5,19.5,75,0.00,,,0.00,VWS V14.01,2013-06-01 15:20:00,
2013-06-01 11:21:00,77.8,69.2,29.94,WSW,239,19.5,22.5,75,0.00,,,0.00,VWS V14.01,2013-06-01 15:21:00,
2013-06-01 11:22:00,77.8,68.9,29.94,WSW,258,13.5,21.0,74,0.00,,,0.00,VWS V14.01,2013-06-01 15:22:00,
2013-06-01 11:23:00,77.8,69.2,29.94,WSW,237,13.5,28.5,75,0.00,,,0.00,VWS V14.01,2013-06-01 15:23:00,
2013-06-01 11:24:00,77.8,68.9,29.94,WSW,247,22.5,22.5,74,0.00,,,0.00,VWS V14.01,2013-06-01 15:24:00,
2013-06-01 11:25:00,77.8,68.9,29.94,WSW,252,37.5,37.5,74,0.00,,,0.00,VWS V14.01,2013-06-01 15:25:00,
2013-06-01 11:26:00,77.7,68.8,29.94,WSW,251,22.5,37.5,74,0.00,,,0.00,VWS V14.01,2013-06-01 15:26:00,
2013-06-01 11:27:00,77.6,68.7,29.95,WSW,251,28.5,28.5,74,0.00,,,0.00,VWS V14.01,2013-06-01 15:27:00,
2013-06-01 11:28:00,77.5,68.6,29.95,SW,234,30.0,30.0,74,0.00,,,0.00,VWS V14.01,2013-06-01 15:28:00,
2013-06-01 11:29:00,77.4,68.5,29.95,West,274,18.0,27.0,74,0.00,,,0.00,VWS V14.01,2013-06-01 15:29:00,
2013-06-01 11:30:00,77.4,68.5,29.95,WSW,247,18.0,27.0,74,0.00,,,0.00,VWS V14.01,2013-06-01 15:30:00,
2013-06-01 11:31:00,77.3,68.8,29.94,SW,226,19.5,19.5,75,0.00,,,0.00,VWS V14.01,2013-06-01 15:31:00,
2013-06-01 11:32:00,77.3,68.8,29.94,WSW,240,9.0,19.5,75,0.00,,,0.00,VWS V14.01,2013-06-01 15:32:00,
2013-06-01 11:33:00,77.2,68.7,29.95,SW,217,18.0,24.0,75,0.00,,,0.00,VWS V14.01,2013-06-01 15:33:00,
2013-06-01 11:34:00,77.2,68.3,29.95,WSW,237,19.5,19.5,74,0.00,,,0.00,VWS V14.01,2013-06-01 15:34:00,
2013-06-01 11:35:00,77.2,68.3,29.95,West,260,21.0,25.5,74,0.00,,,0.00,VWS V14.01,2013-06-01 15:35:00,
2013-06-01 11:36:00,77.1,68.2,29.95,SW,227,15.0,28.5,74,0.00,,,0.00,VWS V14.01,2013-06-01 15:36:00,
2013-06-01 11:37:00,77.1,68.6,29.95,WSW,250,27.0,28.5,75,0.00,,,0.00,VWS V14.01,2013-06-01 15:37:00,
2013-06-01 11:38:00,77.1,68.2,29.95,WSW,241,19.5,30.0,74,0.00,,,0.00,VWS V14.01,2013-06-01 15:38:00,
2013-06-01 11:39:00,77.1,68.2,29.95,SSW,201,19.5,19.5,74,0.00,,,0.00,VWS V14.01,2013-06-01 15:39:00,
2013-06-01 11:40:00,77.1,68.6,29.95,SW,233,21.0,31.5,75,0.00,,,0.00,VWS V14.01,2013-06-01 15:40:00,
2013-06-01 11:41:00,77.1,68.6,29.95,WSW,255,22.5,27.0,75,0.00,,,0.00,VWS V14.01,2013-06-01 15:41:00,
2013-06-01 11:42:00,77.1,68.2,29.95,SW,229,12.0,28.5,74,0.00,,,0.00,VWS V14.01,2013-06-01 15:42:00,
2013-06-01 11:43:00,77.1,68.6,29.95,WSW,239,13.5,21.0,75,0.00,,,0.00,VWS V14.01,2013-06-01 15:43:00,
2013-06-01 11:44:00,77.1,68.6,29.95,SW,223,18.0,25.5,75,0.00,,,0.00,VWS V14.01,2013-06-01 15:44:00,
2013-06-01 11:45:00,77.1,68.6,29.95,SSW,212,10.5,25.5,75,0.00,,,0.00,VWS V14.01,2013-06-01 15:45:00,
2013-06-01 11:46:00,77.2,68.7,29.95,WSW,252,9.0,19.5,75,0.00,,,0.00,VWS V14.01,2013-06-01 15:46:00,
2013-06-01 11:47:00,77.3,68.8,29.95,WSW,248,15.0,22.5,75,0.00,,,0.00,VWS V14.01,2013-06-01 15:47:00,
2013-06-01 11:48:00,77.3,68.8,29.95,SSW,213,12.0,19.5,75,0.00,,,0.00,VWS V14.01,2013-06-01 15:48:00,
2013-06-01 11:49:00,77.3,68.8,29.95,WSW,240,15.0,18.0,75,0.00,,,0.00,VWS V14.01,2013-06-01 15:49:00,
2013-06-01 11:50:00,77.3,68.8,29.95,WSW,258,7.5,18.0,75,0.00,,,0.00,VWS V14.01,2013-06-01 15:50:00,
2013-06-01 11:51:00,77.4,68.9,29.95,WSW,258,18.0,19.5,75,0.00,,,0.00,VWS V14.01,2013-06-01 15:51:00,
2013-06-01 11:52:00,77.4,68.5,29.95,WSW,254,15.0,33.0,74,0.00,,,0.00,VWS V14.01,2013-06-01 15:52:00,
2013-06-01 11:53:00,77.4,68.5,29.95,SW,236,12.0,22.5,74,0.00,,,0.00,VWS V14.01,2013-06-01 15:53:00,
2013-06-01 11:54:00,77.3,68.4,29.95,SW,217,13.5,16.5,74,0.00,,,0.00,VWS V14.01,2013-06-01 15:54:00,
2013-06-01 11:55:00,77.2,68.7,29.95,WSW,247,13.5,21.0,75,0.00,,,0.00,VWS V14.01,2013-06-01 15:55:00,
2013-06-01 11:56:00,77.2,68.7,29.95,WSW,237,12.0,28.5,75,0.00,,,0.00,VWS V14.01,2013-06-01 15:56:00,
2013-06-01 11:57:00,77.2,68.7,29.95,SW,216,9.0,12.0,75,0.00,,,0.00,VWS V14.01,2013-06-01 15:57:00,
2013-06-01 11:58:00,77.2,68.7,29.95,WSW,245,12.0,18.0,75,0.00,,,0.00,VWS V14.01,2013-06-01 15:58:00,
2013-06-01 11:59:00,77.2,68.7,29.95,WSW,246,16.5,16.5,75,0.00,,,0.00,VWS V14.01,2013-06-01 15:59:00,
2013-06-01 12:00:00,77.1,68.6,29.95,WSW,248,15.0,22.5,75,0.00,,,0.00,VWS V14.01,2013-06-01 16:00:00,
2013-06-01 12:01:00,77.1,68.6,29.95,South,184,9.0,22.5,75,0.00,,,0.00,VWS V14.01,2013-06-01 16:01:00,
2013-06-01 12:02:00,77.0,68.5,29.95,SW,226,10.5,18.0,75,0.00,,,0.00,VWS V14.01,2013-06-01 16:02:00,
2013-06-01 12:03:00,77.0,68.5,29.95,West,266,18.0,19.5,75,0.00,,,0.00,VWS V14.01,2013-06-01 16:03:00,
2013-06-01 12:04:00,77.0,68.5,29.95,WSW,243,10.5,15.0,75,0.00,,,0.00,VWS V14.01,2013-06-01 16:04:00,
2013-06-01 12:05:00,77.0,68.5,29.95,West,267,19.5,21.0,75,0.00,,,0.00,VWS V14.01,2013-06-01 16:05:00,
2013-06-01 12:06:00,77.0,68.1,29.95,WSW,239,16.5,28.5,74,0.00,,,0.00,VWS V14.01,2013-06-01 16:06:00,
2013-06-01 12:07:00,76.9,68.0,29.95,West,265,15.0,22.5,74,0.00,,,0.00,VWS V14.01,2013-06-01 16:07:00,
2013-06-01 12:08:00,76.9,68.0,29.95,WNW,293,12.0,19.5,74,0.00,,,0.00,VWS V14.01,2013-06-01 16:08:00,
2013-06-01 12:09:00,77.0,67.7,29.95,WSW,244,21.0,21.0,73,0.00,,,0.00,VWS V14.01,2013-06-01 16:09:00,
2013-06-01 12:10:00,76.9,68.0,29.95,SW,236,13.5,21.0,74,0.00,,,0.00,VWS V14.01,2013-06-01 16:10:00,
2013-06-01 12:11:00,76.9,67.6,29.95,West,260,15.0,19.5,73,0.00,,,0.00,VWS V14.01,2013-06-01 16:11:00,
2013-06-01 12:12:00,77.0,67.7,29.95,WSW,243,18.0,18.0,73,0.00,,,0.00,VWS V14.01,2013-06-01 16:12:00,
2013-06-01 12:13:00,77.0,67.7,29.95,WSW,253,15.0,18.0,73,0.00,,,0.00,VWS V14.01,2013-06-01 16:13:00,
2013-06-01 12:14:00,77.0,68.1,29.95,WNW,303,9.0,15.0,74,0.00,,,0.00,VWS V14.01,2013-06-01 16:14:00,
2013-06-01 12:15:00,77.0,68.1,29.95,WSW,257,19.5,19.5,74,0.00,,,0.00,VWS V14.01,2013-06-01 16:15:00,
2013-06-01 12:16:00,77.0,68.1,29.95,WSW,240,7.5,19.5,74,0.00,,,0.00,VWS V14.01,2013-06-01 16:16:00,
2013-06-01 12:17:00,77.0,68.5,29.95,SSW,212,12.0,13.5,75,0.00,,,0.00,VWS V14.01,2013-06-01 16:17:00,
2013-06-01 12:18:00,77.1,68.6,29.95,West,272,15.0,15.0,75,0.00,,,0.00,VWS V14.01,2013-06-01 16:18:00,
2013-06-01 12:19:00,77.2,68.7,29.95,WSW,248,15.0,16.5,75,0.00,,,0.00,VWS V14.01,2013-06-01 16:19:00,
2013-06-01 12:20:00,77.2,68.3,29.95,WSW,237,22.5,22.5,74,0.00,,,0.00,VWS V14.01,2013-06-01 16:20:00,
2013-06-01 12:21:00,77.1,68.2,29.95,South,190,9.0,22.5,74,0.00,,,0.00,VWS V14.01,2013-06-01 16:21:00,
2013-06-01 12:22:00,77.1,68.6,29.95,WSW,257,16.5,18.0,75,0.00,,,0.00,VWS V14.01,2013-06-01 16:22:00,
2013-06-01 12:23:00,77.0,68.5,29.95,West,265,12.0,21.0,75,0.00,,,0.00,VWS V14.01,2013-06-01 16:23:00,
2013-06-01 12:24:00,77.0,68.5,29.95,West,259,15.0,19.5,75,0.00,,,0.00,VWS V14.01,2013-06-01 16:24:00,
2013-06-01 12:25:00,77.0,68.1,29.95,WSW,252,18.0,24.0,74,0.00,,,0.00,VWS V14.01,2013-06-01 16:25:00,
2013-06-01 12:26:00,76.9,68.4,29.95,WSW,246,13.5,18.0,75,0.00,,,0.00,VWS V14.01,2013-06-01 16:26:00,
2013-06-01 12:27:00,76.8,68.3,29.95,WSW,255,12.0,27.0,75,0.00,,,0.00,VWS V14.01,2013-06-01 16:27:00,
2013-06-01 12:28:00,76.8,68.3,29.95,SW,228,12.0,18.0,75,0.00,,,0.00,VWS V14.01,2013-06-01 16:28:00,
2013-06-01 12:29:00,76.8,68.3,29.95,West,262,22.5,22.5,75,0.00,,,0.00,VWS V14.01,2013-06-01 16:29:00,
2013-06-01 12:30:00,76.8,67.9,29.95,SW,234,13.5,22.5,74,0.00,,,0.00,VWS V14.01,2013-06-01 16:30:00,
2013-06-01 12:31:00,76.7,67.8,29.95,West,269,10.5,19.5,74,0.00,,,0.00,VWS V14.01,2013-06-01 16:31:00,
2013-06-01 12:32:00,76.8,68.3,29.95,WSW,237,15.0,16.5,75,0.00,,,0.00,VWS V14.01,2013-06-01 16:32:00,
2013-06-01 12:33:00,76.8,68.3,29.95,West,271,9.0,18.0,75,0.00,,,0.00,VWS V14.01,2013-06-01 16:33:00,
2013-06-01 12:34:00,76.9,68.0,29.95,SSE,165,7.5,7.5,74,0.00,,,0.00,VWS V14.01,2013-06-01 16:34:00,
2013-06-01 12:35:00,76.9,68.4,29.95,WSW,257,12.0,16.5,75,0.00,,,0.00,VWS V14.01,2013-06-01 16:35:00,
2013-06-01 12:36:00,77.0,68.5,29.95,SW,236,6.0,13.5,75,0.00,,,0.00,VWS V14.01,2013-06-01 16:36:00,
2013-06-01 12:37:00,77.0,68.5,29.95,West,259,7.5,12.0,75,0.00,,,0.00,VWS V14.01,2013-06-01 16:37:00,
2013-06-01 12:38:00,77.0,68.5,29.95,WNW,285,10.5,10.5,75,0.00,,,0.00,VWS V14.01,2013-06-01 16:38:00,
2013-06-01 12:39:00,77.0,68.5,29.95,SW,223,10.5,10.5,75,0.00,,,0.00,VWS V14.01,2013-06-01 16:39:00,
2013-06-01 12:40:00,77.1,68.6,29.95,WSW,258,6.0,13.5,75,0.00,,,0.00,VWS V14.01,2013-06-01 16:40:00,
2013-06-01 12:41:00,77.1,68.6,29.95,WSW,257,16.5,16.5,75,0.00,,,0.00,VWS V14.01,2013-06-01 16:41:00,
2013-06-01 12:42:00,77.0,68.1,29.95,SSW,205,9.0,18.0,74,0.00,,,0.00,VWS V14.01,2013-06-01 16:42:00,
2013-06-01 12:43:00,77.0,68.5,29.95,SSW,209,15.0,15.0,75,0.00,,,0.00,VWS V14.01,2013-06-01 16:43:00,
2013-06-01 12:44:00,76.9,68.4,29.95,SW,234,10.5,16.5,75,0.00,,,0.00,VWS V14.01,2013-06-01 16:44:00,
2013-06-01 12:45:00,76.8,67.9,29.95,WSW,244,18.0,18.0,74,0.00,,,0.00,VWS V14.01,2013-06-01 16:45:00,
2013-06-01 12:46:00,76.7,67.8,29.95,WSW,244,12.0,18.0,74,0.00,,,0.00,VWS V14.01,2013-06-01 16:46:00,
2013-06-01 12:47:00,76.7,68.2,29.95,SW,234,16.5,16.5,75,0.00,,,0.00,VWS V14.01,2013-06-01 16:47:00,
2013-06-01 12:48:00,76.6,68.1,29.95,SW,234,10.5,19.5,75,0.00,,,0.00,VWS V14.01,2013-06-01 16:48:00,
2013-06-01 12:49:00,76.6,68.1,29.95,WSW,237,12.0,16.5,75,0.00,,,0.00,VWS V14.01,2013-06-01 16:49:00,
2013-06-01 12:50:00,76.6,68.1,29.95,SW,234,16.5,18.0,75,0.00,,,0.00,VWS V14.01,2013-06-01 16:50:00,
2013-06-01 12:51:00,76.5,67.6,29.94,SW,218,15.0,16.5,74,0.00,,,0.00,VWS V14.01,2013-06-01 16:51:00,
2013-06-01 12:52:00,76.5,67.6,29.95,WSW,250,12.0,15.0,74,0.00,,,0.00,VWS V14.01,2013-06-01 16:52:00,
2013-06-01 12:53:00,76.4,67.5,29.95,WSW,251,10.5,15.0,74,0.00,,,0.00,VWS V14.01,2013-06-01 16:53:00,
2013-06-01 12:54:00,76.4,67.5,29.95,WSW,251,10.5,15.0,74,0.00,,,0.00,VWS V14.01,2013-06-01 16:54:00,
2013-06-01 12:55:00,76.3,67.4,29.95,West,266,9.0,16.5,74,0.00,,,0.00,VWS V14.01,2013-06-01 16:55:00,
2013-06-01 12:56:00,76.3,67.4,29.95,WSW,252,9.0,18.0,74,0.00,,,0.00,VWS V14.01,2013-06-01 16:56:00,
2013-06-01 12:57:00,76.3,67.4,29.94,SW,229,7.5,15.0,74,0.00,,,0.00,VWS V14.01,2013-06-01 16:57:00,
2013-06-01 12:58:00,76.2,67.3,29.95,SW,223,7.5,13.5,74,0.00,,,0.00,VWS V14.01,2013-06-01 16:58:00,
2013-06-01 12:59:00,76.2,67.3,29.95,SW,223,7.5,13.5,74,0.00,,,0.00,VWS V14.01,2013-06-01 16:59:00,
2013-06-01 13:00:00,76.2,67.3,29.94,SSW,212,7.5,12.0,74,0.00,,,0.00,VWS V14.01,2013-06-01 17:00:00,
2013-06-01 13:01:00,76.2,67.3,29.94,South,176,12.0,13.5,74,0.00,,,0.00,VWS V14.01,2013-06-01 17:01:00,
2013-06-01 13:02:00,76.3,67.4,29.94,SW,231,16.5,16.5,74,0.00,,,0.00,VWS V14.01,2013-06-01 17:02:00,
2013-06-01 13:03:00,76.3,67.4,29.94,WSW,241,7.5,12.0,74,0.00,,,0.00,VWS V14.01,2013-06-01 17:03:00,
2013-06-01 13:04:00,76.3,67.4,29.94,WSW,241,7.5,12.0,74,0.00,,,0.00,VWS V14.01,2013-06-01 17:04:00,
2013-06-01 13:05:00,76.3,67.4,29.94,SW,220,10.5,10.5,74,0.00,,,0.00,VWS V14.01,2013-06-01 17:05:00,
2013-06-01 13:06:00,76.3,67.4,29.94,WSW,253,13.5,13.5,74,0.00,,,0.00,VWS V14.01,2013-06-01 17:06:00,
2013-06-01 13:07:00,76.3,67.0,29.94,SW,214,7.5,13.5,73,0.00,,,0.00,VWS V14.01,2013-06-01 17:07:00,
2013-06-01 13:08:00,76.4,67.1,29.94,WSW,240,16.5,18.0,73,0.00,,,0.00,VWS V14.01,2013-06-01 17:08:00,
2013-06-01 13:09:00,76.4,67.1,29.94,WSW,251,13.5,18.0,73,0.00,,,0.00,VWS V14.01,2013-06-01 17:09:00,
2013-06-01 13:10:00,76.4,67.1,29.94,WSW,247,13.5,18.0,73,0.00,,,0.00,VWS V14.01,2013-06-01 17:10:00,
2013-06-01 13:11:00,76.4,67.1,29.94,WSW,240,13.5,15.0,73,0.00,,,0.00,VWS V14.01,2013-06-01 17:11:00,
2013-06-01 13:12:00,76.4,67.1,29.94,WSW,240,9.0,13.5,73,0.00,,,0.00,VWS V14.01,2013-06-01 17:12:00,
2013-06-01 13:13:00,76.4,67.1,29.94,West,279,7.5,18.0,73,0.00,,,0.00,VWS V14.01,2013-06-01 17:13:00,
2013-06-01 13:14:00,76.4,67.1,29.94,WSW,237,9.0,18.0,73,0.00,,,0.00,VWS V14.01,2013-06-01 17:14:00,
2013-06-01 13:15:00,76.5,67.2,29.94,WSW,244,10.5,12.0,73,0.00,,,0.00,VWS V14.01,2013-06-01 17:15:00,
2013-06-01 13:16:00,76.5,67.6,29.94,WSW,255,13.5,15.0,74,0.00,,,0.00,VWS V14.01,2013-06-01 17:16:00,
2013-06-01 13:17:00,76.6,67.7,29.94,SSW,209,7.5,13.5,74,0.00,,,0.00,VWS V14.01,2013-06-01 17:17:00,
2013-06-01 13:18:00,76.7,67.8,29.94,WSW,251,9.0,13.5,74,0.00,,,0.00,VWS V14.01,2013-06-01 17:18:00,
2013-06-01 13:19:00,76.7,67.8,29.94,WSW,251,9.0,13.5,74,0.00,,,0.00,VWS V14.01,2013-06-01 17:19:00,
2013-06-01 13:20:00,76.7,67.8,29.94,SSW,213,7.5,9.0,74,0.00,,,0.00,VWS V14.01,2013-06-01 17:20:00,
2013-06-01 13:21:00,76.8,67.9,29.94,WSW,250,6.0,12.0,74,0.00,,,0.00,VWS V14.01,2013-06-01 17:21:00,
2013-06-01 13:22:00,76.9,67.6,29.94,WSW,250,13.5,19.5,73,0.00,,,0.00,VWS V14.01,2013-06-01 17:22:00,
2013-06-01 13:23:00,76.9,67.6,29.94,WSW,258,6.0,16.5,73,0.00,,,0.00,VWS V14.01,2013-06-01 17:23:00,
2013-06-01 13:24:00,76.9,67.6,29.94,SE,136,7.5,16.5,73,0.00,,,0.00,VWS V14.01,2013-06-01 17:24:00,
2013-06-01 13:25:00,76.9,68.0,29.94,WSW,254,7.5,9.0,74,0.00,,,0.00,VWS V14.01,2013-06-01 17:25:00,
2013-06-01 13:26:00,77.0,67.7,29.94,West,260,6.0,15.0,73,0.00,,,0.00,VWS V14.01,2013-06-01 17:26:00,
2013-06-01 13:27:00,77.0,67.7,29.94,SW,229,9.0,9.0,73,0.00,,,0.00,VWS V14.01,2013-06-01 17:27:00,
2013-06-01 13:28:00,77.2,68.3,29.94,WSW,251,9.0,10.5,74,0.00,,,0.00,VWS V14.01,2013-06-01 17:28:00,
2013-06-01 13:29:00,77.2,68.3,29.94,SW,231,10.5,10.5,74,0.00,,,0.00,VWS V14.01,2013-06-01 17:29:00,
2013-06-01 13:30:00,77.3,68.4,29.94,SW,229,12.0,12.0,74,0.00,,,0.00,VWS V14.01,2013-06-01 17:30:00,
2013-06-01 13:31:00,77.3,68.0,29.94,SSW,213,13.5,15.0,73,0.00,,,0.00,VWS V14.01,2013-06-01 17:31:00,
2013-06-01 13:32:00,77.4,68.1,29.94,WSW,240,9.0,13.5,73,0.00,,,0.00,VWS V14.01,2013-06-01 17:32:00,
2013-06-01 13:33:00,77.4,68.5,29.94,SSW,202,6.0,10.5,74,0.00,,,0.00,VWS V14.01,2013-06-01 17:33:00,
2013-06-01 13:34:00,77.5,68.6,29.94,WSW,252,4.5,10.5,74,0.00,,,0.00,VWS V14.01,2013-06-01 17:34:00,
2013-06-01 13:35:00,77.6,68.7,29.94,SW,223,6.0,7.5,74,0.00,,,0.00,VWS V14.01,2013-06-01 17:35:00,
2013-06-01 13:36:00,77.7,68.8,29.94,SW,216,7.5,9.0,74,0.00,,,0.00,VWS V14.01,2013-06-01 17:36:00,
2013-06-01 13:37:00,77.8,68.9,29.94,SW,225,6.0,19.5,74,0.00,,,0.00,VWS V14.01,2013-06-01 17:37:00,
2013-06-01 13:38:00,77.9,68.6,29.94,WNW,285,6.0,15.0,73,0.00,,,0.00,VWS V14.01,2013-06-01 17:38:00,
2013-06-01 13:39:00,77.9,68.6,29.94,South,185,4.5,15.0,73,0.00,,,0.00,VWS V14.01,2013-06-01 17:39:00,
2013-06-01 13:40:00,78.0,68.7,29.94,WSW,243,4.5,13.5,73,0.00,,,0.00,VWS V14.01,2013-06-01 17:40:00,
2013-06-01 13:41:00,78.0,68.7,29.94,West,269,9.0,13.5,73,0.00,,,0.00,VWS V14.01,2013-06-01 17:41:00,
2013-06-01 13:42:00,78.0,68.2,29.94,SW,236,13.5,13.5,72,0.00,,,0.00,VWS V14.01,2013-06-01 17:42:00,
2013-06-01 13:43:00,78.0,68.2,29.93,WSW,237,10.5,12.0,72,0.00,,,0.00,VWS V14.01,2013-06-01 17:43:00,
2013-06-01 13:44:00,78.0,68.2,29.93,SSW,198,7.5,12.0,72,0.00,,,0.00,VWS V14.01,2013-06-01 17:44:00,
2013-06-01 13:45:00,78.0,68.7,29.94,West,262,9.0,10.5,73,0.00,,,0.00,VWS V14.01,2013-06-01 17:45:00,
2013-06-01 13:46:00,78.0,68.7,29.94,WSW,237,7.5,12.0,73,0.00,,,0.00,VWS V14.01,2013-06-01 17:46:00,
2013-06-01 13:47:00,78.0,68.7,29.94,SW,222,4.5,9.0,73,0.00,,,0.00,VWS V14.01,2013-06-01 17:47:00,
2013-06-01 13:48:00,78.2,68.8,29.94,SW,220,6.0,9.0,73,0.00,,,0.00,VWS V14.01,2013-06-01 17:48:00,
2013-06-01 13:49:00,78.2,68.8,29.94,SW,235,6.0,9.0,73,0.00,,,0.00,VWS V14.01,2013-06-01 17:49:00,
2013-06-01 13:50:00,78.4,69.4,29.94,SW,236,3.0,7.5,74,0.00,,,0.00,VWS V14.01,2013-06-01 17:50:00,
2013-06-01 13:51:00,78.5,69.1,29.94,SW,221,16.5,16.5,73,0.00,,,0.00,VWS V14.01,2013-06-01 17:51:00,
2013-06-01 13:52:00,78.5,68.3,29.94,SW,217,6.0,16.5,71,0.00,,,0.00,VWS V14.01,2013-06-01 17:52:00,
2013-06-01 13:53:00,78.5,68.7,29.93,WSW,239,6.0,12.0,72,0.00,,,0.00,VWS V14.01,2013-06-01 17:53:00,
2013-06-01 13:54:00,78.5,68.7,29.93,WSW,244,15.0,15.0,72,0.00,,,0.00,VWS V14.01,2013-06-01 17:54:00,
2013-06-01 13:55:00,78.5,68.7,29.93,SE,139,6.0,15.0,72,0.00,,,0.00,VWS V14.01,2013-06-01 17:55:00,
2013-06-01 13:56:00,78.5,68.3,29.93,South,179,10.5,13.5,71,0.00,,,0.00,VWS V14.01,2013-06-01 17:56:00,
2013-06-01 13:57:00,78.5,68.7,29.93,WSW,250,13.5,13.5,72,0.00,,,0.00,VWS V14.01,2013-06-01 17:57:00,
2013-06-01 13:58:00,78.5,68.7,29.93,WSW,245,6.0,12.0,72,0.00,,,0.00,VWS V14.01,2013-06-01 17:58:00,
2013-06-01 13:59:00,78.5,68.7,29.93,WSW,257,9.0,12.0,72,0.00,,,0.00,VWS V14.01,2013-06-01 17:59:00,
2013-06-01 14:00:00,78.6,68.8,29.93,WSW,239,16.5,16.5,72,0.00,,,0.00,VWS V14.01,2013-06-01 18:00:00,
2013-06-01 14:01:00,78.5,68.7,29.93,SW,235,13.5,18.0,72,0.00,,,0.00,VWS V14.01,2013-06-01 18:01:00,
2013-06-01 14:02:00,78.5,68.3,29.93,WSW,250,10.5,13.5,71,0.00,,,0.00,VWS V14.01,2013-06-01 18:02:00,
2013-06-01 14:03:00,78.5,68.7,29.93,WSW,246,13.5,16.5,72,0.00,,,0.00,VWS V14.01,2013-06-01 18:03:00,
2013-06-01 14:04:00,78.5,68.7,29.93,WSW,241,10.5,16.5,72,0.00,,,0.00,VWS V14.01,2013-06-01 18:04:00,
2013-06-01 14:05:00,78.5,69.1,29.93,SSE,149,7.5,13.5,73,0.00,,,0.00,VWS V14.01,2013-06-01 18:05:00,
2013-06-01 14:06:00,78.6,69.6,29.93,WSW,257,3.0,9.0,74,0.00,,,0.00,VWS V14.01,2013-06-01 18:06:00,
2013-06-01 14:07:00,78.6,69.2,29.93,SW,231,15.0,16.5,73,0.00,,,0.00,VWS V14.01,2013-06-01 18:07:00,
2013-06-01 14:08:00,78.7,68.9,29.93,West,261,19.5,19.5,72,0.00,,,0.00,VWS V14.01,2013-06-01 18:08:00,
2013-06-01 14:09:00,78.7,68.9,29.93,WSW,247,15.0,19.5,72,0.00,,,0.00,VWS V14.01,2013-06-01 18:09:00,
2013-06-01 14:10:00,78.7,68.9,29.93,West,266,12.0,18.0,72,0.00,,,0.00,VWS V14.01,2013-06-01 18:10:00,
2013-06-01 14:11:00,78.7,68.9,29.93,West,278,7.5,18.0,72,0.00,,,0.00,VWS V14.01,2013-06-01 18:11:00,
2013-06-01 14:12:00,78.8,69.4,29.93,WNW,285,6.0,13.5,73,0.00,,,0.00,VWS V14.01,2013-06-01 18:12:00,
2013-06-01 14:13:00,78.9,69.5,29.93,WSW,251,10.5,18.0,73,0.00,,,0.00,VWS V14.01,2013-06-01 18:13:00,
2013-06-01 14:14:00,78.9,69.5,29.93,WSW,245,13.5,18.0,73,0.00,,,0.00,VWS V14.01,2013-06-01 18:14:00,
2013-06-01 14:15:00,78.9,69.1,29.93,SW,229,7.5,13.5,72,0.00,,,0.00,VWS V14.01,2013-06-01 18:15:00,
2013-06-01 14:16:00,79.0,69.6,29.93,SSE,153,4.5,9.0,73,0.00,,,0.00,VWS V14.01,2013-06-01 18:16:00,
2013-06-01 14:17:00,79.0,69.6,29.93,WSW,250,9.0,13.5,73,0.00,,,0.00,VWS V14.01,2013-06-01 18:17:00,
2013-06-01 14:18:00,79.1,69.3,29.93,WNW,293,9.0,13.5,72,0.00,,,0.00,VWS V14.01,2013-06-01 18:18:00,
2013-06-01 14:19:00,79.1,69.3,29.93,SW,226,10.5,13.5,72,0.00,,,0.00,VWS V14.01,2013-06-01 18:19:00,
2013-06-01 14:20:00,79.1,69.3,29.93,SW,219,12.0,12.0,72,0.00,,,0.00,VWS V14.01,2013-06-01 18:20:00,
2013-06-01 14:21:00,79.2,69.8,29.92,SSW,195,10.5,13.5,73,0.00,,,0.00,VWS V14.01,2013-06-01 18:21:00,
2013-06-01 14:22:00,79.2,69.4,29.93,SSW,203,7.5,10.5,72,0.00,,,0.00,VWS V14.01,2013-06-01 18:22:00,
2013-06-01 14:23:00,79.2,69.4,29.92,SSW,205,6.0,9.0,72,0.00,,,0.00,VWS V14.01,2013-06-01 18:23:00,
2013-06-01 14:24:00,79.3,69.5,29.92,SW,234,9.0,9.0,72,0.00,,,0.00,VWS V14.01,2013-06-01 18:24:00,
2013-06-01 14:25:00,79.3,69.5,29.92,WSW,244,9.0,15.0,72,0.00,,,0.00,VWS V14.01,2013-06-01 18:25:00,
2013-06-01 14:26:00,79.2,69.4,29.92,SW,223,9.0,13.5,72,0.00,,,0.00,VWS V14.01,2013-06-01 18:26:00,
2013-06-01 14:27:00,79.2,69.4,29.92,WSW,258,6.0,10.5,72,0.00,,,0.00,VWS V14.01,2013-06-01 18:27:00,
2013-06-01 14:28:00,79.2,69.8,29.92,WSW,253,6.0,6.0,73,0.00,,,0.00,VWS V14.01,2013-06-01 18:28:00,
2013-06-01 14:29:00,79.2,69.8,29.92,WSW,251,6.0,6.0,73,0.00,,,0.00,VWS V14.01,2013-06-01 18:29:00,
2013-06-01 14:30:00,79.3,69.9,29.92,West,272,6.0,9.0,73,0.00,,,0.00,VWS V14.01,2013-06-01 18:30:00,
2013-06-01 14:31:00,79.4,70.0,29.92,SSE,161,9.0,9.0,73,0.00,,,0.00,VWS V14.01,2013-06-01 18:31:00,
2013-06-01 14:32:00,79.4,70.0,29.92,West,269,12.0,15.0,73,0.00,,,0.00,VWS V14.01,2013-06-01 18:32:00,
2013-06-01 14:33:00,79.3,69.5,29.92,SW,231,9.0,15.0,72,0.00,,,0.00,VWS V14.01,2013-06-01 18:33:00,
2013-06-01 14:34:00,79.3,69.9,29.92,West,280,9.0,15.0,73,0.00,,,0.00,VWS V14.01,2013-06-01 18:34:00,
2013-06-01 14:35:00,79.3,69.9,29.92,SSW,213,12.0,16.5,73,0.00,,,0.00,VWS V14.01,2013-06-01 18:35:00,
2013-06-01 14:36:00,79.3,69.9,29.92,SSW,212,15.0,15.0,73,0.00,,,0.00,VWS V14.01,2013-06-01 18:36:00,
2013-06-01 14:37:00,79.2,69.8,29.92,West,266,9.0,15.0,73,0.00,,,0.00,VWS V14.01,2013-06-01 18:37:00,
2013-06-01 14:38:00,79.4,70.0,29.92,SSW,206,4.5,7.5,73,0.00,,,0.00,VWS V14.01,2013-06-01 18:38:00,
2013-06-01 14:39:00,79.4,70.0,29.92,SW,222,7.5,7.5,73,0.00,,,0.00,VWS V14.01,2013-06-01 18:39:00,
2013-06-01 14:40:00,79.5,70.5,29.92,East,101,4.5,7.5,74,0.00,,,0.00,VWS V14.01,2013-06-01 18:40:00,
2013-06-01 14:41:00,79.6,70.6,29.92,SW,217,9.0,10.5,74,0.00,,,0.00,VWS V14.01,2013-06-01 18:41:00,
2013-06-01 14:42:00,79.7,70.3,29.92,West,265,7.5,10.5,73,0.00,,,0.00,VWS V14.01,2013-06-01 18:42:00,
2013-06-01 14:43:00,79.8,70.8,29.92,SSW,201,12.0,13.5,74,0.00,,,0.00,VWS V14.01,2013-06-01 18:43:00,
2013-06-01 14:44:00,79.8,70.8,29.92,WSW,244,9.0,13.5,74,0.00,,,0.00,VWS V14.01,2013-06-01 18:44:00,
2013-06-01 14:45:00,79.9,70.5,29.92,WSW,238,10.5,18.0,73,0.00,,,0.00,VWS V14.01,2013-06-01 18:45:00,
2013-06-01 14:46:00,79.9,70.5,29.92,WSW,252,18.0,18.0,73,0.00,,,0.00,VWS V14.01,2013-06-01 18:46:00,
2013-06-01 14:47:00,79.9,70.1,29.91,SSW,209,6.0,18.0,72,0.00,,,0.00,VWS V14.01,2013-06-01 18:47:00,
2013-06-01 14:48:00,80.1,70.7,29.91,West,267,10.5,15.0,73,0.00,,,0.00,VWS V14.01,2013-06-01 18:48:00,
2013-06-01 14:49:00,80.1,70.7,29.91,SW,226,13.5,15.0,73,0.00,,,0.00,VWS V14.01,2013-06-01 18:49:00,
2013-06-01 14:50:00,80.3,71.3,29.91,SSW,207,4.5,15.0,74,0.00,,,0.00,VWS V14.01,2013-06-01 18:50:00,
2013-06-01 14:51:00,80.5,70.7,29.91,West,271,13.5,18.0,72,0.00,,,0.00,VWS V14.01,2013-06-01 18:51:00,
2013-06-01 14:52:00,80.6,70.8,29.91,WSW,258,12.0,16.5,72,0.00,,,0.00,VWS V14.01,2013-06-01 18:52:00,
2013-06-01 14:53:00,80.7,70.8,29.91,West,267,13.5,19.5,72,0.00,,,0.00,VWS V14.01,2013-06-01 18:53:00,
2013-06-01 14:54:00,80.7,70.8,29.91,West,267,7.5,19.5,72,0.00,,,0.00,VWS V14.01,2013-06-01 18:54:00,
2013-06-01 14:55:00,80.7,70.8,29.91,SW,229,19.5,21.0,72,0.00,,,0.00,VWS V14.01,2013-06-01 18:55:00,
2013-06-01 14:56:00,80.8,70.5,29.91,WSW,250,12.0,21.0,71,0.00,,,0.00,VWS V14.01,2013-06-01 18:56:00,
2013-06-01 14:57:00,80.8,70.9,29.91,SSE,149,4.5,12.0,72,0.00,,,0.00,VWS V14.01,2013-06-01 18:57:00,
2013-06-01 14:58:00,80.9,70.6,29.91,SW,231,12.0,12.0,71,0.00,,,0.00,VWS V14.01,2013-06-01 18:58:00,
2013-06-01 14:59:00,80.9,71.0,29.91,WSW,244,13.5,13.5,72,0.00,,,0.00,VWS V14.01,2013-06-01 18:59:00,
2013-06-01 15:00:00,81.0,71.1,29.91,WSW,247,12.0,19.5,72,0.00,,,0.00,VWS V14.01,2013-06-01 19:00:00,
2013-06-01 15:01:00,81.0,70.7,29.91,WSW,241,16.5,16.5,71,0.00,,,0.00,VWS V14.01,2013-06-01 19:01:00,
2013-06-01 15:02:00,81.0,70.7,29.91,SW,229,10.5,24.0,71,0.00,,,0.00,VWS V14.01,2013-06-01 19:02:00,
2013-06-01 15:03:00,81.0,70.7,29.91,WSW,244,21.0,21.0,71,0.00,,,0.00,VWS V14.01,2013-06-01 19:03:00,
2013-06-01 15:04:00,81.1,70.8,29.91,SSW,196,21.0,22.5,71,0.00,,,0.00,VWS V14.01,2013-06-01 19:04:00,
2013-06-01 15:05:00,81.1,70.8,29.91,SSW,206,10.5,21.0,71,0.00,,,0.00,VWS V14.01,2013-06-01 19:05:00,
2013-06-01 15:06:00,81.1,70.8,29.91,SW,226,16.5,21.0,71,0.00,,,0.00,VWS V14.01,2013-06-01 19:06:00,
2013-06-01 15:07:00,81.1,70.8,29.91,SW,234,10.5,19.5,71,0.00,,,0.00,VWS V14.01,2013-06-01 19:07:00,
2013-06-01 15:08:00,81.1,70.8,29.91,SW,236,16.5,16.5,71,0.00,,,0.00,VWS V14.01,2013-06-01 19:08:00,
2013-06-01 15:09:00,81.1,70.8,29.91,SW,222,21.0,21.0,71,0.00,,,0.00,VWS V14.01,2013-06-01 19:09:00,
2013-06-01 15:10:00,81.2,71.3,29.91,WSW,241,21.0,22.5,72,0.00,,,0.00,VWS V14.01,2013-06-01 19:10:00,
2013-06-01 15:11:00,81.4,71.1,29.91,WSW,237,13.5,24.0,71,0.00,,,0.00,VWS V14.01,2013-06-01 19:11:00,
2013-06-01 15:12:00,81.5,71.6,29.91,WSW,240,16.5,18.0,72,0.00,,,0.00,VWS V14.01,2013-06-01 19:12:00,
2013-06-01 15:13:00,81.6,70.4,29.91,SSW,212,15.0,25.5,69,0.00,,,0.00,VWS V14.01,2013-06-01 19:13:00,
2013-06-01 15:14:00,81.6,70.4,29.91,SSW,212,21.0,25.5,69,0.00,,,0.00,VWS V14.01,2013-06-01 19:14:00,
2013-06-01 15:15:00,81.5,70.4,29.91,WSW,251,27.0,27.0,69,0.00,,,0.00,VWS V14.01,2013-06-01 19:15:00,
2013-06-01 15:16:00,81.4,70.3,29.91,WSW,247,15.0,27.0,69,0.00,,,0.00,VWS V14.01,2013-06-01 19:16:00,
2013-06-01 15:17:00,81.4,70.7,29.91,WSW,248,22.5,22.5,70,0.00,,,0.00,VWS V14.01,2013-06-01 19:17:00,
2013-06-01 15:18:00,81.4,70.7,29.91,WSW,248,12.0,16.5,70,0.00,,,0.00,VWS V14.01,2013-06-01 19:18:00,
2013-06-01 15:19:00,81.4,71.1,29.91,West,269,10.5,16.5,71,0.00,,,0.00,VWS V14.01,2013-06-01 19:19:00,
2013-06-01 15:20:00,81.4,71.5,29.91,South,186,15.0,15.0,72,0.00,,,0.00,VWS V14.01,2013-06-01 19:20:00,
2013-06-01 15:21:00,81.4,71.1,29.91,SSE,154,16.5,24.0,71,0.00,,,0.00,VWS V14.01,2013-06-01 19:21:00,
2013-06-01 15:22:00,81.3,70.2,29.91,WSW,239,15.0,24.0,69,0.00,,,0.00,VWS V14.01,2013-06-01 19:22:00,
2013-06-01 15:23:00,81.3,71.0,29.91,WSW,239,16.5,21.0,71,0.00,,,0.00,VWS V14.01,2013-06-01 19:23:00,
2013-06-01 15:24:00,81.2,70.5,29.91,WSW,255,18.0,21.0,70,0.00,,,0.00,VWS V14.01,2013-06-01 19:24:00,
2013-06-01 15:25:00,81.1,70.4,29.91,West,268,18.0,18.0,70,0.00,,,0.00,VWS V14.01,2013-06-01 19:25:00,
2013-06-01 15:26:00,81.1,70.8,29.91,WSW,239,18.0,18.0,71,0.00,,,0.00,VWS V14.01,2013-06-01 19:26:00,
2013-06-01 15:27:00,81.2,71.3,29.91,WSW,258,21.0,21.0,72,0.00,,,0.00,VWS V14.01,2013-06-01 19:27:00,
2013-06-01 15:28:00,81.3,71.0,29.91,West,278,15.0,15.0,71,0.00,,,0.00,VWS V14.01,2013-06-01 19:28:00,
2013-06-01 15:29:00,81.3,71.0,29.91,SW,216,18.0,24.0,71,0.00,,,0.00,VWS V14.01,2013-06-01 19:29:00,
2013-06-01 15:30:00,81.3,71.0,29.90,SW,225,19.5,19.5,71,0.00,,,0.00,VWS V14.01,2013-06-01 19:30:00,
2013-06-01 15:31:00,81.4,71.5,29.90,WSW,245,13.5,19.5,72,0.00,,,0.00,VWS V14.01,2013-06-01 19:31:00,
2013-06-01 15:32:00,81.3,71.0,29.90,WSW,250,18.0,24.0,71,0.00,,,0.00,VWS V14.01,2013-06-01 19:32:00,
2013-06-01 15:33:00,81.2,70.9,29.90,West,262,18.0,24.0,71,0.00,,,0.00,VWS V14.01,2013-06-01 19:33:00,
2013-06-01 15:34:00,81.2,70.9,29.90,West,264,22.5,24.0,71,0.00,,,0.00,VWS V14.01,2013-06-01 19:34:00,
2013-06-01 15:35:00,81.2,70.9,29.90,West,262,12.0,22.5,71,0.00,,,0.00,VWS V14.01,2013-06-01 19:35:00,
2013-06-01 15:36:00,81.3,71.4,29.90,WSW,254,9.0,13.5,72,0.00,,,0.00,VWS V14.01,2013-06-01 19:36:00,
2013-06-01 15:37:00,81.3,71.0,29.90,WSW,246,19.5,19.5,71,0.00,,,0.00,VWS V14.01,2013-06-01 19:37:00,
2013-06-01 15:38:00,81.2,70.9,29.90,SW,232,12.0,22.5,71,0.00,,,0.00,VWS V14.01,2013-06-01 19:38:00,
2013-06-01 15:39:00,81.2,71.3,29.90,WSW,247,10.5,22.5,72,0.00,,,0.00,VWS V14.01,2013-06-01 19:39:00,
2013-06-01 15:40:00,81.3,71.0,29.90,West,265,18.0,19.5,71,0.00,,,0.00,VWS V14.01,2013-06-01 19:40:00,
2013-06-01 15:41:00,81.4,71.5,29.89,SW,229,22.5,22.5,72,0.00,,,0.00,VWS V14.01,2013-06-01 19:41:00,
2013-06-01 15:42:00,81.4,71.1,29.89,SW,225,9.0,22.5,71,0.00,,,0.00,VWS V14.01,2013-06-01 19:42:00,
2013-06-01 15:43:00,81.5,71.6,29.89,West,265,9.0,10.5,72,0.00,,,0.00,VWS V14.01,2013-06-01 19:43:00,
2013-06-01 15:44:00,81.5,71.2,29.90,WSW,244,18.0,18.0,71,0.00,,,0.00,VWS V14.01,2013-06-01 19:44:00,
2013-06-01 15:45:00,81.5,70.8,29.90,SW,225,13.5,21.0,70,0.00,,,0.00,VWS V14.01,2013-06-01 19:45:00,
2013-06-01 15:46:00,81.5,70.8,29.90,WSW,243,12.0,24.0,70,0.00,,,0.00,VWS V14.01,2013-06-01 19:46:00,
2013-06-01 15:47:00,81.4,71.1,29.90,SW,227,15.0,15.0,71,0.00,,,0.00,VWS V14.01,2013-06-01 19:47:00,
2013-06-01 15:48:00,81.4,71.5,29.90,SW,223,6.0,12.0,72,0.00,,,0.00,VWS V14.01,2013-06-01 19:48:00,
2013-06-01 15:49:00,81.5,71.6,29.90,WSW,237,7.5,12.0,72,0.00,,,0.00,VWS V14.01,2013-06-01 19:49:00,
2013-06-01 15:50:00,81.6,71.3,29.89,SW,231,16.5,16.5,71,0.00,,,0.00,VWS V14.01,2013-06-01 19:50:00,
2013-06-01 15:51:00,81.6,71.3,29.89,WSW,237,19.5,19.5,71,0.00,,,0.00,VWS V14.01,2013-06-01 19:51:00,
2013-06-01 15:52:00,81.6,71.3,29.89,SW,234,9.0,19.5,71,0.00,,,0.00,VWS V14.01,2013-06-01 19:52:00,
2013-06-01 15:53:00,81.7,71.8,29.89,WSW,246,10.5,13.5,72,0.00,,,0.00,VWS V14.01,2013-06-01 19:53:00,
2013-06-01 15:54:00,81.8,71.9,29.89,South,186,12.0,13.5,72,0.00,,,0.00,VWS V14.01,2013-06-01 19:54:00,
2013-06-01 15:55:00,81.9,71.6,29.89,SW,226,7.5,12.0,71,0.00,,,0.00,VWS V14.01,2013-06-01 19:55:00,
2013-06-01 15:56:00,82.0,71.7,29.89,West,259,7.5,13.5,71,0.00,,,0.00,VWS V14.01,2013-06-01 19:56:00,
2013-06-01 15:57:00,82.1,71.8,29.89,West,268,6.0,15.0,71,0.00,,,0.00,VWS V14.01,2013-06-01 19:57:00,
2013-06-01 15:58:00,82.3,71.5,29.89,WSW,246,13.5,13.5,70,0.00,,,0.00,VWS V14.01,2013-06-01 19:58:00,
2013-06-01 15:59:00,82.3,71.5,29.89,SSW,212,10.5,13.5,70,0.00,,,0.00,VWS V14.01,2013-06-01 19:59:00,
2013-06-01 16:00:00,82.3,71.1,29.89,SW,226,16.5,19.5,69,0.00,,,0.00,VWS V14.01,2013-06-01 20:00:00,
2013-06-01 16:01:00,82.2,70.6,29.89,WSW,241,16.5,21.0,68,0.00,,,0.00,VWS V14.01,2013-06-01 20:01:00,
2013-06-01 16:02:00,82.1,70.5,29.89,SSW,202,16.5,25.5,68,0.00,,,0.00,VWS V14.01,2013-06-01 20:02:00,
2013-06-01 16:03:00,81.9,70.7,29.89,WSW,237,21.0,21.0,69,0.00,,,0.00,VWS V14.01,2013-06-01 20:03:00,
2013-06-01 16:04:00,81.9,70.7,29.89,WSW,254,15.0,21.0,69,0.00,,,0.00,VWS V14.01,2013-06-01 20:04:00,
2013-06-01 16:05:00,81.8,70.6,29.88,SW,232,16.5,18.0,69,0.00,,,0.00,VWS V14.01,2013-06-01 20:05:00,
2013-06-01 16:06:00,81.7,70.6,29.88,SW,230,15.0,16.5,69,0.00,,,0.00,VWS V14.01,2013-06-01 20:06:00,
2013-06-01 16:07:00,81.6,70.4,29.88,SSW,203,15.0,18.0,69,0.00,,,0.00,VWS V14.01,2013-06-01 20:07:00,
2013-06-01 16:08:00,81.4,70.3,29.88,WSW,255,12.0,18.0,69,0.00,,,0.00,VWS V14.01,2013-06-01 20:08:00,
2013-06-01 16:09:00,81.4,70.7,29.88,WSW,252,21.0,21.0,70,0.00,,,0.00,VWS V14.01,2013-06-01 20:09:00,
2013-06-01 16:10:00,81.3,70.6,29.88,SW,227,10.5,21.0,70,0.00,,,0.00,VWS V14.01,2013-06-01 20:10:00,
2013-06-01 16:11:00,81.3,70.6,29.88,WSW,250,4.5,10.5,70,0.00,,,0.00,VWS V14.01,2013-06-01 20:11:00,
2013-06-01 16:12:00,81.4,71.1,29.88,WSW,241,13.5,16.5,71,0.00,,,0.00,VWS V14.01,2013-06-01 20:12:00,
2013-06-01 16:13:00,81.3,70.6,29.88,SW,224,12.0,18.0,70,0.00,,,0.00,VWS V14.01,2013-06-01 20:13:00,
2013-06-01 16:14:00,81.4,70.7,29.88,SSW,212,9.0,18.0,70,0.00,,,0.00,VWS V14.01,2013-06-01 20:14:00,
2013-06-01 16:15:00,81.4,71.1,29.88,WSW,253,15.0,18.0,71,0.00,,,0.00,VWS V14.01,2013-06-01 20:15:00,
2013-06-01 16:16:00,81.4,70.7,29.88,WSW,253,9.0,16.5,70,0.00,,,0.00,VWS V14.01,2013-06-01 20:16:00,
2013-06-01 16:17:00,81.5,71.2,29.87,WSW,241,12.0,12.0,71,0.00,,,0.00,VWS V14.01,2013-06-01 20:17:00,
2013-06-01 16:18:00,81.6,70.9,29.87,SW,234,13.5,19.5,70,0.00,,,0.00,VWS V14.01,2013-06-01 20:18:00,
2013-06-01 16:19:00,81.6,70.9,29.87,SW,225,9.0,19.5,70,0.00,,,0.00,VWS V14.01,2013-06-01 20:19:00,
2013-06-01 16:20:00,81.6,71.3,29.87,WSW,244,10.5,12.0,71,0.00,,,0.00,VWS V14.01,2013-06-01 20:20:00,
2013-06-01 16:21:00,81.7,71.4,29.87,South,181,15.0,15.0,71,0.00,,,0.00,VWS V14.01,2013-06-01 20:21:00,
2013-06-01 16:22:00,81.8,71.1,29.87,WSW,241,10.5,18.0,70,0.00,,,0.00,VWS V14.01,2013-06-01 20:22:00,
2013-06-01 16:23:00,81.8,71.1,29.87,WSW,251,19.5,19.5,70,0.00,,,0.00,VWS V14.01,2013-06-01 20:23:00,
2013-06-01 16:24:00,81.8,71.5,29.87,West,262,7.5,19.5,71,0.00,,,0.00,VWS V14.01,2013-06-01 20:24:00,
2013-06-01 16:25:00,81.8,71.1,29.87,WSW,248,18.0,21.0,70,0.00,,,0.00,VWS V14.01,2013-06-01 20:25:00,
2013-06-01 16:26:00,81.8,71.1,29.87,WSW,237,15.0,18.0,70,0.00,,,0.00,VWS V14.01,2013-06-01 20:26:00,
2013-06-01 16:27:00,81.8,71.1,29.87,SW,231,13.5,15.0,70,0.00,,,0.00,VWS V14.01,2013-06-01 20:27:00,
2013-06-01 16:28:00,81.8,71.1,29.87,SW,230,10.5,10.5,70,0.00,,,0.00,VWS V14.01,2013-06-01 20:28:00,
2013-06-01 16:29:00,81.8,71.1,29.87,SSW,212,10.5,18.0,70,0.00,,,0.00,VWS V14.01,2013-06-01 20:29:00,
2013-06-01 16:30:00,81.8,71.1,29.87,WSW,247,10.5,16.5,70,0.00,,,0.00,VWS V14.01,2013-06-01 20:30:00,
2013-06-01 16:31:00,81.8,71.1,29.87,West,269,12.0,16.5,70,0.00,,,0.00,VWS V14.01,2013-06-01 20:31:00,
2013-06-01 16:32:00,81.8,71.1,29.87,WSW,240,9.0,12.0,70,0.00,,,0.00,VWS V14.01,2013-06-01 20:32:00,
2013-06-01 16:33:00,81.8,71.1,29.87,SSW,206,4.5,9.0,70,0.00,,,0.00,VWS V14.01,2013-06-01 20:33:00,
2013-06-01 16:34:00,81.8,71.5,29.87,SSW,212,10.5,10.5,71,0.00,,,0.00,VWS V14.01,2013-06-01 20:34:00,
2013-06-01 16:35:00,81.9,71.2,29.87,South,188,4.5,13.5,70,0.00,,,0.00,VWS V14.01,2013-06-01 20:35:00,
2013-06-01 16:36:00,81.9,71.6,29.86,SW,226,6.0,9.0,71,0.00,,,0.00,VWS V14.01,2013-06-01 20:36:00,
2013-06-01 16:37:00,81.9,71.2,29.87,SW,216,7.5,15.0,70,0.00,,,0.00,VWS V14.01,2013-06-01 20:37:00,
2013-06-01 16:38:00,81.9,71.2,29.86,SW,234,16.5,16.5,70,0.00,,,0.00,VWS V14.01,2013-06-01 20:38:00,
2013-06-01 16:39:00,82.0,71.3,29.86,SW,215,4.5,16.5,70,0.00,,,0.00,VWS V14.01,2013-06-01 20:39:00,
2013-06-01 16:40:00,82.0,71.7,29.86,WSW,255,7.5,9.0,71,0.00,,,0.00,VWS V14.01,2013-06-01 20:40:00,
2013-06-01 16:41:00,82.0,71.7,29.86,WSW,253,9.0,10.5,71,0.00,,,0.00,VWS V14.01,2013-06-01 20:41:00,
2013-06-01 16:42:00,82.0,71.3,29.86,SSW,198,12.0,15.0,70,0.00,,,0.00,VWS V14.01,2013-06-01 20:42:00,
2013-06-01 16:43:00,81.9,71.2,29.86,SSW,206,10.5,19.5,70,0.00,,,0.00,VWS V14.01,2013-06-01 20:43:00,
2013-06-01 16:44:00,81.9,71.2,29.86,SW,223,9.0,19.5,70,0.00,,,0.00,VWS V14.01,2013-06-01 20:44:00,
2013-06-01 16:45:00,81.8,71.1,29.86,SW,219,15.0,15.0,70,0.00,,,0.00,VWS V14.01,2013-06-01 20:45:00,
2013-06-01 16:46:00,81.8,71.5,29.86,SW,235,12.0,16.5,71,0.00,,,0.00,VWS V14.01,2013-06-01 20:46:00,
2013-06-01 16:47:00,81.6,71.7,29.86,SW,224,15.0,16.5,72,0.00,,,0.00,VWS V14.01,2013-06-01 20:47:00,
2013-06-01 16:48:00,81.4,71.5,29.86,West,276,12.0,15.0,72,0.00,,,0.00,VWS V14.01,2013-06-01 20:48:00,
2013-06-01 16:49:00,81.2,71.3,29.86,WSW,241,10.5,15.0,72,0.00,,,0.00,VWS V14.01,2013-06-01 20:49:00,
2013-06-01 16:50:00,81.1,72.0,29.86,WSW,237,12.0,15.0,74,0.00,,,0.00,VWS V14.01,2013-06-01 20:50:00,
2013-06-01 16:51:00,80.9,71.8,29.86,West,261,3.0,12.0,74,0.00,,,0.00,VWS V14.01,2013-06-01 20:51:00,
2013-06-01 16:52:00,80.7,71.7,29.86,WSW,255,6.0,12.0,74,0.00,,,0.00,VWS V14.01,2013-06-01 20:52:00,
2013-06-01 16:53:00,80.5,71.8,29.86,West,265,6.0,6.0,75,0.00,,,0.00,VWS V14.01,2013-06-01 20:53:00,
2013-06-01 16:54:00,80.4,72.2,29.86,SW,229,9.0,10.5,76,0.00,,,0.00,VWS V14.01,2013-06-01 20:54:00,
2013-06-01 16:55:00,80.3,72.1,29.86,WNW,301,6.0,9.0,76,0.00,,,0.00,VWS V14.01,2013-06-01 20:55:00,
2013-06-01 16:56:00,80.1,71.9,29.86,West,273,6.0,9.0,76,0.00,,,0.00,VWS V14.01,2013-06-01 20:56:00,
2013-06-01 16:57:00,80.0,72.2,29.86,West,264,9.0,9.0,77,0.00,,,0.00,VWS V14.01,2013-06-01 20:57:00,
2013-06-01 16:58:00,79.7,71.9,29.86,West,275,7.5,9.0,77,0.00,,,0.00,VWS V14.01,2013-06-01 20:58:00,
2013-06-01 16:59:00,79.6,71.8,29.86,WSW,257,7.5,10.5,77,0.00,,,0.00,VWS V14.01,2013-06-01 20:59:00,
2013-06-01 17:00:00,79.4,71.9,29.86,SW,223,4.5,9.0,78,0.01,,,0.01,VWS V14.01,2013-06-01 21:00:00,
2013-06-01 17:01:00,79.3,72.2,29.86,WNW,282,6.0,9.0,79,0.03,,,0.03,VWS V14.01,2013-06-01 21:01:00,
2013-06-01 17:02:00,79.0,72.3,29.86,West,265,7.5,12.0,80,0.03,,,0.03,VWS V14.01,2013-06-01 21:02:00,
2013-06-01 17:03:00,78.7,72.4,29.87,WSW,237,10.5,12.0,81,0.04,,,0.04,VWS V14.01,2013-06-01 21:03:00,
2013-06-01 17:04:00,78.4,72.1,29.87,WSW,243,15.0,15.0,81,0.04,,,0.04,VWS V14.01,2013-06-01 21:04:00,
2013-06-01 17:05:00,78.0,72.1,29.87,West,264,15.0,16.5,82,0.04,,,0.04,VWS V14.01,2013-06-01 21:05:00,
2013-06-01 17:06:00,77.6,72.0,29.88,West,281,13.5,22.5,83,0.07,,,0.07,VWS V14.01,2013-06-01 21:06:00,
2013-06-01 17:07:00,77.2,72.0,29.88,WSW,246,15.0,18.0,84,0.11,,,0.11,VWS V14.01,2013-06-01 21:07:00,
2013-06-01 17:08:00,76.6,72.1,29.87,SW,220,7.5,9.0,86,0.18,,,0.18,VWS V14.01,2013-06-01 21:08:00,
2013-06-01 17:09:00,76.3,72.2,29.87,West,276,10.5,13.5,87,0.22,,,0.22,VWS V14.01,2013-06-01 21:09:00,
2013-06-01 17:10:00,75.9,72.1,29.87,WNW,302,7.5,12.0,88,0.28,,,0.28,VWS V14.01,2013-06-01 21:10:00,
2013-06-01 17:11:00,75.6,72.1,29.86,West,273,7.5,9.0,89,0.32,,,0.32,VWS V14.01,2013-06-01 21:11:00,
2013-06-01 17:12:00,75.3,71.5,29.86,West,272,9.0,15.0,88,0.32,,,0.32,VWS V14.01,2013-06-01 21:12:00,
2013-06-01 17:13:00,75.0,71.9,29.87,WSW,258,4.5,7.5,90,0.32,,,0.32,VWS V14.01,2013-06-01 21:13:00,
2013-06-01 17:14:00,74.9,71.8,29.87,West,265,7.5,10.5,90,0.32,,,0.32,VWS V14.01,2013-06-01 21:14:00,
2013-06-01 17:15:00,74.7,71.6,29.86,NW,308,7.5,9.0,90,0.32,,,0.32,VWS V14.01,2013-06-01 21:15:00,
2013-06-01 17:16:00,74.6,71.8,29.86,WSW,241,9.0,13.5,91,0.32,,,0.32,VWS V14.01,2013-06-01 21:16:00,
2013-06-01 17:17:00,74.4,71.6,29.86,NW,305,4.5,9.0,91,0.32,,,0.32,VWS V14.01,2013-06-01 21:17:00,
2013-06-01 17:18:00,74.4,71.6,29.86,West,280,1.5,3.0,91,0.32,,,0.32,VWS V14.01,2013-06-01 21:18:00,
2013-06-01 17:19:00,74.4,71.9,29.86,West,274,3.0,3.0,92,0.32,,,0.32,VWS V14.01,2013-06-01 21:19:00,
2013-06-01 17:20:00,74.3,71.8,29.86,WSW,252,3.0,3.0,92,0.32,,,0.32,VWS V14.01,2013-06-01 21:20:00,
2013-06-01 17:21:00,74.3,71.8,29.86,WSW,254,1.5,4.5,92,0.32,,,0.32,VWS V14.01,2013-06-01 21:21:00,
2013-06-01 17:22:00,74.3,71.8,29.86,West,259,6.0,6.0,92,0.32,,,0.32,VWS V14.01,2013-06-01 21:22:00,
2013-06-01 17:23:00,74.2,71.4,29.86,WSW,255,3.0,3.0,91,0.32,,,0.32,VWS V14.01,2013-06-01 21:23:00,
2013-06-01 17:24:00,74.2,71.4,29.86,WSW,255,1.5,3.0,91,0.32,,,0.32,VWS V14.01,2013-06-01 21:24:00,
2013-06-01 17:25:00,74.2,71.7,29.86,WSW,246,3.0,3.0,92,0.32,,,0.32,VWS V14.01,2013-06-01 21:25:00,
2013-06-01 17:26:00,74.2,71.7,29.86,SW,225,3.0,4.5,92,0.32,,,0.32,VWS V14.01,2013-06-01 21:26:00,
2013-06-01 17:27:00,74.1,71.3,29.87,SW,225,1.5,3.0,91,0.32,,,0.32,VWS V14.01,2013-06-01 21:27:00,
2013-06-01 17:28:00,74.1,71.3,29.87,WSW,248,4.5,4.5,91,0.32,,,0.32,VWS V14.01,2013-06-01 21:28:00,
2013-06-01 17:29:00,74.1,71.3,29.86,WSW,245,3.0,4.5,91,0.32,,,0.32,VWS V14.01,2013-06-01 21:29:00,
2013-06-01 17:30:00,74.1,71.6,29.86,WSW,244,1.5,3.0,92,0.32,,,0.32,VWS V14.01,2013-06-01 21:30:00,
2013-06-01 17:31:00,74.1,71.6,29.86,WSW,237,3.0,3.0,92,0.32,,,0.32,VWS V14.01,2013-06-01 21:31:00,
2013-06-01 17:32:00,74.2,71.4,29.86,WSW,254,3.0,4.5,91,0.32,,,0.32,VWS V14.01,2013-06-01 21:32:00,
2013-06-01 17:33:00,74.2,71.7,29.86,WSW,248,1.5,1.5,92,0.32,,,0.32,VWS V14.01,2013-06-01 21:33:00,
2013-06-01 17:34:00,74.3,71.8,29.86,WSW,250,1.5,1.5,92,0.32,,,0.32,VWS V14.01,2013-06-01 21:34:00,
2013-06-01 17:35:00,74.3,71.8,29.86,SW,234,1.5,3.0,92,0.32,,,0.32,VWS V14.01,2013-06-01 21:35:00,
2013-06-01 17:36:00,74.4,71.9,29.86,WSW,258,1.5,1.5,92,0.32,,,0.32,VWS V14.01,2013-06-01 21:36:00,
2013-06-01 17:37:00,74.4,71.9,29.86,West,259,1.5,1.5,92,0.32,,,0.32,VWS V14.01,2013-06-01 21:37:00,
2013-06-01 17:38:00,74.5,72.0,29.87,SW,234,4.5,4.5,92,0.32,,,0.32,VWS V14.01,2013-06-01 21:38:00,
2013-06-01 17:39:00,74.5,72.0,29.87,SW,229,9.0,9.0,92,0.32,,,0.32,VWS V14.01,2013-06-01 21:39:00,
2013-06-01 17:40:00,74.6,71.8,29.87,SSW,196,6.0,9.0,91,0.32,,,0.32,VWS V14.01,2013-06-01 21:40:00,
2013-06-01 17:41:00,74.6,71.8,29.87,SSW,198,4.5,6.0,91,0.33,,,0.33,VWS V14.01,2013-06-01 21:41:00,
2013-06-01 17:42:00,74.6,71.8,29.87,SE,131,3.0,4.5,91,0.33,,,0.33,VWS V14.01,2013-06-01 21:42:00,
2013-06-01 17:43:00,74.6,71.8,29.87,SSE,156,1.5,1.5,91,0.33,,,0.33,VWS V14.01,2013-06-01 21:43:00,
2013-06-01 17:44:00,74.7,72.2,29.87,SE,144,4.5,4.5,92,0.33,,,0.33,VWS V14.01,2013-06-01 21:44:00,
2013-06-01 17:45:00,74.7,72.2,29.86,South,174,4.5,6.0,92,0.33,,,0.33,VWS V14.01,2013-06-01 21:45:00,
2013-06-01 17:46:00,74.7,72.2,29.86,SE,139,3.0,4.5,92,0.33,,,0.33,VWS V14.01,2013-06-01 21:46:00,
2013-06-01 17:47:00,74.7,72.2,29.86,SE,137,1.5,4.5,92,0.33,,,0.33,VWS V14.01,2013-06-01 21:47:00,
2013-06-01 17:48:00,74.8,72.3,29.86,SW,226,1.5,3.0,92,0.33,,,0.33,VWS V14.01,2013-06-01 21:48:00,
2013-06-01 17:49:00,74.8,72.3,29.86,South,190,3.0,3.0,92,0.33,,,0.33,VWS V14.01,2013-06-01 21:49:00,
2013-06-01 17:50:00,74.8,72.3,29.86,SE,126,1.5,3.0,92,0.33,,,0.33,VWS V14.01,2013-06-01 21:50:00,
2013-06-01 17:51:00,74.9,72.4,29.86,SE,146,1.5,6.0,92,0.33,,,0.33,VWS V14.01,2013-06-01 21:51:00,
2013-06-01 17:52:00,74.9,72.4,29.86,SSE,154,1.5,6.0,92,0.33,,,0.33,VWS V14.01,2013-06-01 21:52:00,
2013-06-01 17:53:00,74.9,72.4,29.85,SSE,155,1.5,1.5,92,0.33,,,0.33,VWS V14.01,2013-06-01 21:53:00,
2013-06-01 17:54:00,74.9,72.4,29.85,SE,130,3.0,3.0,92,0.33,,,0.33,VWS V14.01,2013-06-01 21:54:00,
2013-06-01 17:55:00,74.9,72.4,29.85,SSE,165,3.0,3.0,92,0.33,,,0.33,VWS V14.01,2013-06-01 21:55:00,
2013-06-01 17:56:00,74.9,72.4,29.86,SW,220,4.5,4.5,92,0.33,,,0.33,VWS V14.01,2013-06-01 21:56:00,
2013-06-01 17:57:00,75.0,72.5,29.85,SSW,196,1.5,4.5,92,0.33,,,0.33,VWS V14.01,2013-06-01 21:57:00,
2013-06-01 17:58:00,75.0,72.5,29.85,SSW,196,1.5,1.5,92,0.33,,,0.33,VWS V14.01,2013-06-01 21:58:00,
2013-06-01 17:59:00,75.0,72.5,29.85,SW,216,1.5,1.5,92,0.33,,,0.33,VWS V14.01,2013-06-01 21:59:00,
2013-06-01 18:00:00,75.0,72.5,29.85,SW,215,1.5,3.0,92,0.33,,,0.33,VWS V14.01,2013-06-01 22:00:00,
2013-06-01 18:01:00,75.0,72.5,29.85,SSW,196,4.5,6.0,92,0.32,,,0.33,VWS V14.01,2013-06-01 22:01:00,
2013-06-01 18:02:00,75.0,72.5,29.85,SSW,201,1.5,4.5,92,0.30,,,0.33,VWS V14.01,2013-06-01 22:02:00,
2013-06-01 18:03:00,75.0,72.5,29.85,WSW,253,3.0,4.5,92,0.29,,,0.33,VWS V14.01,2013-06-01 22:03:00,
2013-06-01 18:04:00,75.0,72.5,29.85,SW,233,1.5,4.5,92,0.29,,,0.33,VWS V14.01,2013-06-01 22:04:00,
2013-06-01 18:05:00,75.0,72.5,29.85,SW,233,1.5,1.5,92,0.29,,,0.33,VWS V14.01,2013-06-01 22:05:00,
2013-06-01 18:06:00,75.1,72.6,29.85,WSW,255,3.0,3.0,92,0.29,,,0.33,VWS V14.01,2013-06-01 22:06:00,
2013-06-01 18:07:00,75.1,72.6,29.85,WSW,248,1.5,4.5,92,0.26,,,0.33,VWS V14.01,2013-06-01 22:07:00,
2013-06-01 18:08:00,75.1,72.6,29.85,South,174,1.5,1.5,92,0.15,,,0.33,VWS V14.01,2013-06-01 22:08:00,
2013-06-01 18:09:00,75.1,72.6,29.85,SSW,211,6.0,6.0,92,0.15,,,0.33,VWS V14.01,2013-06-01 22:09:00,
2013-06-01 18:10:00,75.1,72.6,29.86,SSW,203,1.5,6.0,92,0.11,,,0.33,VWS V14.01,2013-06-01 22:10:00,
2013-06-01 18:11:00,75.1,72.6,29.86,WSW,240,1.5,3.0,92,0.05,,,0.33,VWS V14.01,2013-06-01 22:11:00,
2013-06-01 18:12:00,75.1,72.6,29.86,West,271,3.0,4.5,92,0.01,,,0.33,VWS V14.01,2013-06-01 22:12:00,
2013-06-01 18:13:00,75.1,72.6,29.85,SSW,203,4.5,6.0,92,0.01,,,0.33,VWS V14.01,2013-06-01 22:13:00,
2013-06-01 18:14:00,75.1,72.3,29.85,SSW,213,4.5,6.0,91,0.01,,,0.33,VWS V14.01,2013-06-01 22:14:00,
2013-06-01 18:15:00,75.1,72.3,29.85,SW,219,1.5,4.5,91,0.01,,,0.33,VWS V14.01,2013-06-01 22:15:00,
2013-06-01 18:16:00,75.1,72.3,29.85,WSW,237,3.0,4.5,91,0.01,,,0.33,VWS V14.01,2013-06-01 22:16:00,
2013-06-01 18:17:00,75.1,72.3,29.85,SW,216,4.5,4.5,91,0.01,,,0.33,VWS V14.01,2013-06-01 22:17:00,
2013-06-01 18:18:00,75.2,72.4,29.86,WSW,237,4.5,6.0,91,0.01,,,0.33,VWS V14.01,2013-06-01 22:18:00,
2013-06-01 18:19:00,75.2,72.4,29.86,WSW,240,7.5,9.0,91,0.01,,,0.33,VWS V14.01,2013-06-01 22:19:00,
2013-06-01 18:20:00,75.2,72.4,29.86,SW,216,3.0,9.0,91,0.01,,,0.33,VWS V14.01,2013-06-01 22:20:00,
2013-06-01 18:21:00,75.2,72.7,29.86,WSW,238,6.0,6.0,92,0.01,,,0.33,VWS V14.01,2013-06-01 22:21:00,
2013-06-01 18:22:00,75.2,72.4,29.86,SW,220,4.5,7.5,91,0.01,,,0.33,VWS V14.01,2013-06-01 22:22:00,
2013-06-01 18:23:00,75.2,72.4,29.86,SW,231,4.5,7.5,91,0.01,,,0.33,VWS V14.01,2013-06-01 22:23:00,
2013-06-01 18:24:00,75.2,72.7,29.85,WSW,253,4.5,6.0,92,0.01,,,0.33,VWS V14.01,2013-06-01 22:24:00,
2013-06-01 18:25:00,75.2,72.4,29.85,WSW,241,3.0,4.5,91,0.01,,,0.33,VWS V14.01,2013-06-01 22:25:00,
2013-06-01 18:26:00,75.2,72.4,29.86,SW,228,6.0,6.0,91,0.01,,,0.33,VWS V14.01,2013-06-01 22:26:00,
2013-06-01 18:27:00,75.2,72.7,29.86,SW,220,7.5,7.5,92,0.01,,,0.33,VWS V14.01,2013-06-01 22:27:00,
2013-06-01 18:28:00,75.2,72.7,29.86,SW,227,6.0,6.0,92,0.01,,,0.33,VWS V14.01,2013-06-01 22:28:00,
2013-06-01 18:29:00,75.2,72.7,29.86,SW,228,4.5,6.0,92,0.01,,,0.33,VWS V14.01,2013-06-01 22:29:00,
2013-06-01 18:30:00,75.2,72.7,29.86,WSW,241,4.5,7.5,92,0.01,,,0.33,VWS V14.01,2013-06-01 22:30:00,
2013-06-01 18:31:00,75.2,72.7,29.86,SW,234,3.0,6.0,92,0.01,,,0.33,VWS V14.01,2013-06-01 22:31:00,
2013-06-01 18:32:00,75.2,72.7,29.86,SW,220,4.5,6.0,92,0.01,,,0.33,VWS V14.01,2013-06-01 22:32:00,
2013-06-01 18:33:00,75.2,72.7,29.86,SW,225,4.5,4.5,92,0.01,,,0.33,VWS V14.01,2013-06-01 22:33:00,
2013-06-01 18:34:00,75.1,72.6,29.86,WSW,240,4.5,7.5,92,0.01,,,0.33,VWS V14.01,2013-06-01 22:34:00,
2013-06-01 18:35:00,75.1,72.6,29.86,WSW,247,4.5,7.5,92,0.01,,,0.33,VWS V14.01,2013-06-01 22:35:00,
2013-06-01 18:36:00,75.0,72.5,29.86,SW,217,6.0,7.5,92,0.01,,,0.33,VWS V14.01,2013-06-01 22:36:00,
2013-06-01 18:37:00,75.0,72.5,29.86,SW,226,6.0,7.5,92,0.01,,,0.33,VWS V14.01,2013-06-01 22:37:00,
2013-06-01 18:38:00,75.0,72.5,29.86,SW,223,4.5,10.5,92,0.01,,,0.33,VWS V14.01,2013-06-01 22:38:00,
2013-06-01 18:39:00,74.9,72.4,29.86,SSW,212,4.5,10.5,92,0.01,,,0.33,VWS V14.01,2013-06-01 22:39:00,
2013-06-01 18:40:00,74.9,72.4,29.86,West,265,6.0,7.5,92,0.01,,,0.33,VWS V14.01,2013-06-01 22:40:00,
2013-06-01 18:41:00,74.8,72.3,29.86,WSW,241,6.0,12.0,92,0.01,,,0.33,VWS V14.01,2013-06-01 22:41:00,
2013-06-01 18:42:00,74.7,72.2,29.86,SW,220,6.0,13.5,92,0.00,,,0.33,VWS V14.01,2013-06-01 22:42:00,
2013-06-01 18:43:00,74.7,72.2,29.86,SW,220,6.0,13.5,92,0.00,,,0.33,VWS V14.01,2013-06-01 22:43:00,
2013-06-01 18:44:00,74.7,72.2,29.86,SW,229,6.0,10.5,92,0.00,,,0.33,VWS V14.01,2013-06-01 22:44:00,
2013-06-01 18:45:00,74.6,72.1,29.86,SW,227,9.0,12.0,92,0.00,,,0.33,VWS V14.01,2013-06-01 22:45:00,
2013-06-01 18:46:00,74.6,72.1,29.86,SW,224,6.0,9.0,92,0.00,,,0.33,VWS V14.01,2013-06-01 22:46:00,
2013-06-01 18:47:00,74.5,71.7,29.86,WSW,246,6.0,15.0,91,0.00,,,0.33,VWS V14.01,2013-06-01 22:47:00,
2013-06-01 18:48:00,74.5,71.7,29.86,WSW,246,6.0,15.0,91,0.00,,,0.33,VWS V14.01,2013-06-01 22:48:00,
2013-06-01 18:49:00,74.5,72.0,29.86,WSW,254,4.5,13.5,92,0.00,,,0.33,VWS V14.01,2013-06-01 22:49:00,
2013-06-01 18:50:00,74.4,71.6,29.86,WSW,248,9.0,15.0,91,0.00,,,0.33,VWS V14.01,2013-06-01 22:50:00,
2013-06-01 18:51:00,74.4,71.6,29.85,West,262,6.0,12.0,91,0.00,,,0.33,VWS V14.01,2013-06-01 22:51:00,
2013-06-01 18:52:00,74.3,71.5,29.85,SW,219,3.0,10.5,91,0.00,,,0.33,VWS V14.01,2013-06-01 22:52:00,
2013-06-01 18:53:00,74.3,71.5,29.85,SW,219,3.0,10.5,91,0.00,,,0.33,VWS V14.01,2013-06-01 22:53:00,
2013-06-01 18:54:00,74.3,71.5,29.85,WSW,237,6.0,6.0,91,0.00,,,0.33,VWS V14.01,2013-06-01 22:54:00,
2013-06-01 18:55:00,74.2,71.4,29.85,SW,229,1.5,6.0,91,0.00,,,0.33,VWS V14.01,2013-06-01 22:55:00,
2013-06-01 18:56:00,74.2,71.7,29.85,SW,229,1.5,1.5,92,0.00,,,0.33,VWS V14.01,2013-06-01 22:56:00,
2013-06-01 18:57:00,74.1,71.6,29.84,SW,217,12.0,13.5,92,0.00,,,0.33,VWS V14.01,2013-06-01 22:57:00,
2013-06-01 18:58:00,74.1,71.6,29.84,SW,217,12.0,13.5,92,0.00,,,0.33,VWS V14.01,2013-06-01 22:58:00,
2013-06-01 18:59:00,74.1,71.6,29.84,South,189,3.0,12.0,92,0.00,,,0.33,VWS V14.01,2013-06-01 22:59:00,
2013-06-01 19:00:00,74.0,71.5,29.84,SW,216,3.0,6.0,92,0.00,,,0.33,VWS V14.01,2013-06-01 23:00:00,
2013-06-01 19:01:00,74.0,71.5,29.84,SW,216,1.5,4.5,92,0.00,,,0.33,VWS V14.01,2013-06-01 23:01:00,
2013-06-01 19:02:00,74.0,71.5,29.84,South,188,4.5,7.5,92,0.00,,,0.33,VWS V14.01,2013-06-01 23:02:00,
2013-06-01 19:03:00,74.0,71.5,29.84,South,188,4.5,7.5,92,0.00,,,0.33,VWS V14.01,2013-06-01 23:03:00,
2013-06-01 19:04:00,73.9,71.4,29.83,South,172,6.0,7.5,92,0.00,,,0.33,VWS V14.01,2013-06-01 23:04:00,
2013-06-01 19:05:00,73.9,71.4,29.83,SSW,202,6.0,10.5,92,0.00,,,0.33,VWS V14.01,2013-06-01 23:05:00,
2013-06-01 19:06:00,73.9,71.4,29.83,SW,223,1.5,6.0,92,0.00,,,0.33,VWS V14.01,2013-06-01 23:06:00,
2013-06-01 19:07:00,73.8,71.3,29.83,South,184,4.5,7.5,92,0.00,,,0.33,VWS V14.01,2013-06-01 23:07:00,
2013-06-01 19:08:00,73.8,71.3,29.83,South,184,4.5,7.5,92,0.00,,,0.33,VWS V14.01,2013-06-01 23:08:00,
2013-06-01 19:09:00,73.7,71.2,29.83,ESE,122,1.5,4.5,92,0.00,,,0.33,VWS V14.01,2013-06-01 23:09:00,
2013-06-01 19:10:00,73.7,71.2,29.83,SW,223,1.5,3.0,92,0.00,,,0.33,VWS V14.01,2013-06-01 23:10:00,
2013-06-01 19:11:00,73.7,71.2,29.83,SSW,206,3.0,6.0,92,0.00,,,0.33,VWS V14.01,2013-06-01 23:11:00,
2013-06-01 19:12:00,73.6,71.1,29.83,SSW,199,7.5,10.5,92,0.00,,,0.33,VWS V14.01,2013-06-01 23:12:00,
2013-06-01 19:13:00,73.6,71.1,29.83,WSW,241,6.0,10.5,92,0.00,,,0.33,VWS V14.01,2013-06-01 23:13:00,
2013-06-01 19:14:00,73.6,71.1,29.83,SSW,201,6.0,10.5,92,0.00,,,0.33,VWS V14.01,2013-06-01 23:14:00,
2013-06-01 19:15:00,73.5,71.0,29.83,SSW,199,7.5,7.5,92,0.00,,,0.33,VWS V14.01,2013-06-01 23:15:00,
2013-06-01 19:16:00,73.5,71.0,29.82,SSE,157,4.5,7.5,92,0.00,,,0.33,VWS V14.01,2013-06-01 23:16:00,
2013-06-01 19:17:00,73.5,71.0,29.82,SW,217,9.0,9.0,92,0.00,,,0.33,VWS V14.01,2013-06-01 23:17:00,
2013-06-01 19:18:00,73.5,71.0,29.82,SSW,205,9.0,9.0,92,0.00,,,0.33,VWS V14.01,2013-06-01 23:18:00,
2013-06-01 19:19:00,73.4,70.9,29.82,SW,219,4.5,10.5,92,0.00,,,0.33,VWS V14.01,2013-06-01 23:19:00,
2013-06-01 19:20:00,73.4,70.9,29.82,SW,231,9.0,9.0,92,0.00,,,0.33,VWS V14.01,2013-06-01 23:20:00,
2013-06-01 19:21:00,73.4,70.9,29.82,SW,219,6.0,9.0,92,0.00,,,0.33,VWS V14.01,2013-06-01 23:21:00,
2013-06-01 19:22:00,73.3,70.8,29.82,SSW,194,6.0,6.0,92,0.00,,,0.33,VWS V14.01,2013-06-01 23:22:00,
2013-06-01 19:23:00,73.3,70.8,29.82,South,188,4.5,6.0,92,0.00,,,0.33,VWS V14.01,2013-06-01 23:23:00,
2013-06-01 19:24:00,73.3,70.8,29.81,West,259,3.0,10.5,92,0.00,,,0.33,VWS V14.01,2013-06-01 23:24:00,
2013-06-01 19:25:00,73.3,70.8,29.81,WSW,237,4.5,7.5,92,0.00,,,0.33,VWS V14.01,2013-06-01 23:25:00,
2013-06-01 19:26:00,73.3,70.5,29.81,ESE,116,3.0,7.5,91,0.00,,,0.33,VWS V14.01,2013-06-01 23:26:00,
2013-06-01 19:27:00,73.2,70.4,29.81,SW,231,3.0,3.0,91,0.00,,,0.33,VWS V14.01,2013-06-01 23:27:00,
2013-06-01 19:28:00,73.2,70.4,29.81,SW,232,1.5,3.0,91,0.00,,,0.33,VWS V14.01,2013-06-01 23:28:00,
2013-06-01 19:29:00,73.2,70.4,29.81,South,184,3.0,4.5,91,0.00,,,0.33,VWS V14.01,2013-06-01 23:29:00,
2013-06-01 19:30:00,73.2,70.4,29.81,SSW,210,3.0,6.0,91,0.00,,,0.33,VWS V14.01,2013-06-01 23:30:00,
2013-06-01 19:31:00,73.2,70.4,29.81,SW,223,10.5,10.5,91,0.00,,,0.33,VWS V14.01,2013-06-01 23:31:00,
2013-06-01 19:32:00,73.2,70.4,29.81,SSW,209,7.5,10.5,91,0.00,,,0.33,VWS V14.01,2013-06-01 23:32:00,
2013-06-01 19:33:00,73.2,70.4,29.81,SSE,159,4.5,10.5,91,0.00,,,0.33,VWS V14.01,2013-06-01 23:33:00,
2013-06-01 19:34:00,73.2,70.4,29.82,SSW,201,3.0,6.0,91,0.00,,,0.33,VWS V14.01,2013-06-01 23:34:00,
2013-06-01 19:35:00,73.1,70.3,29.82,WSW,241,4.5,6.0,91,0.00,,,0.33,VWS V14.01,2013-06-01 23:35:00,
2013-06-01 19:36:00,73.1,70.3,29.82,South,171,7.5,7.5,91,0.00,,,0.33,VWS V14.01,2013-06-01 23:36:00,
2013-06-01 19:37:00,73.1,70.3,29.82,SW,228,6.0,10.5,91,0.00,,,0.33,VWS V14.01,2013-06-01 23:37:00,
2013-06-01 19:38:00,73.1,70.3,29.82,SSW,195,4.5,10.5,91,0.00,,,0.33,VWS V14.01,2013-06-01 23:38:00,
2013-06-01 19:39:00,73.1,70.3,29.82,SSW,205,4.5,7.5,91,0.00,,,0.33,VWS V14.01,2013-06-01 23:39:00,
2013-06-01 19:40:00,73.1,70.6,29.82,SW,228,6.0,6.0,92,0.00,,,0.33,VWS V14.01,2013-06-01 23:40:00,
2013-06-01 19:41:00,73.1,70.6,29.82,SW,228,6.0,12.0,92,0.00,,,0.33,VWS V14.01,2013-06-01 23:41:00,
2013-06-01 19:42:00,73.1,70.6,29.82,SSE,153,1.5,6.0,92,0.00,,,0.33,VWS V14.01,2013-06-01 23:42:00,
2013-06-01 19:43:00,73.1,70.6,29.82,SSE,153,1.5,6.0,92,0.00,,,0.33,VWS V14.01,2013-06-01 23:43:00,
2013-06-01 19:44:00,73.1,70.6,29.82,SSE,153,4.5,10.5,92,0.00,,,0.33,VWS V14.01,2013-06-01 23:44:00,
2013-06-01 19:45:00,73.1,70.6,29.82,WSW,237,4.5,7.5,92,0.00,,,0.33,VWS V14.01,2013-06-01 23:45:00,
2013-06-01 19:46:00,73.1,70.6,29.82,ENE,75,6.0,6.0,92,0.00,,,0.33,VWS V14.01,2013-06-01 23:46:00,
2013-06-01 19:47:00,73.1,70.6,29.82,SSW,205,3.0,13.5,92,0.00,,,0.33,VWS V14.01,2013-06-01 23:47:00,
2013-06-01 19:48:00,73.1,70.6,29.82,SSW,195,10.5,13.5,92,0.00,,,0.33,VWS V14.01,2013-06-01 23:48:00,
2013-06-01 19:49:00,73.1,70.6,29.82,SW,230,3.0,10.5,92,0.00,,,0.33,VWS V14.01,2013-06-01 23:49:00,
2013-06-01 19:50:00,73.1,70.6,29.82,SSW,203,1.5,3.0,92,0.00,,,0.33,VWS V14.01,2013-06-01 23:50:00,
2013-06-01 19:51:00,73.1,70.6,29.82,South,188,3.0,3.0,92,0.00,,,0.33,VWS V14.01,2013-06-01 23:51:00,
2013-06-01 19:52:00,73.1,70.6,29.82,SW,223,7.5,9.0,92,0.00,,,0.33,VWS V14.01,2013-06-01 23:52:00,
2013-06-01 19:53:00,73.1,70.6,29.82,SSW,203,4.5,9.0,92,0.00,,,0.33,VWS V14.01,2013-06-01 23:53:00,
2013-06-01 19:54:00,73.2,70.4,29.82,SE,137,1.5,6.0,91,0.00,,,0.33,VWS V14.01,2013-06-01 23:54:00,
2013-06-01 19:55:00,73.2,70.4,29.82,South,184,4.5,7.5,91,0.00,,,0.33,VWS V14.01,2013-06-01 23:55:00,
2013-06-01 19:56:00,73.2,70.4,29.82,South,189,9.0,12.0,91,0.00,,,0.33,VWS V14.01,2013-06-01 23:56:00,
2013-06-01 19:57:00,73.2,70.4,29.81,SSW,194,4.5,7.5,91,0.00,,,0.33,VWS V14.01,2013-06-01 23:57:00,
2013-06-01 19:58:00,73.2,70.4,29.81,SW,234,4.5,7.5,91,0.00,,,0.33,VWS V14.01,2013-06-01 23:58:00,
2013-06-01 19:59:00,73.2,70.4,29.81,NE,51,6.0,7.5,91,0.00,,,0.33,VWS V14.01,2013-06-01 23:59:00,
2013-06-01 20:00:00,73.2,70.4,29.82,SSE,151,4.5,6.0,91,0.00,,,0.33,VWS V14.01,2013-06-02 00:00:00,
2013-06-01 20:01:00,73.2,70.4,29.82,WSW,257,7.5,9.0,91,0.00,,,0.33,VWS V14.01,2013-06-02 00:01:00,
2013-06-01 20:02:00,73.3,70.5,29.82,SSE,167,6.0,9.0,91,0.00,,,0.33,VWS V14.01,2013-06-02 00:02:00,
2013-06-01 20:03:00,73.3,70.5,29.82,SE,143,1.5,9.0,91,0.00,,,0.33,VWS V14.01,2013-06-02 00:03:00,
2013-06-01 20:04:00,73.3,70.5,29.82,South,185,4.5,6.0,91,0.00,,,0.33,VWS V14.01,2013-06-02 00:04:00,
2013-06-01 20:05:00,73.3,70.5,29.82,SW,217,3.0,4.5,91,0.00,,,0.33,VWS V14.01,2013-06-02 00:05:00,
2013-06-01 20:06:00,73.3,70.5,29.82,SW,217,1.5,3.0,91,0.00,,,0.33,VWS V14.01,2013-06-02 00:06:00,
2013-06-01 20:07:00,73.3,70.5,29.82,SSW,213,6.0,10.5,91,0.00,,,0.33,VWS V14.01,2013-06-02 00:07:00,
2013-06-01 20:08:00,73.4,70.6,29.82,SSE,164,6.0,10.5,91,0.00,,,0.33,VWS V14.01,2013-06-02 00:08:00,
2013-06-01 20:09:00,73.4,70.6,29.82,SSE,156,7.5,12.0,91,0.00,,,0.33,VWS V14.01,2013-06-02 00:09:00,
2013-06-01 20:10:00,73.5,70.7,29.82,SW,216,3.0,9.0,91,0.00,,,0.33,VWS V14.01,2013-06-02 00:10:00,
2013-06-01 20:11:00,73.5,70.7,29.82,WSW,242,4.5,6.0,91,0.00,,,0.33,VWS V14.01,2013-06-02 00:11:00,
2013-06-01 20:12:00,73.5,70.7,29.82,WSW,252,6.0,10.5,91,0.00,,,0.33,VWS V14.01,2013-06-02 00:12:00,
2013-06-01 20:13:00,73.5,70.4,29.82,SSW,209,9.0,10.5,90,0.00,,,0.33,VWS V14.01,2013-06-02 00:13:00,
2013-06-01 20:14:00,73.5,70.4,29.83,SW,225,6.0,9.0,90,0.00,,,0.33,VWS V14.01,2013-06-02 00:14:00,
2013-06-01 20:15:00,73.5,70.4,29.83,West,265,6.0,7.5,90,0.00,,,0.33,VWS V14.01,2013-06-02 00:15:00,
2013-06-01 20:16:00,73.5,70.4,29.82,SSE,163,3.0,12.0,90,0.00,,,0.33,VWS V14.01,2013-06-02 00:16:00,
2013-06-01 20:17:00,73.5,70.4,29.83,WSW,255,10.5,15.0,90,0.00,,,0.33,VWS V14.01,2013-06-02 00:17:00,
2013-06-01 20:18:00,73.5,70.4,29.83,SW,226,6.0,15.0,90,0.00,,,0.33,VWS V14.01,2013-06-02 00:18:00,
2013-06-01 20:19:00,73.5,70.4,29.83,WSW,239,6.0,6.0,90,0.00,,,0.33,VWS V14.01,2013-06-02 00:19:00,
2013-06-01 20:20:00,73.5,70.4,29.82,SSW,201,6.0,6.0,90,0.00,,,0.33,VWS V14.01,2013-06-02 00:20:00,
2013-06-01 20:21:00,73.5,70.4,29.83,WSW,250,4.5,6.0,90,0.00,,,0.33,VWS V14.01,2013-06-02 00:21:00,
2013-06-01 20:22:00,73.6,70.5,29.83,SW,227,13.5,15.0,90,0.00,,,0.33,VWS V14.01,2013-06-02 00:22:00,
2013-06-01 20:23:00,73.6,70.5,29.83,SW,230,9.0,15.0,90,0.00,,,0.33,VWS V14.01,2013-06-02 00:23:00,
2013-06-01 20:24:00,73.6,70.5,29.83,SSW,203,4.5,9.0,90,0.00,,,0.33,VWS V14.01,2013-06-02 00:24:00,
2013-06-01 20:25:00,73.6,70.5,29.83,SSW,203,9.0,9.0,90,0.00,,,0.33,VWS V14.01,2013-06-02 00:25:00,
2013-06-01 20:26:00,73.7,70.6,29.83,SSW,209,9.0,9.0,90,0.00,,,0.33,VWS V14.01,2013-06-02 00:26:00,
2013-06-01 20:27:00,73.7,70.3,29.83,SW,220,4.5,12.0,89,0.00,,,0.33,VWS V14.01,2013-06-02 00:27:00,
2013-06-01 20:28:00,73.7,70.3,29.83,South,189,4.5,12.0,89,0.00,,,0.33,VWS V14.01,2013-06-02 00:28:00,
2013-06-01 20:29:00,73.7,70.3,29.83,WSW,251,4.5,6.0,89,0.00,,,0.33,VWS V14.01,2013-06-02 00:29:00,
2013-06-01 20:30:00,73.7,70.3,29.82,SSW,194,3.0,6.0,89,0.00,,,0.33,VWS V14.01,2013-06-02 00:30:00,
2013-06-01 20:31:00,73.7,70.3,29.82,SW,216,1.5,3.0,89,0.00,,,0.33,VWS V14.01,2013-06-02 00:31:00,
2013-06-01 20:32:00,73.7,70.3,29.82,SE,146,1.5,4.5,89,0.00,,,0.33,VWS V14.01,2013-06-02 00:32:00,
2013-06-01 20:33:00,73.6,70.2,29.82,SE,146,1.5,4.5,89,0.00,,,0.33,VWS V14.01,2013-06-02 00:33:00,
2013-06-01 20:34:00,73.6,70.2,29.82,SW,231,4.5,6.0,89,0.00,,,0.33,VWS V14.01,2013-06-02 00:34:00,
2013-06-01 20:35:00,73.5,70.1,29.82,East,96,4.5,6.0,89,0.00,,,0.33,VWS V14.01,2013-06-02 00:35:00,
2013-06-01 20:36:00,73.5,70.4,29.82,SSE,153,3.0,4.5,90,0.00,,,0.33,VWS V14.01,2013-06-02 00:36:00,
2013-06-01 20:37:00,73.4,70.3,29.82,SSW,199,3.0,3.0,90,0.00,,,0.33,VWS V14.01,2013-06-02 00:37:00,
2013-06-01 20:38:00,73.3,70.2,29.82,SSW,199,3.0,3.0,90,0.00,,,0.33,VWS V14.01,2013-06-02 00:38:00,
2013-06-01 20:39:00,73.3,70.2,29.82,SE,129,3.0,6.0,90,0.00,,,0.33,VWS V14.01,2013-06-02 00:39:00,
2013-06-01 20:40:00,73.2,70.1,29.82,East,97,4.5,7.5,90,0.00,,,0.33,VWS V14.01,2013-06-02 00:40:00,
2013-06-01 20:41:00,73.2,70.1,29.82,East,97,1.5,4.5,90,0.00,,,0.33,VWS V14.01,2013-06-02 00:41:00,
2013-06-01 20:42:00,73.1,70.0,29.82,East,101,1.5,3.0,90,0.00,,,0.33,VWS V14.01,2013-06-02 00:42:00,
2013-06-01 20:43:00,73.1,70.0,29.82,South,175,3.0,3.0,90,0.00,,,0.33,VWS V14.01,2013-06-02 00:43:00,
2013-06-01 20:44:00,73.0,69.9,29.82,SSW,192,1.5,3.0,90,0.00,,,0.33,VWS V14.01,2013-06-02 00:44:00,
2013-06-01 20:45:00,73.0,69.9,29.82,SSW,192,1.5,1.5,90,0.00,,,0.33,VWS V14.01,2013-06-02 00:45:00,
2013-06-01 20:46:00,72.9,69.8,29.82,SW,215,3.0,4.5,90,0.00,,,0.33,VWS V14.01,2013-06-02 00:46:00,
2013-06-01 20:47:00,72.9,70.1,29.82,SSW,212,1.5,3.0,91,0.00,,,0.33,VWS V14.01,2013-06-02 00:47:00,
2013-06-01 20:48:00,72.8,70.0,29.82,SW,216,1.5,3.0,91,0.00,,,0.33,VWS V14.01,2013-06-02 00:48:00,
2013-06-01 20:49:00,72.8,70.0,29.83,SW,234,3.0,3.0,91,0.00,,,0.33,VWS V14.01,2013-06-02 00:49:00,
2013-06-01 20:50:00,72.8,70.0,29.83,WSW,255,4.5,6.0,91,0.00,,,0.33,VWS V14.01,2013-06-02 00:50:00,
2013-06-01 20:51:00,72.8,70.0,29.83,WSW,239,1.5,4.5,91,0.00,,,0.33,VWS V14.01,2013-06-02 00:51:00,
2013-06-01 20:52:00,72.7,69.9,29.83,WSW,239,1.5,1.5,91,0.00,,,0.33,VWS V14.01,2013-06-02 00:52:00,
2013-06-01 20:53:00,72.7,69.9,29.83,WSW,239,1.5,1.5,91,0.00,,,0.33,VWS V14.01,2013-06-02 00:53:00,
2013-06-01 20:54:00,72.7,69.9,29.83,West,267,3.0,3.0,91,0.00,,,0.33,VWS V14.01,2013-06-02 00:54:00,
2013-06-01 20:55:00,72.7,69.9,29.83,WSW,258,3.0,3.0,91,0.00,,,0.33,VWS V14.01,2013-06-02 00:55:00,
2013-06-01 20:56:00,72.7,69.9,29.83,WSW,258,1.5,3.0,91,0.00,,,0.33,VWS V14.01,2013-06-02 00:56:00,
2013-06-01 20:57:00,72.7,69.9,29.83,West,259,3.0,3.0,91,0.00,,,0.33,VWS V14.01,2013-06-02 00:57:00,
2013-06-01 20:58:00,72.7,69.9,29.83,West,259,1.5,3.0,91,0.00,,,0.33,VWS V14.01,2013-06-02 00:58:00,
2013-06-01 20:59:00,72.6,69.8,29.83,West,260,1.5,3.0,91,0.00,,,0.33,VWS V14.01,2013-06-02 00:59:00,
2013-06-01 21:00:00,72.6,70.2,29.83,West,280,4.5,4.5,92,0.00,,,0.33,VWS V14.01,2013-06-02 01:00:00,
2013-06-01 21:01:00,72.6,70.2,29.84,West,278,4.5,4.5,92,0.00,,,0.33,VWS V14.01,2013-06-02 01:01:00,
2013-06-01 21:02:00,72.6,70.2,29.84,West,275,3.0,4.5,92,0.00,,,0.33,VWS V14.01,2013-06-02 01:02:00,
2013-06-01 21:03:00,72.6,70.2,29.84,West,274,1.5,4.5,92,0.00,,,0.33,VWS V14.01,2013-06-02 01:03:00,
2013-06-01 21:04:00,72.5,70.1,29.84,West,274,1.5,3.0,92,0.00,,,0.33,VWS V14.01,2013-06-02 01:04:00,
2013-06-01 21:05:00,72.5,70.1,29.84,West,268,3.0,4.5,92,0.00,,,0.33,VWS V14.01,2013-06-02 01:05:00,
2013-06-01 21:06:00,72.5,70.1,29.84,WSW,248,1.5,4.5,92,0.00,,,0.33,VWS V14.01,2013-06-02 01:06:00,
2013-06-01 21:07:00,72.5,70.1,29.84,WSW,248,3.0,3.0,92,0.00,,,0.33,VWS V14.01,2013-06-02 01:07:00,
2013-06-01 21:08:00,72.4,69.9,29.84,WSW,248,1.5,3.0,92,0.00,,,0.33,VWS V14.01,2013-06-02 01:08:00,
2013-06-01 21:09:00,72.4,69.9,29.84,West,261,1.5,3.0,92,0.00,,,0.33,VWS V14.01,2013-06-02 01:09:00,
2013-06-01 21:10:00,72.4,69.9,29.85,WSW,252,3.0,3.0,92,0.00,,,0.33,VWS V14.01,2013-06-02 01:10:00,
2013-06-01 21:11:00,72.4,69.9,29.85,West,260,3.0,4.5,92,0.00,,,0.33,VWS V14.01,2013-06-02 01:11:00,
2013-06-01 21:12:00,72.3,70.2,29.85,West,260,1.5,6.0,93,0.00,,,0.33,VWS V14.01,2013-06-02 01:12:00,
2013-06-01 21:13:00,72.3,70.2,29.85,West,259,1.5,6.0,93,0.00,,,0.33,VWS V14.01,2013-06-02 01:13:00,
2013-06-01 21:14:00,72.3,70.2,29.84,WSW,241,3.0,3.0,93,0.00,,,0.33,VWS V14.01,2013-06-02 01:14:00,
2013-06-01 21:15:00,72.3,70.2,29.84,WSW,241,3.0,3.0,93,0.00,,,0.33,VWS V14.01,2013-06-02 01:15:00,
2013-06-01 21:16:00,72.2,70.1,29.84,SW,233,3.0,4.5,93,0.00,,,0.33,VWS V14.01,2013-06-02 01:16:00,
2013-06-01 21:17:00,72.2,70.1,29.84,South,185,1.5,3.0,93,0.00,,,0.33,VWS V14.01,2013-06-02 01:17:00,
2013-06-01 21:18:00,72.2,70.1,29.84,South,170,3.0,3.0,93,0.00,,,0.33,VWS V14.01,2013-06-02 01:18:00,
2013-06-01 21:19:00,72.2,70.1,29.83,South,170,1.5,3.0,93,0.00,,,0.33,VWS V14.01,2013-06-02 01:19:00,
2013-06-01 21:20:00,72.2,70.1,29.83,South,170,1.5,1.5,93,0.00,,,0.33,VWS V14.01,2013-06-02 01:20:00,
2013-06-01 21:21:00,72.1,70.0,29.83,WSW,237,3.0,3.0,93,0.00,,,0.33,VWS V14.01,2013-06-02 01:21:00,
2013-06-01 21:22:00,72.1,70.0,29.84,WSW,238,1.5,1.5,93,0.00,,,0.33,VWS V14.01,2013-06-02 01:22:00,
2013-06-01 21:23:00,72.1,70.0,29.84,WSW,237,1.5,1.5,93,0.00,,,0.33,VWS V14.01,2013-06-02 01:23:00,
2013-06-01 21:24:00,72.1,70.0,29.84,WSW,237,1.5,3.0,93,0.00,,,0.33,VWS V14.01,2013-06-02 01:24:00,
2013-06-01 21:25:00,72.0,69.9,29.84,SW,223,4.5,6.0,93,0.00,,,0.33,VWS V14.01,2013-06-02 01:25:00,
2013-06-01 21:26:00,72.0,69.9,29.84,SW,223,3.0,4.5,93,0.00,,,0.33,VWS V14.01,2013-06-02 01:26:00,
2013-06-01 21:27:00,72.0,69.9,29.84,SW,222,4.5,4.5,93,0.00,,,0.33,VWS V14.01,2013-06-02 01:27:00,
2013-06-01 21:28:00,72.0,69.9,29.84,SW,219,3.0,4.5,93,0.00,,,0.33,VWS V14.01,2013-06-02 01:28:00,
2013-06-01 21:29:00,72.0,69.9,29.84,SW,219,3.0,3.0,93,0.00,,,0.33,VWS V14.01,2013-06-02 01:29:00,
2013-06-01 21:30:00,72.0,69.9,29.84,SW,219,1.5,3.0,93,0.00,,,0.33,VWS V14.01,2013-06-02 01:30:00,
2013-06-01 21:31:00,72.0,69.9,29.84,WSW,253,3.0,3.0,93,0.00,,,0.33,VWS V14.01,2013-06-02 01:31:00,
2013-06-01 21:32:00,72.0,69.9,29.84,SW,229,3.0,3.0,93,0.00,,,0.33,VWS V14.01,2013-06-02 01:32:00,
2013-06-01 21:33:00,72.0,69.9,29.84,WSW,240,1.5,4.5,93,0.00,,,0.33,VWS V14.01,2013-06-02 01:33:00,
2013-06-01 21:34:00,72.0,70.2,29.84,SW,231,3.0,3.0,94,0.00,,,0.33,VWS V14.01,2013-06-02 01:34:00,
2013-06-01 21:35:00,71.9,70.1,29.85,SW,231,4.5,4.5,94,0.00,,,0.33,VWS V14.01,2013-06-02 01:35:00,
2013-06-01 21:36:00,71.9,70.1,29.85,SW,226,1.5,4.5,94,0.00,,,0.33,VWS V14.01,2013-06-02 01:36:00,
2013-06-01 21:37:00,71.9,70.1,29.84,South,177,1.5,4.5,94,0.00,,,0.33,VWS V14.01,2013-06-02 01:37:00,
2013-06-01 21:38:00,71.9,70.1,29.84,SSW,201,4.5,4.5,94,0.00,,,0.33,VWS V14.01,2013-06-02 01:38:00,
2013-06-01 21:39:00,71.9,70.1,29.84,SSW,208,3.0,4.5,94,0.00,,,0.33,VWS V14.01,2013-06-02 01:39:00,
2013-06-01 21:40:00,71.9,70.1,29.84,SW,226,4.5,4.5,94,0.00,,,0.33,VWS V14.01,2013-06-02 01:40:00,
2013-06-01 21:41:00,71.8,70.0,29.85,SW,216,4.5,6.0,94,0.00,,,0.33,VWS V14.01,2013-06-02 01:41:00,
2013-06-01 21:42:00,71.8,70.0,29.85,WSW,244,3.0,4.5,94,0.00,,,0.33,VWS V14.01,2013-06-02 01:42:00,
2013-06-01 21:43:00,71.9,70.1,29.84,WSW,244,3.0,4.5,94,0.00,,,0.33,VWS V14.01,2013-06-02 01:43:00,
2013-06-01 21:44:00,71.8,70.0,29.84,SW,222,3.0,4.5,94,0.00,,,0.33,VWS V14.01,2013-06-02 01:44:00,
2013-06-01 21:45:00,71.8,70.0,29.84,SW,223,3.0,4.5,94,0.00,,,0.33,VWS V14.01,2013-06-02 01:45:00,
2013-06-01 21:46:00,71.8,70.0,29.84,SW,223,3.0,3.0,94,0.00,,,0.33,VWS V14.01,2013-06-02 01:46:00,
2013-06-01 21:47:00,71.8,70.0,29.85,WSW,244,1.5,3.0,94,0.00,,,0.33,VWS V14.01,2013-06-02 01:47:00,
2013-06-01 21:48:00,71.8,70.0,29.85,WSW,251,6.0,6.0,94,0.00,,,0.33,VWS V14.01,2013-06-02 01:48:00,
2013-06-01 21:49:00,71.8,70.0,29.85,SW,219,4.5,6.0,94,0.00,,,0.33,VWS V14.01,2013-06-02 01:49:00,
2013-06-01 21:50:00,71.8,70.0,29.85,SW,217,6.0,7.5,94,0.00,,,0.33,VWS V14.01,2013-06-02 01:50:00,
2013-06-01 21:51:00,71.8,70.0,29.85,SSW,210,4.5,6.0,94,0.00,,,0.33,VWS V14.01,2013-06-02 01:51:00,
2013-06-01 21:52:00,71.8,70.0,29.85,SSW,196,7.5,13.5,94,0.00,,,0.33,VWS V14.01,2013-06-02 01:52:00,
2013-06-01 21:53:00,71.9,70.1,29.85,SW,226,7.5,13.5,94,0.00,,,0.33,VWS V14.01,2013-06-02 01:53:00,
2013-06-01 21:54:00,71.9,70.1,29.85,West,275,4.5,9.0,94,0.00,,,0.33,VWS V14.01,2013-06-02 01:54:00,
2013-06-01 21:55:00,71.9,70.1,29.85,SW,220,10.5,10.5,94,0.00,,,0.33,VWS V14.01,2013-06-02 01:55:00,
2013-06-01 21:56:00,72.0,70.2,29.85,West,275,10.5,10.5,94,0.00,,,0.33,VWS V14.01,2013-06-02 01:56:00,
2013-06-01 21:57:00,72.0,70.2,29.85,WSW,243,10.5,10.5,94,0.00,,,0.33,VWS V14.01,2013-06-02 01:57:00,
2013-06-01 21:58:00,72.0,70.2,29.85,SW,229,12.0,15.0,94,0.00,,,0.33,VWS V14.01,2013-06-02 01:58:00,
2013-06-01 21:59:00,72.1,70.3,29.85,SSW,212,10.5,15.0,94,0.00,,,0.33,VWS V14.01,2013-06-02 01:59:00,
2013-06-01 22:00:00,72.1,70.0,29.85,WSW,244,6.0,9.0,93,0.00,,,0.33,VWS V14.01,2013-06-02 02:00:00,
2013-06-01 22:01:00,72.2,70.1,29.85,SW,223,6.0,9.0,93,0.00,,,0.33,VWS V14.01,2013-06-02 02:01:00,
2013-06-01 22:02:00,72.2,70.1,29.85,SW,234,7.5,12.0,93,0.00,,,0.33,VWS V14.01,2013-06-02 02:02:00,
2013-06-01 22:03:00,72.2,70.1,29.85,WSW,255,7.5,12.0,93,0.00,,,0.33,VWS V14.01,2013-06-02 02:03:00,
2013-06-01 22:04:00,72.2,70.1,29.85,SW,217,7.5,7.5,93,0.00,,,0.33,VWS V14.01,2013-06-02 02:04:00,
2013-06-01 22:05:00,72.2,70.1,29.85,SW,226,7.5,13.5,93,0.00,,,0.33,VWS V14.01,2013-06-02 02:05:00,
2013-06-01 22:06:00,72.2,70.1,29.85,WNW,288,4.5,7.5,93,0.00,,,0.33,VWS V14.01,2013-06-02 02:06:00,
2013-06-01 22:07:00,72.2,70.1,29.85,SW,229,18.0,24.0,93,0.00,,,0.33,VWS V14.01,2013-06-02 02:07:00,
2013-06-01 22:08:00,72.3,70.2,29.85,WSW,237,12.0,24.0,93,0.00,,,0.33,VWS V14.01,2013-06-02 02:08:00,
2013-06-01 22:09:00,72.3,69.8,29.85,SW,224,10.5,15.0,92,0.00,,,0.33,VWS V14.01,2013-06-02 02:09:00,
2013-06-01 22:10:00,72.3,69.8,29.85,WSW,243,10.5,15.0,92,0.00,,,0.33,VWS V14.01,2013-06-02 02:10:00,
2013-06-01 22:11:00,72.3,69.8,29.85,West,276,9.0,19.5,92,0.00,,,0.33,VWS V14.01,2013-06-02 02:11:00,
2013-06-01 22:12:00,72.3,69.8,29.85,SW,226,9.0,13.5,92,0.00,,,0.33,VWS V14.01,2013-06-02 02:12:00,
2013-06-01 22:13:00,72.3,69.8,29.85,SW,223,9.0,13.5,92,0.00,,,0.33,VWS V14.01,2013-06-02 02:13:00,
2013-06-01 22:14:00,72.3,69.8,29.85,WSW,242,13.5,16.5,92,0.00,,,0.33,VWS V14.01,2013-06-02 02:14:00,
2013-06-01 22:15:00,72.3,69.8,29.85,SSW,194,12.0,18.0,92,0.00,,,0.33,VWS V14.01,2013-06-02 02:15:00,
2013-06-01 22:16:00,72.3,69.8,29.86,WSW,241,10.5,19.5,92,0.00,,,0.33,VWS V14.01,2013-06-02 02:16:00,
2013-06-01 22:17:00,72.3,69.5,29.86,SW,230,13.5,16.5,91,0.00,,,0.33,VWS V14.01,2013-06-02 02:17:00,
2013-06-01 22:18:00,72.3,69.5,29.86,WSW,244,9.0,16.5,91,0.00,,,0.33,VWS V14.01,2013-06-02 02:18:00,
2013-06-01 22:19:00,72.3,69.5,29.86,SW,232,7.5,16.5,91,0.00,,,0.33,VWS V14.01,2013-06-02 02:19:00,
2013-06-01 22:20:00,72.3,69.5,29.86,SW,233,13.5,13.5,91,0.00,,,0.33,VWS V14.01,2013-06-02 02:20:00,
2013-06-01 22:21:00,72.3,69.5,29.86,SW,226,13.5,19.5,91,0.00,,,0.33,VWS V14.01,2013-06-02 02:21:00,
2013-06-01 22:22:00,72.3,69.2,29.86,WSW,253,18.0,24.0,90,0.00,,,0.33,VWS V14.01,2013-06-02 02:22:00,
2013-06-01 22:23:00,72.4,69.3,29.86,WSW,239,15.0,25.5,90,0.00,,,0.33,VWS V14.01,2013-06-02 02:23:00,
2013-06-01 22:24:00,72.4,69.3,29.86,SW,220,13.5,19.5,90,0.00,,,0.33,VWS V14.01,2013-06-02 02:24:00,
2013-06-01 22:25:00,72.4,69.3,29.85,South,185,15.0,16.5,90,0.00,,,0.33,VWS V14.01,2013-06-02 02:25:00,
2013-06-01 22:26:00,72.4,69.3,29.85,SW,225,15.0,15.0,90,0.00,,,0.33,VWS V14.01,2013-06-02 02:26:00,
2013-06-01 22:27:00,72.4,69.0,29.85,West,267,10.5,13.5,89,0.00,,,0.33,VWS V14.01,2013-06-02 02:27:00,
2013-06-01 22:28:00,72.4,69.0,29.85,WSW,237,4.5,13.5,89,0.00,,,0.33,VWS V14.01,2013-06-02 02:28:00,
2013-06-01 22:29:00,72.4,69.0,29.85,WSW,251,9.0,16.5,89,0.00,,,0.33,VWS V14.01,2013-06-02 02:29:00,
2013-06-01 22:30:00,72.4,69.0,29.85,WSW,257,18.0,19.5,89,0.00,,,0.33,VWS V14.01,2013-06-02 02:30:00,
2013-06-01 22:31:00,72.4,69.0,29.86,SSW,203,7.5,18.0,89,0.00,,,0.33,VWS V14.01,2013-06-02 02:31:00,
2013-06-01 22:32:00,72.3,68.9,29.86,West,265,7.5,13.5,89,0.00,,,0.33,VWS V14.01,2013-06-02 02:32:00,
2013-06-01 22:33:00,72.4,69.0,29.86,WSW,237,13.5,13.5,89,0.00,,,0.33,VWS V14.01,2013-06-02 02:33:00,
2013-06-01 22:34:00,72.3,68.9,29.86,West,264,9.0,18.0,89,0.00,,,0.33,VWS V14.01,2013-06-02 02:34:00,
2013-06-01 22:35:00,72.3,68.9,29.86,WSW,254,12.0,15.0,89,0.00,,,0.33,VWS V14.01,2013-06-02 02:35:00,
2013-06-01 22:36:00,72.3,68.9,29.86,West,279,9.0,15.0,89,0.00,,,0.33,VWS V14.01,2013-06-02 02:36:00,
2013-06-01 22:37:00,72.2,68.8,29.86,SSW,202,10.5,19.5,89,0.00,,,0.33,VWS V14.01,2013-06-02 02:37:00,
2013-06-01 22:38:00,72.2,68.4,29.86,South,185,13.5,24.0,88,0.00,,,0.33,VWS V14.01,2013-06-02 02:38:00,
2013-06-01 22:39:00,72.2,68.4,29.86,SW,233,9.0,21.0,88,0.00,,,0.33,VWS V14.01,2013-06-02 02:39:00,
2013-06-01 22:40:00,72.2,68.4,29.86,WSW,244,19.5,19.5,88,0.00,,,0.33,VWS V14.01,2013-06-02 02:40:00,
2013-06-01 22:41:00,72.2,68.8,29.86,WNW,285,7.5,19.5,89,0.00,,,0.33,VWS V14.01,2013-06-02 02:41:00,
2013-06-01 22:42:00,72.2,68.8,29.86,WSW,246,13.5,13.5,89,0.00,,,0.33,VWS V14.01,2013-06-02 02:42:00,
2013-06-01 22:43:00,72.1,68.7,29.86,SW,219,12.0,19.5,89,0.00,,,0.33,VWS V14.01,2013-06-02 02:43:00,
2013-06-01 22:44:00,72.1,68.7,29.86,WSW,248,15.0,21.0,89,0.00,,,0.33,VWS V14.01,2013-06-02 02:44:00,
2013-06-01 22:45:00,72.1,68.7,29.86,WSW,247,18.0,22.5,89,0.00,,,0.33,VWS V14.01,2013-06-02 02:45:00,
2013-06-01 22:46:00,72.0,68.6,29.86,SW,223,10.5,19.5,89,0.00,,,0.33,VWS V14.01,2013-06-02 02:46:00,
2013-06-01 22:47:00,72.0,68.6,29.86,WSW,248,12.0,13.5,89,0.00,,,0.33,VWS V14.01,2013-06-02 02:47:00,
2013-06-01 22:48:00,72.0,68.6,29.86,WSW,243,16.5,19.5,89,0.00,,,0.33,VWS V14.01,2013-06-02 02:48:00,
2013-06-01 22:49:00,71.9,68.5,29.86,SW,220,15.0,22.5,89,0.00,,,0.33,VWS V14.01,2013-06-02 02:49:00,
2013-06-01 22:50:00,71.9,68.5,29.86,SW,219,10.5,19.5,89,0.00,,,0.33,VWS V14.01,2013-06-02 02:50:00,
2013-06-01 22:51:00,71.9,68.5,29.86,SW,218,19.5,19.5,89,0.00,,,0.33,VWS V14.01,2013-06-02 02:51:00,
2013-06-01 22:52:00,71.8,68.4,29.86,West,260,18.0,24.0,89,0.00,,,0.33,VWS V14.01,2013-06-02 02:52:00,
2013-06-01 22:53:00,71.8,68.4,29.86,WSW,248,19.5,24.0,89,0.00,,,0.33,VWS V14.01,2013-06-02 02:53:00,
2013-06-01 22:54:00,71.8,68.4,29.86,SW,227,9.0,22.5,89,0.00,,,0.33,VWS V14.01,2013-06-02 02:54:00,
2013-06-01 22:55:00,71.8,68.4,29.87,SW,236,13.5,13.5,89,0.00,,,0.33,VWS V14.01,2013-06-02 02:55:00,
2013-06-01 22:56:00,71.7,68.3,29.87,WSW,254,18.0,18.0,89,0.00,,,0.33,VWS V14.01,2013-06-02 02:56:00,
2013-06-01 22:57:00,71.7,68.3,29.87,SW,236,12.0,12.0,89,0.00,,,0.33,VWS V14.01,2013-06-02 02:57:00,
2013-06-01 22:58:00,71.7,68.3,29.87,WSW,245,9.0,13.5,89,0.00,,,0.33,VWS V14.01,2013-06-02 02:58:00,
2013-06-01 22:59:00,71.6,68.2,29.86,WSW,237,7.5,15.0,89,0.00,,,0.33,VWS V14.01,2013-06-02 02:59:00,
2013-06-01 23:00:00,71.6,68.2,29.87,SW,220,18.0,18.0,89,0.00,,,0.33,VWS V14.01,2013-06-02 03:00:00,
2013-06-01 23:01:00,71.5,68.1,29.87,WSW,243,15.0,22.5,89,0.00,,,0.33,VWS V14.01,2013-06-02 03:01:00,
2013-06-01 23:02:00,71.5,68.1,29.87,WSW,257,13.5,13.5,89,0.00,,,0.33,VWS V14.01,2013-06-02 03:02:00,
2013-06-01 23:03:00,71.5,68.1,29.87,SW,223,18.0,18.0,89,0.00,,,0.33,VWS V14.01,2013-06-02 03:03:00,
2013-06-01 23:04:00,71.5,68.1,29.87,SSW,208,10.5,21.0,89,0.00,,,0.33,VWS V14.01,2013-06-02 03:04:00,
2013-06-01 23:05:00,71.5,68.1,29.87,SW,228,10.5,15.0,89,0.00,,,0.33,VWS V14.01,2013-06-02 03:05:00,
2013-06-01 23:06:00,71.5,68.1,29.87,SW,223,12.0,24.0,89,0.00,,,0.33,VWS V14.01,2013-06-02 03:06:00,
2013-06-01 23:07:00,71.4,68.0,29.87,SW,229,12.0,16.5,89,0.00,,,0.33,VWS V14.01,2013-06-02 03:07:00,
2013-06-01 23:08:00,71.4,68.0,29.87,SW,223,6.0,16.5,89,0.00,,,0.33,VWS V14.01,2013-06-02 03:08:00,
2013-06-01 23:09:00,71.4,68.0,29.87,SW,233,12.0,19.5,89,0.00,,,0.33,VWS V14.01,2013-06-02 03:09:00,
2013-06-01 23:10:00,71.3,67.9,29.87,WSW,240,9.0,16.5,89,0.00,,,0.33,VWS V14.01,2013-06-02 03:10:00,
2013-06-01 23:11:00,71.3,67.9,29.87,WSW,244,10.5,15.0,89,0.00,,,0.33,VWS V14.01,2013-06-02 03:11:00,
2013-06-01 23:12:00,71.3,67.9,29.87,WSW,241,9.0,10.5,89,0.00,,,0.33,VWS V14.01,2013-06-02 03:12:00,
2013-06-01 23:13:00,71.3,67.9,29.87,SSW,203,10.5,16.5,89,0.00,,,0.33,VWS V14.01,2013-06-02 03:13:00,
2013-06-01 23:14:00,71.2,67.8,29.87,SW,230,12.0,16.5,89,0.00,,,0.33,VWS V14.01,2013-06-02 03:14:00,
2013-06-01 23:15:00,71.2,67.8,29.87,West,260,9.0,12.0,89,0.00,,,0.33,VWS V14.01,2013-06-02 03:15:00,
2013-06-01 23:16:00,71.2,67.8,29.87,West,269,9.0,13.5,89,0.00,,,0.33,VWS V14.01,2013-06-02 03:16:00,
2013-06-01 23:17:00,71.1,68.0,29.87,WNW,285,10.5,19.5,90,0.00,,,0.33,VWS V14.01,2013-06-02 03:17:00,
2013-06-01 23:18:00,71.1,68.0,29.87,WSW,239,15.0,19.5,90,0.00,,,0.33,VWS V14.01,2013-06-02 03:18:00,
2013-06-01 23:19:00,71.1,68.0,29.87,WSW,255,9.0,15.0,90,0.00,,,0.33,VWS V14.01,2013-06-02 03:19:00,
2013-06-01 23:20:00,71.1,68.0,29.87,WSW,240,18.0,18.0,90,0.00,,,0.33,VWS V14.01,2013-06-02 03:20:00,
2013-06-01 23:21:00,71.1,68.0,29.87,WSW,250,12.0,18.0,90,0.00,,,0.33,VWS V14.01,2013-06-02 03:21:00,
2013-06-01 23:22:00,71.1,68.0,29.87,SW,221,10.5,10.5,90,0.00,,,0.33,VWS V14.01,2013-06-02 03:22:00,
2013-06-01 23:23:00,71.0,67.9,29.87,WSW,237,10.5,13.5,90,0.00,,,0.33,VWS V14.01,2013-06-02 03:23:00,
2013-06-01 23:24:00,71.0,67.9,29.87,SW,234,7.5,12.0,90,0.00,,,0.33,VWS V14.01,2013-06-02 03:24:00,
2013-06-01 23:25:00,71.0,67.9,29.88,WSW,257,9.0,13.5,90,0.00,,,0.33,VWS V14.01,2013-06-02 03:25:00,
2013-06-01 23:26:00,71.0,67.9,29.88,SSW,201,13.5,13.5,90,0.00,,,0.33,VWS V14.01,2013-06-02 03:26:00,
2013-06-01 23:27:00,71.0,67.9,29.88,WSW,248,7.5,9.0,90,0.00,,,0.33,VWS V14.01,2013-06-02 03:27:00,
2013-06-01 23:28:00,71.0,67.9,29.88,SW,225,10.5,10.5,90,0.00,,,0.33,VWS V14.01,2013-06-02 03:28:00,
2013-06-01 23:29:00,71.0,67.9,29.88,WSW,248,12.0,15.0,90,0.00,,,0.33,VWS V14.01,2013-06-02 03:29:00,
2013-06-01 23:30:00,70.9,67.8,29.88,SW,227,13.5,18.0,90,0.00,,,0.33,VWS V14.01,2013-06-02 03:30:00,
2013-06-01 23:31:00,70.9,67.8,29.87,West,262,6.0,13.5,90,0.00,,,0.33,VWS V14.01,2013-06-02 03:31:00,
2013-06-01 23:32:00,70.9,67.8,29.88,SW,219,13.5,13.5,90,0.00,,,0.33,VWS V14.01,2013-06-02 03:32:00,
2013-06-01 23:33:00,70.9,67.8,29.88,WSW,240,19.5,19.5,90,0.00,,,0.33,VWS V14.01,2013-06-02 03:33:00,
2013-06-01 23:34:00,70.9,67.8,29.88,WSW,244,9.0,22.5,90,0.00,,,0.33,VWS V14.01,2013-06-02 03:34:00,
2013-06-01 23:35:00,70.9,67.8,29.88,WSW,248,12.0,13.5,90,0.00,,,0.33,VWS V14.01,2013-06-02 03:35:00,
2013-06-01 23:36:00,70.9,67.8,29.88,West,260,9.0,15.0,90,0.00,,,0.33,VWS V14.01,2013-06-02 03:36:00,
2013-06-01 23:37:00,70.9,67.8,29.87,West,278,7.5,12.0,90,0.00,,,0.33,VWS V14.01,2013-06-02 03:37:00,
2013-06-01 23:38:00,70.8,67.7,29.87,SE,133,4.5,12.0,90,0.00,,,0.33,VWS V14.01,2013-06-02 03:38:00,
2013-06-01 23:39:00,70.8,67.7,29.87,SW,227,12.0,13.5,90,0.00,,,0.33,VWS V14.01,2013-06-02 03:39:00,
2013-06-01 23:40:00,70.8,67.7,29.87,WSW,246,10.5,13.5,90,0.00,,,0.33,VWS V14.01,2013-06-02 03:40:00,
2013-06-01 23:41:00,70.8,68.1,29.87,WSW,240,12.0,16.5,91,0.00,,,0.33,VWS V14.01,2013-06-02 03:41:00,
2013-06-01 23:42:00,70.8,68.1,29.87,SW,234,15.0,18.0,91,0.00,,,0.33,VWS V14.01,2013-06-02 03:42:00,
2013-06-01 23:43:00,70.7,67.9,29.87,SW,217,6.0,18.0,91,0.00,,,0.33,VWS V14.01,2013-06-02 03:43:00,
2013-06-01 23:44:00,70.7,67.9,29.87,SSW,203,12.0,15.0,91,0.00,,,0.33,VWS V14.01,2013-06-02 03:44:00,
2013-06-01 23:45:00,70.7,67.9,29.87,SW,226,7.5,13.5,91,0.00,,,0.33,VWS V14.01,2013-06-02 03:45:00,
2013-06-01 23:46:00,70.7,67.9,29.87,SW,235,16.5,16.5,91,0.00,,,0.33,VWS V14.01,2013-06-02 03:46:00,
2013-06-01 23:47:00,70.7,67.9,29.87,WSW,251,7.5,12.0,91,0.00,,,0.33,VWS V14.01,2013-06-02 03:47:00,
2013-06-01 23:48:00,70.7,67.9,29.87,WSW,250,10.5,15.0,91,0.00,,,0.33,VWS V14.01,2013-06-02 03:48:00,
2013-06-01 23:49:00,70.7,67.9,29.87,WSW,248,9.0,12.0,91,0.00,,,0.33,VWS V14.01,2013-06-02 03:49:00,
2013-06-01 23:50:00,70.7,67.9,29.87,West,268,7.5,12.0,91,0.00,,,0.33,VWS V14.01,2013-06-02 03:50:00,
2013-06-01 23:51:00,70.7,67.9,29.87,WSW,237,7.5,13.5,91,0.00,,,0.33,VWS V14.01,2013-06-02 03:51:00,
2013-06-01 23:52:00,70.6,67.8,29.87,SSW,196,7.5,10.5,91,0.00,,,0.33,VWS V14.01,2013-06-02 03:52:00,
2013-06-01 23:53:00,70.7,67.9,29.87,SSW,210,10.5,10.5,91,0.00,,,0.33,VWS V14.01,2013-06-02 03:53:00,
2013-06-01 23:54:00,70.6,67.8,29.87,West,260,7.5,15.0,91,0.00,,,0.33,VWS V14.01,2013-06-02 03:54:00,
2013-06-01 23:55:00,70.6,67.8,29.87,WSW,252,9.0,13.5,91,0.00,,,0.33,VWS V14.01,2013-06-02 03:55:00,
2013-06-01 23:56:00,70.6,67.8,29.87,WSW,258,4.5,10.5,91,0.00,,,0.33,VWS V14.01,2013-06-02 03:56:00,
2013-06-01 23:57:00,70.6,67.8,29.87,SW,226,9.0,9.0,91,0.00,,,0.33,VWS V14.01,2013-06-02 03:57:00,
2013-06-01 23:58:00,70.6,67.8,29.87,WSW,257,15.0,15.0,91,0.00,,,0.33,VWS V14.01,2013-06-02 03:58:00,
2013-06-01 23:59:00,70.6,67.8,29.87,WSW,253,12.0,16.5,91,0.00,,,0.33,VWS V14.01,2013-06-02 03:59:00,